[[{"header":{"parameterUnit":"m.s-1","parameterCategory":1,"la1":31.0,"la2":29.5877,"lo1":-88.7671,"lo2":-86.6584,"dy":0.0162,"dx":0.0185,"nx":115,"ny":88,"refTime":"2026-03-06T12:00:00:Z","depth":0,"parameterNumber":2,"parameterNumberName":"U-component_of_WINDS"},"data":[0.0,0.0,0.0,0.0,0.0,0.0,0.0,0.0,0.0,0.0,0.0,0.0,0.0,0.0,0.0,0.0,0.0,0.0,0.0,0.0,0.0,0.0,0.0,0.0,0.0,0.0,0.0,0.0,0.0,0.0,0.0,0.0,0.0,0.0,0.0,0.0,0.0,0.0,0.0,0.0,0.0,0.0,0.0,0.0,0.0,0.0,0.0,0.0,0.0,0.0,0.0,0.0,0.0,0.0,0.0,0.0,0.0,0.0,0.0,0.0,0.0,0.0,0.0,0.0,0.0,0.0,0.0,0.0,0.0,0.0,0.0,0.0,0.0,0.0,0.0,0.0,0.0,0.0,0.0,0.0,0.0,0.0,0.0,0.0,0.0,0.0,0.0,0.0,0.0,0.0,0.0,0.0,0.0,0.0,0.0,0.0,0.0,0.0,0.0,0.0,0.0,0.0,0.0,0.0,0.0,0.0,0.0,0.0,0.0,0.0,0.0,0.0,0.0,0.0,0.0,0.0,0.0,0.0,0.0,0.0,0.0,0.0,0.0,0.0,0.0,0.0,0.0,0.0,0.0,0.0,0.0,0.0,0.0,0.0,0.0,0.0,0.0,0.0,0.0,0.0,0.0,0.0,0.0,0.0,0.0,0.0,0.0,0.0,0.0,0.0,0.0,0.0,0.0,0.0,0.0,0.0,0.0,0.0,0.0,0.0,0.0,0.0,0.0,0.0,0.0,0.0,0.0,0.0,0.0,0.0,0.0,0.0,0.0,0.0,0.0,0.0,0.0,0.0,0.0,0.0,0.0,0.0,0.0,0.0,0.0,0.0,0.0,0.0,0.0,0.0,0.0,0.0,0.0,0.0,0.0,0.0,0.0,0.0,0.0,0.0,0.0,0.0,0.0,0.0,0.0,0.0,0.0,0.0,0.0,0.0,0.0,0.0,0.0,0.0,0.0,0.0,0.0,0.0,0.0,0.0,0.0,0.0,0.0,0.0,0.0,0.0,0.0,0.0,0.0,0.0,0.0,0.0,0.0,0.0,0.0,0.0,0.0,0.0,0.0,0.0,0.0,0.0,0.0,0.0,0.0,0.0,0.0,0.0,0.0,0.0,0.0,0.0,0.0,0.0,0.0,0.0,0.0,0.0,0.0,0.0,0.0,0.0,0.0,0.0,0.0,0.0,0.0,0.0,0.0,0.0,0.0,0.0,0.0,0.0,0.0,0.0,0.0,0.0,0.0,0.0,0.0,0.0,0.0,0.0,0.0,0.0,0.0,0.0,0.0,0.0,0.0,0.0,0.0,0.0,0.0,0.0,0.0,0.0,0.0,0.0,0.0,0.0,0.0,0.0,0.0,0.0,0.0,0.0,0.0,0.0,0.0,0.0,0.0,0.0,0.0,0.0,0.0,0.0,0.0,0.0,0.0,0.0,0.0,0.0,0.0,0.0,0.0,0.0,0.0,0.0,0.0,0.0,0.0,0.0,0.0,0.0,0.0,0.0,0.0,0.0,0.0,0.0,0.0,0.0,0.0,0.0,0.0,0.0,0.0,0.0,0.0,0.0,0.0,0.0,0.0,0.0,0.0,0.0,0.0,0.0,0.0,0.0,0.0,0.0,0.0,0.0,0.0,0.0,0.0,0.0,0.0,0.0,0.0,0.0,0.0,0.0,0.0,0.0,0.0,0.0,0.0,0.0,0.0,0.0,0.0,0.0,0.0,0.0,0.0,0.0,0.0,0.0,0.0,0.0,0.0,0.0,0.0,0.0,0.0,0.0,0.0,0.0,0.0,0.0,0.0,0.0,0.0,0.0,0.0,0.0,0.0,0.0,0.0,0.0,0.0,0.0,0.0,0.0,0.0,0.0,0.0,0.0,0.0,0.0,0.0,0.0,0.0,0.0,0.0,0.0,0.0,0.0,0.0,0.0,0.0,0.0,0.0,0.0,0.0,0.0,0.0,0.0,0.0,0.0,0.0,0.0,0.0,0.0,0.0,0.0,0.0,0.0,0.0,0.0,0.0,0.0,0.0,0.0,0.0,0.0,0.0,0.0,0.0,0.0,0.0,0.0,0.0,0.0,0.0,0.0,0.0,0.0,0.0,0.0,0.0,0.0,0.0,0.0,0.0,0.0,0.0,0.0,0.0,0.0,0.0,0.0,0.0,0.0,0.0,0.0,0.0,0.0,0.0,0.0,0.0,0.0,0.0,0.0,0.0,0.0,0.0,0.0,0.0,0.0,0.0,0.0,0.0,0.0,0.0,0.0,0.0,0.0,0.0,0.0,0.0,0.0,0.0,0.0,0.0,0.0,0.0,0.0,0.0,0.0,0.0,0.0,0.0,0.0,0.0,0.0,0.0,0.0,0.0,0.0,0.0,0.0,0.0,0.0,0.0,0.0,0.0,0.0,0.0,0.0,0.0,0.0,0.0,0.0,0.0,0.0,0.0,0.0,0.0,0.0,0.0,0.0,0.0,0.0,0.0,0.0,0.0,0.0,0.0,0.0,0.0,0.0,0.0,0.0,0.0,0.0,0.0,0.0,0.0,0.0,0.0,0.0,0.0,0.0,0.0,0.0,0.0,0.0,0.0,0.0,0.0,0.0,0.0,0.0,0.0,0.0,0.0,0.0,0.0,0.0,0.0,0.0,0.0,0.0,0.0,0.0,0.0,0.0,0.0,0.0,0.0,0.0,0.0,0.0,0.0,0.0,0.0,0.0,0.0,0.0,0.0,0.0,0.0,0.0,0.0,0.0,0.0,0.0,0.0,0.0,0.0,0.0,0.0,0.0,0.0,0.0,0.0,0.0,0.0,0.0,0.0,0.0,0.0,0.0,0.0,0.0,0.0,0.0,0.0,0.0,0.0,0.0,0.0,0.0,0.0,0.0,0.0,0.0,0.0,0.0,0.0,0.0,0.0,0.0,0.0,0.0,0.0,0.0,0.0,0.0,0.0,0.0,0.0,0.0,0.0,0.0,0.0,0.0,0.0,0.0,0.0,0.0,0.0,0.0,0.0,0.0,0.0,0.0,0.0,0.0,0.0,0.0,0.0,0.0,0.0,0.0,0.0,0.0,0.0,0.0,0.0,0.0,0.0,0.0,0.0,0.0,0.0,0.0,0.0,0.0,0.0,0.0,0.0,0.0,0.0,0.0,0.0,0.0,0.0,0.0,0.0,0.0,0.0,0.0,0.0,0.0,0.0,0.0,0.0,0.0,0.0,0.0,0.0,0.0,0.0,0.0,0.0,0.0,0.0,0.0,0.0,0.0,0.0,0.0,0.0,0.0,0.0,0.0,0.0,0.0,0.0,0.0,0.0,0.0,0.0,0.0,0.0,0.0,0.0,0.0,0.0,0.0,0.0,0.0,0.0,0.0,0.0,0.0,0.0,0.0,0.0,0.0,0.0,0.0,0.0,0.0,0.0,0.0,0.0,0.0,0.0,0.0,0.0,0.0,0.0,0.0,0.0,0.0,0.0,0.0,0.0,0.0,0.0,0.0,0.0,0.0,0.0,0.0,0.0,0.0,0.0,0.0,0.0,0.0,0.0,0.0,0.0,0.0,0.0,0.0,0.0,0.0,0.0,0.0,0.0,0.0,0.0,0.0,0.0,0.0,0.0,0.0,0.0,0.0,0.0,0.0,0.0,0.0,0.0,0.0,0.0,0.0,0.0,0.0,0.0,0.0,0.0,0.0,0.0,0.0,0.0,0.0,0.0,0.0,0.0,0.0,0.0,0.0,0.0,0.0,0.0,0.0,0.0,0.0,0.0,0.0,0.0,0.0,0.0,0.0,0.0,0.0,0.0,0.0,0.0,0.0,0.0,0.0,0.0,0.0,0.0,0.0,0.0,0.0,0.0,0.0,0.0,0.0,0.0,0.0,0.0,0.0,0.0,0.0,0.0,0.0,0.0,0.0,0.0,0.0,0.0,0.0,0.0,0.0,0.0,0.0,0.0,0.0,0.0,0.0,0.0,0.0,0.0,0.0,0.0,0.0,0.0,0.0,0.0,0.0,0.0,0.0,0.0,0.0,0.0,0.0,0.0,0.0,0.0,0.0,0.0,0.0,0.0,0.0,0.0,0.0,0.0,0.0,0.0,0.0,0.0,0.0,0.0,0.0,0.0,0.0,0.0,0.0,0.0,0.0,0.0,0.0,0.0,0.0,0.0,0.0,0.0,0.0,0.0,0.0,0.0,0.0,0.0,0.0,0.0,0.0,0.0,0.0,0.0,0.0,0.0,0.0,0.0,0.0,0.0,0.0,0.0,0.0,0.0,0.0,0.0,0.0,-1.0312,0.0,0.0,0.0,0.0,0.0,0.0,0.0,0.0,0.0,0.0,0.0,0.0,0.0,0.0,0.0,0.0,0.0,0.0,0.0,0.0,0.0,0.0,0.0,0.0,0.0,0.0,0.0,0.0,0.0,0.0,0.0,0.0,0.0,0.0,0.0,0.0,0.0,0.0,0.0,0.0,0.0,0.0,0.0,0.0,0.0,0.0,0.0,0.0,0.0,0.0,0.0,0.0,0.0,0.0,0.0,0.0,0.0,0.0,0.0,0.0,0.0,0.0,0.0,0.0,0.0,0.0,0.0,0.0,0.0,0.0,0.0,0.0,0.0,0.0,0.0,0.0,0.0,0.0,0.0,0.0,0.0,0.0,0.0,0.0,0.0,0.0,0.0,0.0,0.0,0.0,0.0,0.0,0.0,0.0,0.0,0.0,0.0,0.0,0.0,0.0,0.0,0.0,0.0,0.0,0.0,0.0,0.0,0.0,0.0,0.0,-1.0312,-1.0312,-1.0312,-1.0312,-1.0312,0.0,0.0,0.0,0.0,0.0,0.0,0.0,0.0,0.0,0.0,0.0,0.0,0.0,0.0,0.0,0.0,0.0,0.0,0.0,0.0,0.0,0.0,0.0,0.0,0.0,0.0,0.0,0.0,0.0,0.0,0.0,0.0,0.0,0.0,0.0,0.0,0.0,0.0,0.0,0.0,0.0,0.0,0.0,0.0,0.0,0.0,0.0,0.0,0.0,0.0,0.0,0.0,0.0,0.0,0.0,0.0,0.0,0.0,0.0,0.0,0.0,0.0,0.0,0.0,0.0,0.0,0.0,0.0,0.0,0.0,0.0,0.0,0.0,0.0,0.0,0.0,0.0,0.0,0.0,0.0,0.0,0.0,0.0,0.0,0.0,0.0,0.0,0.0,0.0,0.0,0.0,0.0,0.0,0.0,0.0,0.0,0.0,0.0,0.0,0.0,0.0,0.0,0.0,0.0,0.0,0.0,0.0,0.0,0.0,0.0,0.0,0.0,-1.0586,-1.0596,-1.0596,0.0,0.0,0.0,0.0,0.0,0.0,0.0,0.0,0.0,0.0,0.0,0.0,0.0,0.0,0.0,0.0,0.0,0.0,0.0,0.0,0.0,0.0,0.0,0.0,0.0,0.0,0.0,0.0,0.0,0.0,0.0,0.0,0.0,0.0,0.0,0.0,0.0,0.0,0.0,0.0,0.0,0.0,0.0,0.0,0.0,0.0,0.0,0.0,0.0,0.0,0.0,0.0,0.0,0.0,0.0,0.0,0.0,0.0,0.0,0.0,0.0,0.0,0.0,0.0,0.0,0.0,0.0,0.0,0.0,0.0,0.0,0.0,0.0,0.0,0.0,0.0,0.0,0.0,0.0,0.0,0.0,0.0,0.0,0.0,0.0,0.0,0.0,0.0,0.0,0.0,0.0,0.0,0.0,0.0,0.0,0.0,0.0,0.0,0.0,0.0,0.0,0.0,0.0,0.0,0.0,0.0,0.0,0.0,0.0,0.0,-1.0674,-1.1445,-1.1465,0.0,-1.1475,0.0,0.0,0.0,0.0,0.0,0.0,0.0,0.0,0.0,0.0,0.0,0.0,0.0,0.0,0.0,0.0,0.0,0.0,0.0,0.0,0.0,0.0,0.0,0.0,0.0,0.0,0.0,0.0,0.0,0.0,0.0,0.0,0.0,0.0,0.0,0.0,0.0,0.0,0.0,0.0,0.0,0.0,0.0,0.0,0.0,0.0,0.0,0.0,0.0,0.0,0.0,0.0,0.0,0.0,0.0,0.0,0.0,0.0,0.0,0.0,0.0,0.0,0.0,0.0,0.0,0.0,0.0,0.0,0.0,0.0,0.0,0.0,0.0,0.0,0.0,0.0,0.0,0.0,0.0,0.0,0.0,0.0,0.0,0.0,0.0,0.0,0.0,0.0,0.0,0.0,0.0,0.0,0.0,0.0,0.0,0.0,0.0,0.0,0.0,0.0,0.0,0.0,0.0,0.0,0.0,0.0,0.0,0.0,0.0,0.0,-1.125,-1.1592,-1.1602,-1.1602,0.0,0.0,0.0,0.0,0.0,0.0,0.0,0.0,0.0,0.0,0.0,0.0,0.0,0.0,0.0,0.0,0.0,0.0,0.0,0.0,0.0,0.0,0.0,0.0,0.0,0.0,0.0,0.0,0.0,0.0,0.0,0.0,0.0,0.0,0.0,0.0,0.0,0.0,0.0,0.0,0.0,0.0,0.0,0.0,0.0,0.0,0.0,0.0,0.0,0.0,0.0,0.0,0.0,0.0,0.0,0.0,0.0,0.0,0.0,0.0,0.0,0.0,0.0,0.0,0.0,0.0,0.0,0.0,0.0,0.0,0.0,0.0,0.0,0.0,0.0,0.0,0.0,0.0,0.0,0.0,0.0,0.0,0.0,0.0,0.0,0.0,0.0,0.0,0.0,0.0,0.0,0.0,0.0,0.0,0.0,0.0,0.0,0.0,0.0,0.0,0.0,0.0,0.0,0.0,0.0,0.0,0.0,0.0,0.0,0.0,-1.1386,-1.1678,-1.1913,-1.1923,-1.1836,-1.1611,0.0,0.0,0.0,0.0,0.0,0.0,0.0,0.0,0.0,0.0,0.0,0.0,0.0,0.0,0.0,0.0,0.0,0.0,0.0,0.0,0.0,0.0,0.0,0.0,0.0,0.0,0.0,0.0,0.0,0.0,0.0,0.0,0.0,0.0,0.0,0.0,0.0,0.0,0.0,0.0,0.0,0.0,0.0,0.0,0.0,0.0,0.0,0.0,0.0,0.0,0.0,0.0,0.0,0.0,0.0,0.0,0.0,0.0,0.0,0.0,0.0,0.0,0.0,0.0,0.0,0.0,0.0,0.0,0.0,0.0,0.0,0.0,0.0,0.0,0.0,0.0,0.0,0.0,0.0,0.0,0.0,0.0,0.0,0.0,0.0,0.0,0.0,0.0,0.0,0.0,0.0,0.0,0.0,0.0,0.0,0.0,0.0,0.0,0.0,0.0,0.0,0.0,0.0,0.0,0.0,0.0,0.0,0.0,0.0,-1.1926,-1.1905,-1.2707,-1.2734,-1.238,0.0,0.0,0.0,0.0,0.0,0.0,0.0,0.0,0.0,0.0,0.0,0.0,0.0,0.0,0.0,0.0,0.0,0.0,0.0,0.0,0.0,0.0,0.0,0.0,0.0,0.0,0.0,0.0,0.0,0.0,0.0,0.0,0.0,0.0,0.0,0.0,0.0,0.0,0.0,0.0,0.0,0.0,0.0,0.0,0.0,0.0,0.0,0.0,0.0,0.0,0.0,0.0,0.0,0.0,0.0,0.0,0.0,0.0,0.0,0.0,0.0,0.0,0.0,0.0,0.0,0.0,0.0,0.0,0.0,0.0,0.0,0.0,0.0,0.0,0.0,0.0,0.0,0.0,0.0,0.0,0.0,0.0,0.0,0.0,0.0,0.0,0.0,0.0,0.0,0.0,0.0,0.0,0.0,0.0,0.0,0.0,0.0,0.0,0.0,0.0,0.0,0.0,0.0,0.0,0.0,0.0,0.0,0.0,0.0,-1.1139,-1.138,-1.2156,-1.3453,-1.2535,-1.2083,0.0,0.0,0.0,0.0,0.0,0.0,0.0,0.0,0.0,0.0,0.0,0.0,0.0,0.0,0.0,0.0,0.0,0.0,0.0,0.0,0.0,0.0,0.0,0.0,0.0,0.0,0.0,0.0,0.0,0.0,0.0,0.0,0.0,0.0,0.0,0.0,0.0,0.0,0.0,0.0,0.0,0.0,0.0,0.0,0.0,0.0,0.0,0.0,0.0,0.0,0.0,0.0,0.0,0.0,0.0,0.0,0.0,0.0,0.0,0.0,0.0,0.0,0.0,0.0,0.0,0.0,0.0,0.0,0.0,0.0,0.0,0.0,0.0,0.0,0.0,0.0,0.0,0.0,0.0,0.0,0.0,0.0,0.0,0.0,0.0,0.0,0.0,0.0,0.0,0.0,0.0,0.0,0.0,0.0,0.0,0.0,0.0,0.0,0.0,0.0,0.0,0.0,0.0,0.0,0.0,0.0,0.0,0.0,0.0,-1.1015,0.0,-1.2734,0.0,-1.2518,-1.1937,0.0,0.0,0.0,0.0,0.0,0.0,0.0,0.0,0.0,0.0,0.0,0.0,0.0,0.0,0.0,0.0,0.0,0.0,0.0,0.0,0.0,0.0,0.0,0.0,0.0,0.0,0.0,0.0,0.0,0.0,0.0,0.0,0.0,0.0,0.0,0.0,0.0,0.0,0.0,0.0,0.0,0.0,0.0,0.0,0.0,0.0,0.0,0.0,0.0,0.0,0.0,0.0,0.0,0.0,0.0,0.0,0.0,0.0,0.0,0.0,0.0,0.0,0.0,0.0,0.0,0.0,0.0,0.0,0.0,0.0,0.0,0.0,0.0,0.0,0.0,0.0,0.0,0.0,0.0,0.0,0.0,0.0,0.0,0.0,0.0,0.0,0.0,0.0,0.0,0.0,0.0,0.0,0.0,0.0,0.0,0.0,0.0,0.0,0.0,0.0,0.0,0.0,0.0,0.0,0.0,0.0,0.0,0.0,-1.1085,-1.2594,-1.3447,-1.3534,-1.2796,-1.2741,-1.1979,0.0,0.0,0.0,0.0,0.0,0.0,0.0,0.0,0.0,0.0,0.0,0.0,0.0,0.0,0.0,0.0,0.0,0.0,0.0,0.0,0.0,0.0,0.0,0.0,0.0,0.0,0.0,0.0,0.0,0.0,0.0,0.0,0.0,0.0,0.0,0.0,0.0,0.0,0.0,0.0,0.0,0.0,0.0,0.0,0.0,0.0,0.0,0.0,0.0,0.0,0.0,0.0,0.0,0.0,0.0,0.0,0.0,0.0,0.0,0.0,0.0,0.0,0.0,0.0,0.0,0.0,0.0,0.0,0.0,0.0,0.0,0.0,0.0,0.0,0.0,0.0,0.0,0.0,0.0,0.0,0.0,0.0,0.0,0.0,0.0,0.0,0.0,0.0,0.0,0.0,0.0,0.0,0.0,0.0,0.0,0.0,0.0,0.0,0.0,0.0,0.0,0.0,0.0,0.0,0.0,0.0,0.0,0.0,0.0,-1.1887,-1.2672,-1.3525,-1.4322,-1.2736,-1.2148,0.0,0.0,0.0,0.0,0.0,0.0,0.0,0.0,0.0,0.0,0.0,0.0,0.0,0.0,0.0,0.0,0.0,0.0,0.0,0.0,0.0,0.0,0.0,0.0,0.0,0.0,0.0,0.0,0.0,0.0,0.0,0.0,0.0,0.0,0.0,0.0,0.0,0.0,0.0,0.0,0.0,0.0,0.0,0.0,0.0,0.0,0.0,0.0,0.0,0.0,0.0,0.0,0.0,0.0,0.0,0.0,0.0,0.0,0.0,0.0,0.0,0.0,0.0,0.0,0.0,0.0,0.0,0.0,0.0,0.0,0.0,0.0,0.0,0.0,0.0,0.0,0.0,0.0,0.0,0.0,0.0,0.0,0.0,0.0,0.0,0.0,0.0,0.0,0.0,0.0,0.0,0.0,0.0,0.0,0.0,0.0,0.0,0.0,0.0,0.0,0.0,0.0,0.0,0.0,0.0,0.0,0.0,0.0,0.0,-1.2463,-1.2902,-1.3647,-1.4689,-1.2563,-1.1903,-1.2928,0.0,0.0,0.0,0.0,0.0,0.0,0.0,0.0,0.0,0.0,0.0,0.0,0.0,0.0,0.0,0.0,0.0,0.0,0.0,0.0,0.0,0.0,0.0,0.0,0.0,0.0,0.0,0.0,0.0,0.0,0.0,0.0,0.0,0.0,0.0,0.0,0.0,0.0,0.0,0.0,0.0,0.0,0.0,0.0,0.0,0.0,0.0,0.0,0.0,0.0,0.0,0.0,0.0,0.0,0.0,0.0,0.0,0.0,0.0,0.0,0.0,0.0,0.0,0.0,0.0,0.0,0.0,0.0,0.0,0.0,0.0,0.0,0.0,0.0,0.0,0.0,0.0,0.0,0.0,0.0,0.0,0.0,0.0,0.0,0.0,0.0,0.0,0.0,0.0,0.0,0.0,0.0,0.0,0.0,0.0,0.0,0.0,0.0,0.0,0.0,0.0,0.0,0.0,0.0,0.0,0.0,0.0,0.0,-1.3917,-1.3915,-1.3927,-1.3978,-1.2379,-1.1485,0.0,0.0,0.0,0.0,0.0,0.0,0.0,0.0,0.0,0.0,0.0,0.0,0.0,0.0,0.0,0.0,0.0,0.0,0.0,0.0,0.0,0.0,0.0,0.0,0.0,0.0,0.0,0.0,0.0,0.0,0.0,0.0,0.0,0.0,0.0,0.0,0.0,0.0,0.0,0.0,0.0,0.0,0.0,0.0,0.0,0.0,0.0,0.0,0.0,0.0,0.0,0.0,0.0,0.0,0.0,0.0,0.0,0.0,0.0,0.0,0.0,0.0,0.0,0.0,0.0,0.0,0.0,0.0,0.0,0.0,0.0,0.0,0.0,0.0,0.0,0.0,0.0,0.0,0.0,0.0,0.0,0.0,0.0,0.0,0.0,0.0,0.0,0.0,0.0,0.0,0.0,0.0,0.0,0.0,0.0,0.0,0.0,0.0,0.0,0.0,0.0,0.0,0.0,0.0,0.0,0.0,0.0,0.0,0.0,-1.3036,-1.3604,-1.4196,-1.4786,-1.3227,-1.2362,0.0,0.0,0.0,0.0,0.0,0.0,0.0,0.0,0.0,0.0,0.0,0.0,0.0,0.0,0.0,0.0,0.0,0.0,0.0,0.0,0.0,0.0,0.0,0.0,0.0,0.0,0.0,0.0,0.0,0.0,0.0,0.0,0.0,0.0,0.0,0.0,0.0,0.0,0.0,0.0,0.0,0.0,0.0,0.0,0.0,0.0,0.0,0.0,0.0,0.0,0.0,0.0,0.0,0.0,0.0,0.0,0.0,0.0,0.0,0.0,0.0,0.0,0.0,0.0,0.0,0.0,0.0,0.0,0.0,0.0,0.0,0.0,0.0,0.0,0.0,0.0,0.0,0.0,0.0,0.0,0.0,0.0,0.0,0.0,0.0,0.0,0.0,0.0,0.0,0.0,0.0,0.0,0.0,0.0,0.0,0.0,0.0,0.0,0.0,0.0,0.0,0.0,0.0,0.0,0.0,0.0,0.0,0.0,-1.3055,-1.3729,-1.4202,-1.4507,-1.4651,-1.3714,-1.3043,0.0,0.0,0.0,0.0,0.0,0.0,0.0,0.0,0.0,0.0,0.0,0.0,0.0,0.0,0.0,0.0,0.0,0.0,0.0,0.0,0.0,0.0,0.0,0.0,0.0,0.0,0.0,0.0,0.0,0.0,0.0,0.0,0.0,0.0,0.0,0.0,0.0,0.0,0.0,0.0,0.0,0.0,0.0,0.0,0.0,0.0,0.0,0.0,0.0,0.0,0.0,0.0,0.0,0.0,0.0,0.0,0.0,0.0,0.0,0.0,0.0,0.0,0.0,0.0,0.0,0.0,0.0,0.0,0.0,0.0,0.0,0.0,0.0,0.0,0.0,0.0,0.0,0.0,0.0,0.0,0.0,0.0,0.0,0.0,0.0,0.0,0.0,0.0,0.0,0.0,0.0,0.0,0.0,0.0,0.0,0.0,0.0,0.0,0.0,0.0,0.0,0.0,0.0,0.0,0.0,0.0,0.0,0.0,-1.3553,-1.5019,-1.5154,-1.4824,-1.4081,-1.3946,-1.3481,0.0,0.0,0.0,0.0,0.0,0.0,0.0,0.0,0.0,0.0,0.0,0.0,0.0,0.0,0.0,0.0,0.0,0.0,0.0,0.0,0.0,0.0,0.0,0.0,0.0,0.0,0.0,0.0,0.0,0.0,0.0,0.0,0.0,0.0,0.0,0.0,0.0,0.0,0.0,0.0,0.0,0.0,0.0,0.0,0.0,0.0,0.0,0.0,0.0,0.0,0.0,0.0,0.0,0.0,0.0,0.0,0.0,0.0,0.0,0.0,0.0,0.0,0.0,0.0,0.0,0.0,0.0,0.0,0.0,0.0,0.0,0.0,0.0,0.0,0.0,0.0,0.0,0.0,0.0,0.0,0.0,0.0,0.0,0.0,0.0,0.0,0.0,0.0,0.0,0.0,0.0,0.0,0.0,0.0,0.0,0.0,0.0,0.0,0.0,0.0,0.0,0.0,0.0,0.0,0.0,0.0,0.0,0.0,-1.3805,-1.4177,-1.4846,-1.5115,-1.4923,-1.4254,-1.3197,0.0,0.0,0.0,0.0,0.0,0.0,0.0,0.0,0.0,0.0,0.0,0.0,0.0,0.0,0.0,0.0,0.0,0.0,0.0,0.0,0.0,0.0,0.0,0.0,0.0,0.0,0.0,0.0,0.0,0.0,0.0,0.0,0.0,0.0,0.0,0.0,0.0,0.0,0.0,0.0,0.0,0.0,0.0,0.0,0.0,0.0,0.0,0.0,-1.117,0.0,0.0,0.0,0.0,0.0,0.0,0.0,0.0,0.0,0.0,0.0,0.0,0.0,0.0,0.0,0.0,0.0,0.0,0.0,0.0,0.0,0.0,0.0,0.0,0.0,0.0,0.0,0.0,0.0,0.0,0.0,0.0,0.0,0.0,0.0,0.0,0.0,0.0,0.0,0.0,0.0,0.0,0.0,0.0,0.0,0.0,0.0,0.0,0.0,0.0,0.0,0.0,0.0,0.0,0.0,0.0,0.0,0.0,0.0,-1.41,-1.4494,-1.4968,-1.5195,-1.5173,-1.435,-1.3295,0.0,0.0,0.0,0.0,0.0,0.0,0.0,0.0,0.0,0.0,0.0,0.0,0.0,0.0,0.0,0.0,0.0,0.0,0.0,0.0,0.0,0.0,0.0,0.0,0.0,0.0,0.0,0.0,0.0,0.0,0.0,0.0,0.0,0.0,0.0,0.0,0.0,0.0,0.0,0.0,0.0,0.0,0.0,0.0,0.0,0.0,0.0,0.0,0.0,0.0,0.0,0.0,0.0,0.0,0.0,0.0,0.0,0.0,0.0,0.0,0.0,0.0,0.0,0.0,0.0,0.0,0.0,0.0,0.0,0.0,0.0,0.0,0.0,0.0,0.0,0.0,0.0,0.0,0.0,0.0,0.0,0.0,0.0,0.0,0.0,0.0,0.0,0.0,0.0,0.0,0.0,0.0,0.0,0.0,0.0,0.0,0.0,0.0,0.0,0.0,0.0,0.0,0.0,0.0,0.0,0.0,0.0,-1.3567,-1.4315,-1.5154,-1.5195,-1.5195,-1.5195,-1.4353,-1.3536,-1.2741,0.0,0.0,0.0,0.0,0.0,0.0,0.0,0.0,0.0,0.0,0.0,0.0,0.0,0.0,0.0,0.0,0.0,0.0,0.0,0.0,0.0,0.0,0.0,0.0,0.0,0.0,0.0,0.0,0.0,0.0,0.0,0.0,0.0,0.0,0.0,0.0,0.0,0.0,-0.9492,-1.0725,0.0,0.0,0.0,0.0,0.0,0.0,0.0,0.0,-1.0945,0.0,0.0,0.0,0.0,0.0,0.0,0.0,0.0,0.0,0.0,0.0,0.0,0.0,0.0,0.0,0.0,0.0,0.0,0.0,0.0,0.0,0.0,0.0,0.0,0.0,0.0,0.0,0.0,0.0,0.0,0.0,0.0,0.0,0.0,0.0,0.0,0.0,0.0,0.0,0.0,0.0,0.0,0.0,0.0,0.0,0.0,0.0,0.0,0.0,0.0,0.0,0.0,0.0,0.0,0.0,0.0,-1.367,-1.3843,-1.4315,-1.5163,-1.5195,-1.5195,-1.5173,-1.436,-1.3529,-1.2738,0.0,0.0,0.0,0.0,0.0,0.0,0.0,0.0,0.0,0.0,0.0,0.0,0.0,0.0,0.0,0.0,0.0,0.0,0.0,0.0,0.0,0.0,0.0,0.0,0.0,0.0,0.0,0.0,0.0,0.0,0.0,0.0,0.0,0.0,0.0,0.0,0.0,0.0,0.0,-1.1995,-1.2351,0.0,0.0,0.0,0.0,0.0,0.0,0.0,0.0,-1.0884,0.0,0.0,0.0,0.0,0.0,0.0,0.0,0.0,0.0,0.0,0.0,0.0,0.0,0.0,0.0,0.0,0.0,0.0,0.0,0.0,0.0,0.0,0.0,0.0,0.0,0.0,0.0,0.0,0.0,0.0,0.0,0.0,0.0,0.0,0.0,0.0,0.0,0.0,0.0,0.0,0.0,0.0,0.0,0.0,0.0,0.0,0.0,0.0,0.0,0.0,0.0,0.0,0.0,0.0,0.0,-1.3233,-1.368,-1.4315,-1.5163,-1.5195,-1.5195,-1.5173,-1.3955,-1.3092,0.0,0.0,0.0,0.0,0.0,0.0,0.0,0.0,0.0,0.0,0.0,0.0,0.0,0.0,0.0,0.0,0.0,0.0,0.0,0.0,0.0,0.0,0.0,0.0,0.0,0.0,0.0,0.0,0.0,0.0,0.0,0.0,0.0,0.0,0.0,0.0,0.0,0.0,0.0,0.0,-1.2195,-1.2319,-1.2826,0.0,0.0,0.0,0.0,0.0,0.0,-1.1358,-1.109,0.0,0.0,0.0,0.0,0.0,0.0,0.0,0.0,0.0,0.0,0.0,0.0,0.0,0.0,0.0,0.0,0.0,0.0,0.0,0.0,0.0,0.0,0.0,0.0,0.0,0.0,0.0,0.0,0.0,0.0,0.0,0.0,0.0,0.0,0.0,0.0,0.0,0.0,0.0,0.0,0.0,0.0,0.0,0.0,0.0,0.0,0.0,0.0,0.0,0.0,0.0,0.0,0.0,0.0,0.0,-1.2673,-1.3327,-1.4154,-1.5135,-1.5195,-1.5115,-1.493,-1.3803,-1.2969,0.0,0.0,0.0,0.0,0.0,0.0,0.0,0.0,0.0,0.0,0.0,0.0,0.0,0.0,0.0,0.0,0.0,0.0,0.0,0.0,0.0,0.0,0.0,0.0,0.0,0.0,0.0,0.0,0.0,0.0,0.0,0.0,0.0,0.0,0.0,0.0,0.0,0.0,0.0,0.0,0.0,-1.2644,-1.3682,-1.274,0.0,0.0,0.0,0.0,-1.1884,-1.1764,0.0,0.0,0.0,0.0,0.0,0.0,0.0,0.0,0.0,0.0,0.0,0.0,0.0,0.0,0.0,0.0,0.0,0.0,0.0,0.0,0.0,0.0,0.0,0.0,0.0,0.0,0.0,0.0,0.0,0.0,0.0,0.0,0.0,0.0,0.0,0.0,0.0,0.0,0.0,0.0,0.0,0.0,0.0,0.0,0.0,0.0,0.0,0.0,0.0,0.0,0.0,0.0,0.0,0.0,0.0,0.0,-1.2635,-1.2796,-1.3614,-1.5106,-1.5195,-1.4834,-1.4081,-1.4606,-1.3837,0.0,0.0,0.0,0.0,0.0,0.0,0.0,0.0,0.0,0.0,0.0,0.0,0.0,0.0,0.0,0.0,0.0,0.0,0.0,0.0,0.0,0.0,0.0,0.0,0.0,0.0,0.0,0.0,0.0,0.0,0.0,0.0,0.0,0.0,0.0,0.0,0.0,0.0,0.0,0.0,0.0,-1.4398,-1.3133,-1.3391,-1.344,0.0,0.0,-1.2793,-1.3505,-1.3022,0.0,0.0,0.0,0.0,0.0,0.0,0.0,0.0,0.0,0.0,0.0,0.0,0.0,0.0,0.0,0.0,0.0,0.0,0.0,0.0,0.0,0.0,0.0,0.0,0.0,0.0,0.0,0.0,0.0,0.0,0.0,0.0,0.0,0.0,0.0,0.0,0.0,0.0,0.0,0.0,0.0,0.0,0.0,0.0,0.0,0.0,0.0,0.0,0.0,0.0,0.0,0.0,0.0,0.0,0.0,-1.0964,-1.2623,-1.2692,-1.3508,-1.5128,-1.5195,-1.4798,-1.3918,-1.4264,-1.3494,0.0,0.0,0.0,0.0,0.0,0.0,0.0,0.0,0.0,0.0,0.0,0.0,0.0,0.0,0.0,0.0,0.0,0.0,0.0,0.0,0.0,0.0,0.0,0.0,0.0,0.0,0.0,0.0,0.0,0.0,0.0,0.0,0.0,0.0,0.0,0.0,0.0,0.0,0.0,0.0,0.0,0.0,-1.41,-1.3667,0.0,0.0,0.0,-1.3667,-1.451,0.0,0.0,0.0,0.0,0.0,0.0,0.0,0.0,0.0,0.0,0.0,0.0,0.0,0.0,0.0,0.0,0.0,0.0,0.0,0.0,0.0,0.0,0.0,0.0,0.0,0.0,0.0,0.0,0.0,0.0,0.0,0.0,0.0,0.0,0.0,0.0,0.0,0.0,0.0,0.0,0.0,0.0,0.0,0.0,0.0,0.0,0.0,0.0,0.0,0.0,0.0,0.0,0.0,0.0,0.0,0.0,0.0,-1.2652,-1.2692,-1.3497,-1.5066,-1.5143,-1.4625,-1.3572,-1.3706,0.0,0.0,0.0,0.0,0.0,0.0,0.0,0.0,0.0,0.0,0.0,0.0,0.0,0.0,0.0,0.0,0.0,0.0,0.0,0.0,0.0,0.0,0.0,0.0,0.0,0.0,0.0,-0.5752,0.0,0.0,0.0,0.0,0.0,0.0,0.0,0.0,0.0,0.0,0.0,0.0,0.0,0.0,-1.2817,-1.4717,-1.4213,-1.4027,0.0,0.0,-1.4702,-1.5125,-1.4468,-1.3632,0.0,0.0,0.0,0.0,0.0,0.0,0.0,0.0,0.0,0.0,0.0,0.0,0.0,0.0,0.0,0.0,0.0,0.0,0.0,0.0,0.0,0.0,0.0,0.0,0.0,0.0,0.0,0.0,0.0,0.0,0.0,0.0,0.0,0.0,0.0,0.0,0.0,0.0,0.0,0.0,0.0,0.0,0.0,0.0,0.0,0.0,0.0,0.0,0.0,0.0,0.0,0.0,0.0,0.0,0.0,-1.2625,-1.2692,-1.3451,-1.4939,-1.5012,-1.4204,-1.2588,-1.3223,-1.2506,0.0,0.0,0.0,0.0,0.0,0.0,0.0,0.0,0.0,0.0,0.0,0.0,0.0,0.0,0.0,0.0,0.0,0.0,0.0,0.0,0.0,0.0,0.0,0.0,0.0,0.0,0.0,0.0,0.0,0.0,0.0,0.0,0.0,0.0,0.0,0.0,0.0,0.0,0.0,0.0,0.0,-1.3905,-1.4071,-1.5325,-1.5993,0.0,0.0,-1.608,-1.5327,-1.4488,-1.3622,-1.2832,0.0,0.0,0.0,0.0,0.0,0.0,0.0,0.0,0.0,0.0,0.0,0.0,0.0,0.0,0.0,0.0,0.0,0.0,0.0,0.0,0.0,0.0,0.0,0.0,0.0,0.0,0.0,0.0,0.0,0.0,0.0,0.0,0.0,0.0,0.0,0.0,0.0,0.0,0.0,0.0,0.0,0.0,0.0,0.0,0.0,0.0,0.0,0.0,0.0,0.0,0.0,0.0,0.0,-1.0876,-1.2532,-1.2547,-1.3311,-1.4848,-1.4939,-1.4141,-1.244,-1.3166,-1.2428,0.0,0.0,0.0,0.0,0.0,0.0,0.0,0.0,0.0,0.0,0.0,0.0,0.0,0.0,0.0,0.0,0.0,0.0,0.0,0.0,0.0,0.0,0.0,0.0,0.0,0.0,0.0,0.0,-0.7393,-0.7539,-0.8408,0.0,0.0,0.0,0.0,0.0,0.0,0.0,0.0,0.0,0.0,-1.418,-1.468,-1.5293,0.0,0.0,-1.5846,-1.5945,-1.6647,-1.5141,-1.3802,-1.349,-1.2298,0.0,0.0,0.0,0.0,0.0,0.0,0.0,0.0,0.0,0.0,0.0,0.0,0.0,0.0,0.0,0.0,0.0,0.0,0.0,0.0,0.0,0.0,0.0,0.0,0.0,0.0,0.0,0.0,0.0,0.0,0.0,0.0,0.0,0.0,0.0,0.0,0.0,0.0,0.0,0.0,0.0,0.0,0.0,0.0,0.0,0.0,0.0,0.0,0.0,0.0,0.0,0.0,-1.0825,-1.2471,-1.2428,-1.3181,-1.4803,-1.4841,-1.402,-1.2415,-1.2853,-1.2092,0.0,0.0,0.0,0.0,0.0,0.0,0.0,0.0,0.0,0.0,0.0,0.0,0.0,0.0,0.0,0.0,0.0,0.0,0.0,0.0,0.0,0.0,0.0,0.0,0.0,0.0,0.0,0.0,-0.8262,-0.833,-0.8936,0.0,0.0,0.0,0.0,0.0,0.0,0.0,0.0,0.0,0.0,-1.4369,-1.5429,-1.5788,-1.617,-1.6776,-1.634,-1.6282,-1.7199,-1.5628,-1.4209,-1.3946,0.0,0.0,0.0,0.0,0.0,0.0,0.0,0.0,0.0,0.0,0.0,0.0,0.0,0.0,0.0,0.0,0.0,0.0,0.0,0.0,0.0,0.0,0.0,0.0,0.0,0.0,0.0,0.0,0.0,0.0,-1.0104,0.0,0.0,0.0,0.0,0.0,0.0,0.0,0.0,0.0,0.0,0.0,0.0,0.0,0.0,0.0,0.0,0.0,0.0,0.0,0.0,0.0,0.0,-1.082,-1.2471,-1.2417,-1.3132,-1.4637,-1.4721,-1.3876,-1.2211,-1.2137,-1.1409,-0.9847,0.0,0.0,0.0,0.0,0.0,0.0,0.0,0.0,0.0,0.0,0.0,0.0,0.0,0.0,0.0,0.0,0.0,0.0,0.0,0.0,0.0,0.0,0.0,0.0,0.0,0.0,-1.0176,-0.9482,-0.8984,0.0,0.0,0.0,0.0,0.0,0.0,0.0,0.0,0.0,0.0,-1.3417,-1.4538,-1.6215,-1.7132,-1.7584,-1.7632,-1.7613,-1.7372,-1.6686,-1.5769,-1.4882,0.0,0.0,0.0,0.0,0.0,0.0,0.0,0.0,0.0,0.0,0.0,0.0,0.0,0.0,0.0,0.0,0.0,0.0,0.0,0.0,0.0,0.0,0.0,0.0,0.0,0.0,0.0,-1.1502,-1.0993,0.0,0.0,0.0,0.0,0.0,0.0,0.0,0.0,0.0,0.0,0.0,-1.1933,-1.2486,0.0,0.0,0.0,0.0,0.0,0.0,0.0,0.0,0.0,0.0,0.0,0.0,-1.0722,-1.2218,-1.2235,-1.2961,-1.4513,-1.4563,-1.404,-1.2926,-1.2384,-1.1365,-0.9799,0.0,0.0,0.0,0.0,0.0,0.0,0.0,0.0,0.0,0.0,0.0,0.0,0.0,0.0,0.0,0.0,0.0,0.0,0.0,0.0,0.0,0.0,0.0,0.0,0.0,-1.0221,0.0,0.0,0.0,0.0,0.0,0.0,0.0,0.0,0.0,0.0,0.0,-1.2575,-1.3393,-1.4732,-1.584,-1.6417,-1.718,-1.7516,0.0,0.0,0.0,0.0,0.0,0.0,0.0,0.0,0.0,0.0,0.0,0.0,0.0,0.0,-1.6157,-1.3957,-1.3075,-1.2692,-1.2692,0.0,0.0,0.0,0.0,0.0,0.0,0.0,0.0,0.0,0.0,0.0,0.0,0.0,0.0,-1.2549,0.0,-1.2258,0.0,0.0,0.0,0.0,0.0,0.0,0.0,0.0,-1.3764,-1.3664,-1.2765,-1.3632,-1.3635,0.0,-1.3422,-1.3084,0.0,0.0,0.0,0.0,0.0,0.0,0.0,0.0,-1.1061,-1.2534,-1.2552,-1.3165,-1.4423,-1.4497,-1.4114,-1.3308,-1.2242,-1.1186,-1.0163,-0.9849,-0.9707,0.0,0.0,0.0,0.0,0.0,0.0,0.0,0.0,0.0,0.0,0.0,0.0,0.0,0.0,0.0,0.0,0.0,0.0,0.0,0.0,0.0,0.0,0.0,-1.0189,0.0,0.0,0.0,0.0,0.0,0.0,0.0,0.0,0.0,-1.147,-1.2661,-1.3766,-1.4279,-1.5599,-1.6708,-1.7285,0.0,0.0,0.0,0.0,0.0,0.0,0.0,-1.6172,-1.6893,-1.5647,-1.4309,-1.3653,-1.4786,-1.5546,-1.4669,0.0,0.0,-1.4785,-1.3977,-1.3563,-1.3575,-1.3342,-1.312,-1.3118,-1.3363,-1.3573,0.0,0.0,0.0,0.0,0.0,0.0,0.0,0.0,-1.2553,-1.3363,0.0,-1.3867,0.0,0.0,0.0,0.0,0.0,0.0,0.0,0.0,-1.4571,-1.45,-1.3756,-1.4557,-1.4541,-1.3834,-1.5215,-1.5115,-1.364,-1.2951,0.0,0.0,0.0,0.0,0.0,0.0,-1.1813,-1.3318,-1.3308,-1.3679,-1.446,-1.4497,-1.4117,-1.3298,-1.1787,-1.0948,-1.0866,-1.0117,-0.9707,-0.9707,-0.9693,0.0,0.0,0.0,0.0,0.0,0.0,0.0,0.0,0.0,0.0,0.0,0.0,0.0,0.0,0.0,0.0,0.0,0.0,0.0,0.0,-1.0193,0.0,0.0,0.0,0.0,0.0,0.0,0.0,0.0,0.0,0.0,-1.1821,-1.3705,-1.5243,-1.5288,0.0,0.0,0.0,0.0,-1.8252,-1.9649,-1.9245,-1.866,-1.8422,-1.7729,-1.6975,-1.6281,0.0,0.0,-1.3974,-1.5691,-1.6474,-1.4123,-1.5136,-1.6546,-1.7349,-1.609,-1.5144,-1.5109,-1.4478,-1.3966,-1.3995,-1.4516,-1.507,-1.8071,0.0,0.0,0.0,0.0,-1.6472,-1.6406,-1.668,-1.6119,-1.578,-1.5587,-1.4785,0.0,0.0,0.0,0.0,0.0,0.0,-1.5763,-1.6186,-1.6479,-1.6494,-1.6281,-1.6308,-1.6291,-1.6248,-1.6584,-1.6527,-1.604,-1.5306,-1.391,-1.1971,0.0,0.0,0.0,0.0,-1.2354,-1.3271,-1.3305,-1.3688,-1.4488,-1.4497,-1.4114,-1.3313,-1.2311,-1.1494,-1.0912,-1.0126,-0.9707,-0.9707,-0.9707,0.0,0.0,0.0,0.0,0.0,0.0,0.0,0.0,0.0,0.0,0.0,0.0,0.0,0.0,0.0,0.0,0.0,0.0,0.0,-1.0195,-1.0195,-1.0424,0.0,0.0,0.0,0.0,0.0,0.0,0.0,0.0,0.0,-1.4198,-1.5282,-1.634,0.0,0.0,-1.8453,-1.8934,-1.8709,-1.8451,-1.8318,0.0,0.0,0.0,-1.6593,-1.6554,-1.6832,-1.6383,-1.5819,-1.5443,-1.5559,-1.5449,-1.4686,-1.508,-1.5616,-1.5802,-1.5558,-1.5214,-1.5173,-1.4981,-1.4827,-1.4853,-1.5055,-1.5195,-2.0245,-1.9017,-1.8354,-1.8223,-1.841,-1.7838,-1.7702,-1.7841,-1.7339,-1.7194,-1.7262,-1.6541,-1.613,-1.5902,-1.4838,0.0,0.0,0.0,-1.6763,-1.7156,-1.7547,-1.7585,-1.7303,-1.7466,-1.7446,-1.7302,-1.7165,-1.7089,-1.7089,-1.688,-1.5696,-1.3643,0.0,0.0,-1.2683,-1.266,-1.3014,-1.3725,-1.378,-1.4004,-1.4493,-1.4497,-1.4264,-1.377,-1.2696,-1.1875,-1.1379,-1.0287,-0.9707,-0.9707,-0.9707,-0.9707,0.0,0.0,0.0,0.0,0.0,0.0,0.0,0.0,0.0,0.0,0.0,-0.6435,-0.5659,0.0,0.0,0.0,-0.9678,-1.0686,-1.0674,-1.0974,0.0,0.0,0.0,0.0,0.0,0.0,0.0,-1.3786,-1.4959,-1.5715,-1.5731,-1.6449,-1.7045,-1.7199,-1.7674,-1.8121,-1.8409,0.0,-1.8266,-1.8022,-1.7966,-1.7748,-1.7145,-1.6464,-1.6084,-1.617,-1.5777,-1.5469,-1.5584,-1.5199,-1.4921,-1.4946,-1.5047,-1.513,-1.5127,-1.5168,-1.5195,-1.5195,-1.5195,-1.5195,-1.5195,-1.5195,-1.5195,-2.1867,-2.1674,-2.014,-1.9197,-1.8664,-1.8469,-1.7995,-1.73,-1.725,-1.8046,-1.9353,-1.8709,-1.8827,-1.9429,-1.816,0.0,-1.721,-1.7262,-1.7253,-1.7153,-1.8074,-1.8078,-1.7364,-1.8183,-1.8181,-1.7502,-1.7345,-1.7266,-1.7309,-1.7835,-1.739,-1.5977,-1.4456,-1.3649,-1.3577,-1.3529,-1.3862,-1.457,-1.4594,-1.4573,-1.4497,-1.4497,-1.4466,-1.4374,-1.2921,-1.2067,-1.1966,-1.0525,-0.9707,-0.9707,-0.9707,-0.9707,-0.968,0.0,0.0,0.0,0.0,0.0,0.0,0.0,0.0,0.0,0.0,0.0,0.0,0.0,0.0,0.0,-1.0508,0.0,-1.1504,-1.2216,0.0,0.0,0.0,-1.2753,-1.2885,-1.3497,-1.3946,-1.4091,0.0,0.0,-1.6516,0.0,-1.7391,-1.6577,-1.6599,-1.6928,-1.7607,-1.7798,-1.7989,-1.8506,-1.8606,-1.8588,-1.8126,-1.6892,-1.5653,-1.4991,-1.4707,-1.4784,-1.492,-1.4827,-1.4771,-1.4881,-1.4963,-1.499,-1.499,-1.5088,-1.5194,-1.5168,-1.5196,-1.5195,-1.5202,-1.5298,-1.5388,-2.2354,-2.1766,-2.1372,-2.1112,-2.1005,-2.0938,-2.0821,-2.06,-2.0083,-2.0084,-2.0368,-1.9098,-1.8323,-1.7953,-1.8121,-1.8153,-1.8118,-1.872,-1.8985,-1.8968,-1.9203,-1.9248,-1.917,-1.9127,-1.9098,-1.9047,-1.8865,-1.877,-1.8752,-1.832,-1.8225,-1.8379,-1.7461,-1.6357,-1.5202,-1.5132,-1.5221,-1.5398,-1.5417,-1.5114,-1.4515,-1.4497,-1.4205,-1.3596,-1.2618,-1.181,-1.1209,-1.024,-0.9707,-0.9707,-0.9707,-0.9707,-0.9698,-0.9533,0.0,0.0,0.0,0.0,0.0,0.0,0.0,0.0,0.0,-0.8001,-0.7206,0.0,-0.9939,0.0,-1.1357,-1.2392,-1.2384,-1.2575,0.0,0.0,-1.307,-1.32,-1.4445,-1.418,-1.4411,-1.5734,-1.6253,-1.6516,-1.6516,-1.7116,-1.7226,-1.6435,-1.7434,-1.8346,-1.8636,-1.8505,-1.8479,-1.8626,-1.8115,-1.7571,-1.748,-1.6533,-1.5537,-1.4804,-1.4716,-1.4761,-1.4872,-1.4867,-1.4854,-1.489,-1.4907,-1.4914,-1.4932,-1.4948,-1.499,-1.5038,-1.5124,-1.5195,-1.5214,-1.5721,-1.6179,-2.3281,-2.2868,-2.2859,-2.2922,-2.2952,-2.2193,-2.1952,-2.1989,-2.1625,-2.1467,-2.1427,-2.0609,-2.0006,-1.963,-1.9963,-2.0087,-2.0019,-2.0091,-2.0147,-2.0113,-1.968,-1.9509,-1.956,-1.9392,-1.9367,-1.9454,-1.935,-1.9352,-1.9398,-1.898,-1.883,-1.8892,-1.8458,-1.7736,-1.6837,-1.7121,-1.713,-1.6766,-1.6059,-1.5307,-1.4533,-1.4497,-1.4279,-1.3838,-1.3398,-1.2796,-1.1989,-1.1544,-1.0979,-1.0296,-1.0236,-1.0227,-1.0232,-1.0232,-1.0401,0.0,0.0,0.0,0.0,0.0,0.0,0.0,0.0,0.0,0.0,0.0,-1.067,-1.1094,-1.2407,-1.3233,-1.3233,-1.3582,-1.3983,-1.443,-1.4087,-1.4195,-1.5115,-1.4763,-1.4853,-1.5811,-1.6263,-1.6516,-1.6522,-1.7076,-1.7357,-1.6925,-1.7908,-1.856,-1.8342,-1.852,-1.8759,-1.8688,-1.8249,-1.77,-1.7256,-1.6437,-1.5731,-1.531,-1.4944,-1.4751,-1.4868,-1.485,-1.4822,-1.4877,-1.4894,-1.4912,-1.4943,-1.4932,-1.4968,-1.5065,-1.5152,-1.5334,-1.5705,-1.6157,-1.6564,-2.4209,-2.4237,-2.4237,-2.4375,-2.4463,-2.3008,-2.2473,-2.2612,-2.2524,-2.2448,-2.2353,-2.236,-2.2354,-2.2328,-2.2315,-2.2196,-2.1964,-2.1259,-2.0886,-2.0751,-1.9872,-1.9413,-1.9335,-1.9321,-1.9321,-1.9335,-1.9344,-1.9438,-1.9623,-1.9603,-1.9289,-1.8737,-1.8702,-1.8621,-1.8608,-1.9253,-1.9106,-1.8115,-1.661,-1.5472,-1.4677,-1.4769,-1.4759,-1.4658,-1.4548,-1.4114,-1.335,-1.3304,-1.2614,-1.1168,-1.1141,-1.1159,-1.1063,-1.1049,-1.1365,0.0,-1.2003,0.0,0.0,0.0,0.0,0.0,0.0,0.0,0.0,-1.1319,-1.175,-1.2589,-1.3515,-1.4051,-1.4049,-1.4757,-1.5195,-1.5195,-1.5195,-1.5195,-1.5195,-1.5291,-1.5359,-1.5325,-1.6087,-1.6618,-1.6679,-1.72,-1.7686,-1.7842,-1.8379,-1.8568,-1.7925,-1.8549,-1.9057,-1.8767,-1.8842,-1.8494,-1.7484,-1.6677,-1.6131,-1.5861,-1.5185,-1.4736,-1.4832,-1.4761,-1.4727,-1.4859,-1.4877,-1.4898,-1.4964,-1.4985,-1.5037,-1.5117,-1.5159,-1.5398,-1.6019,-1.6369,-1.6753,-2.4294,-2.4444,-2.4435,-2.4618,-2.4882,-2.4572,-2.4391,-2.428,-2.3749,-2.3205,-2.2714,-2.27,-2.2616,-2.2452,-2.236,-2.2192,-2.1989,-2.1734,-2.1324,-2.079,-2.0431,-2.0017,-1.9546,-1.9365,-1.9398,-1.9544,-1.9534,-1.9617,-1.9756,-1.9662,-1.9859,-2.0334,-2.0181,-2.044,-2.1078,0.0,0.0,0.0,-1.7163,-1.6282,-1.5545,-1.6117,-1.6135,-1.5496,-1.4839,0.0,-1.3359,-1.3304,-1.2858,-1.1948,-1.2494,0.0,0.0,0.0,0.0,0.0,0.0,0.0,0.0,0.0,0.0,0.0,-1.1599,-1.1567,-1.187,-1.2608,-1.3192,-1.354,-1.4311,-1.4842,-1.4956,-1.5084,-1.5195,-1.5195,-1.5202,-1.5195,-1.5212,-1.583,-1.6202,-1.605,-1.6775,-1.7307,-1.7355,-1.789,-1.8382,-1.8609,-1.924,-1.958,-1.9326,-1.9445,-1.9627,-1.9575,-1.944,-1.9054,-1.8064,-1.7262,-1.6559,-1.5864,-1.5082,-1.4674,-1.4758,-1.4681,-1.4648,-1.4841,-1.4809,-1.478,-1.4902,-1.4915,-1.4955,-1.5018,-1.5042,-1.5117,-1.5398,-1.6022,-1.6724,-2.4256,0.0,-2.4339,-2.4556,0.0,-2.4913,-2.4968,-2.5011,-2.4598,-2.4196,-2.3882,-2.3812,-2.3772,-2.3717,-2.3486,-2.3434,-2.3446,-2.2888,-2.2508,-2.2262,-2.1667,-2.1239,-2.0934,-2.0419,-2.0239,-2.0311,-1.9901,-1.9774,-1.9896,-1.9824,-1.9975,-2.0294,-2.0201,-2.0298,-2.0554,-2.0555,-1.994,-1.8709,-1.7504,-1.6511,-1.5738,-1.5695,-1.5515,-1.5117,0.0,0.0,0.0,0.0,0.0,0.0,0.0,0.0,0.0,0.0,0.0,-1.3218,-1.2901,-1.2681,-1.2681,-1.2672,-1.2861,-1.3251,-1.3283,-1.3113,-1.2724,-1.3554,-1.4134,-1.4236,-1.4684,-1.5127,-1.5598,-1.5707,-1.572,-1.5719,-1.6131,-1.6301,-1.6,-1.658,-1.7041,-1.7039,-1.7688,-1.8242,-1.8252,-1.8816,-1.9297,-1.9495,-1.9721,-1.988,-1.9819,-1.9858,-1.9854,-1.9729,-1.9554,-1.928,-1.8752,-1.8007,-1.7401,-1.6892,-1.6306,-1.5708,-1.5249,-1.5186,-1.513,-1.4888,-1.4747,-1.4761,-1.4903,-1.494,-1.4985,-1.5078,-1.5092,-1.5114,-1.5241,-1.6195,-1.7337,-2.4228,-2.4247,-2.4294,-2.4511,-2.4835,-2.4881,-2.5018,-2.5248,0.0,0.0,0.0,-2.4942,-2.4942,-2.4967,-2.4725,-2.4721,-2.4902,-2.4114,-2.3749,-2.3757,-2.2905,-2.247,-2.2315,-2.1632,-2.1254,-2.1088,-2.0409,-2.0049,-2.0055,-2.0017,-1.9938,-1.9802,-1.978,-1.96,-1.9311,-1.9288,-1.9288,-1.9233,-1.7988,-1.6924,-1.6142,-1.549,-1.5126,-1.5126,-1.5499,-1.5389,-1.4759,-1.5343,-1.471,-1.2664,-1.2655,-1.2678,-1.2526,-1.2517,-1.3104,-1.4374,-1.4365,-1.4282,-1.4288,-1.4282,-1.4361,-1.4488,-1.4631,-1.4301,-1.3377,-1.4275,-1.4886,-1.4916,-1.5146,-1.5579,-1.6233,-1.6417,-1.6467,-1.6453,-1.7168,-1.7377,-1.6859,-1.7436,-1.7916,-1.7982,-1.8624,-1.9183,-1.9181,-1.9587,-2.0022,-2.0142,-1.9944,-1.9797,-1.9786,-1.9798,-1.9757,-1.957,-1.9427,-1.9286,-1.9168,-1.8581,-1.8142,-1.7966,-1.7471,-1.6858,-1.6211,-1.6016,-1.5813,-1.5424,-1.5062,-1.5029,-1.5158,-1.5089,-1.5037,-1.5146,-1.5306,-1.5405,-1.5555,-1.676,-1.8045,-2.4284,-2.446,-2.4639,-2.4818,-2.4971,-2.5156,-2.5152,-2.5052,-2.5203,-2.5254,-2.5249,-2.5243,-2.515,-2.4995,-2.4936,-2.4904,-2.4821,-2.467,-2.4336,0.0,-2.3471,-2.3063,-2.2556,-2.2274,-2.1838,-2.1292,-2.1149,-2.0805,-2.0286,-2.0097,-1.9943,-1.9815,-1.9698,-1.9518,-1.9303,-1.9288,-1.9288,-1.9288,-1.9086,-1.8581,-1.7784,-1.7665,-1.7601,-1.7537,-1.6325,-1.5652,-1.5536,-1.5625,-1.5224,-1.4246,-1.4829,-1.4894,-1.4209,-1.4123,-1.4258,-1.4438,-1.3853,-1.3454,-1.3473,-1.3482,-1.3761,-1.4457,-1.5123,-1.4909,-1.35,-1.4684,-1.5617,-1.5739,-1.6321,-1.6875,-1.71,-1.7156,-1.7222,-1.7319,-1.7448,-1.7531,-1.7541,-1.8308,-1.8787,-1.8697,-1.9353,-1.9845,-1.9825,-1.9833,-1.9916,-1.9988,-1.989,-1.9756,-1.963,-1.9495,-1.9398,-1.935,-1.932,-1.9288,-1.9214,-1.8638,-1.8234,-1.8096,-1.7546,-1.7113,-1.6914,-1.6827,-1.6772,-1.6854,-1.6198,-1.5849,-1.5909,-1.5365,-1.5196,-1.525,-1.5734,-1.6167,-1.6327,-1.7606,-1.8577,-2.4312,-2.4494,-2.4591,-2.478,-2.5022,-2.5223,-2.5234,-2.5178,-2.5259,-2.5229,-2.5146,-2.5127,-2.5146,-2.5137,-2.4968,-2.4959,-2.5064,-2.4949,-2.4799,-2.46,-2.4522,-2.4323,-2.4032,-2.3531,-2.3119,-2.2796,-2.2321,-2.1702,-2.0992,-2.0848,-2.0461,-1.9824,-1.9568,-1.9396,-1.9314,-1.9288,-1.9288,-1.9288,-1.8866,-1.8473,-1.8115,-1.766,-1.7438,-1.7429,-1.6298,-1.5683,-1.5683,-1.5288,-1.4668,-1.3875,-1.4184,-1.4226,-1.389,-1.3853,-1.404,-1.4457,-1.416,-1.3958,-1.3949,-1.4358,-1.4771,-1.5135,-1.5888,-1.6068,-1.5316,-1.5924,-1.6388,-1.646,-1.6901,-1.7362,-1.7832,-1.8027,-1.8132,-1.8207,-1.8683,-1.8835,-1.8583,-1.9186,-1.9673,-1.9652,-1.9921,-2.0151,-2.0161,-2.0022,-1.9933,-1.9983,-1.983,-1.9646,-1.9469,-1.9365,-1.9295,-1.9288,-1.9288,-1.9288,-1.9269,-1.9012,-1.8774,-1.8748,-1.855,-1.8167,-1.7829,-1.7648,-1.7569,-1.7254,-1.6802,-1.6659,-1.672,-1.6541,-1.6366,-1.6375,-1.6695,-1.7078,-1.7314,-1.8157,-1.8907,-2.4993,-2.5127,-2.5176,-2.5376,-2.5643,-2.5623,-2.5596,-2.5587,-2.5404,-2.5214,-2.5088,-2.5086,-2.5157,-2.5273,-2.5031,-2.5052,-2.5259,-2.5146,-2.5142,-2.5279,-2.5298,-2.5298,-2.524,-2.4639,-2.4279,-2.4038,-2.3403,-2.2629,-2.187,-2.1591,-2.0929,-1.9875,-1.9467,-1.9288,-1.9288,-1.9288,-1.9288,-1.9251,-1.8684,-1.8363,-1.8353,-1.7585,-1.719,-1.7119,-1.6392,-1.5967,-1.5934,-1.5383,-1.475,-1.4165,-1.411,-1.4119,-1.4101,-1.4116,-1.4389,-1.497,-1.5044,-1.5038,-1.508,-1.5612,-1.5977,-1.5977,-1.6713,-1.7165,-1.7193,-1.7348,-1.7385,-1.7301,-1.7585,-1.8059,-1.8611,-1.8886,-1.9035,-1.9121,-1.9732,-1.9891,-1.9471,-1.9908,-2.0298,-2.0298,-2.0298,-2.0286,-2.0215,-2.0069,-1.9918,-1.98,-1.9695,-1.9525,-1.9352,-1.9357,-1.939,-1.9311,-1.9288,-1.9288,-1.9288,-1.9269,-1.9242,-1.9288,-1.9363,-1.9047,-1.8573,-1.852,-1.8404,-1.7828,-1.747,-1.7414,-1.7506,-1.7403,-1.7364,-1.7341,-1.7648,-1.801,-1.8365,-1.8863,-1.9344,-2.7014,-2.707,-2.7163,-2.7437,-2.7484,-2.6788,-2.6486,-2.639,-2.5663,-2.5303,-2.5379,-2.5269,-2.5307,-2.5303,-2.5244,-2.5259,-2.5298,-2.5283,-2.5274,-2.5298,-2.5298,-2.5298,-2.5298,-2.5202,-2.4798,-2.4192,-2.4023,-2.3528,-2.2682,-2.1894,-2.0948,-1.989,-1.946,-1.9321,-1.9295,-1.9295,-1.9295,-1.9288,-1.9224,-1.9196,-1.9143,-1.8408,-1.8005,-1.7979,-1.7218,-1.6789,-1.6798,-1.6725,-1.6642,-1.6569,-1.6496,-1.6532,-1.6523,-1.6532,-1.6578,-1.6624,-1.6652,-1.6688,-1.667,-1.6743,-1.6789,-1.6844,-1.753,-1.7997,-1.8014,-1.8638,-1.8826,-1.8482,-1.8909,-1.9335,-1.9636,-1.9662,-1.9702,-1.9793,-1.995,-2.0039,-2.0119,-2.024,-2.0298,-2.0298,-2.0277,-2.0223,-2.0055,-1.9916,-1.9719,-1.9499,-1.9527,-1.952,-1.9396,-1.9511,-1.9563,-1.9361,-1.9288,-1.9288,-1.9288,-1.9288,-1.9288,-1.9314,-1.9312,-1.9219,-1.9099,-1.9101,-1.9127,-1.872,-1.8446,-1.8153,-1.8087,-1.7811,-1.7482,-1.7941,-1.8401,-1.8951,-1.9759,-2.0033,-1.9946,-2.7377,-2.7469,-2.7556,-2.7716,-2.7837,-2.7515,-2.7371,-2.7323,-2.7005,-2.6842,-2.6842,-2.6842,-2.6269,-2.5317,-2.5298,-2.5298,-2.5298,-2.5298,-2.5298,-2.5298,-2.5298,-2.5298,-2.5298,-2.5298,-2.5115,-2.4832,-2.4812,-2.4394,-2.3538,-2.2628,-2.159,-2.0607,-2.0401,-2.0089,-1.9538,-1.9485,-1.9427,-1.9295,-1.9288,-1.9288,-1.926,-1.8985,-1.8812,-1.872,-1.8023,-1.7612,-1.7557,-1.7174,-1.6908,-1.6908,-1.6908,-1.6908,-1.6908,-1.6908,-1.6908,-1.6908,-1.6908,-1.6908,-1.6908,-1.733,-1.7612,-1.7614,-1.8353,-1.881,-1.8812,-1.9123,-1.923,-1.9187,-1.9412,-1.9653,-1.9782,-1.9859,-1.9988,-2.0143,-2.0179,-2.0215,-2.0281,-2.0298,-2.0273,-2.0142,-2.012,-2.0065,-1.9901,-1.9768,-1.9646,-1.9476,-1.9478,-1.9435,-1.9462,-1.9497,-1.9434,-1.9331,-1.9288,-1.9288,-1.9288,-1.9288,-1.9288,-1.9288,-1.9288,-1.9288,-1.9288,-1.9288,-1.9288,-1.9295,-1.9073,-1.8948,-1.9096,-1.9096,-1.8925,-1.9067,-1.9233,-1.983,-2.0236,-2.0298,-2.009,-2.8245,-2.8355,-2.8371,-2.8442,-2.8563,-2.8313,-2.8232,-2.8188,-2.8001,-2.789,-2.789,-2.789,-2.7217,-2.6106,-2.5779,-2.5548,-2.5327,-2.5298,-2.5298,-2.5298,-2.5298,-2.5298,-2.5298,-2.5298,-2.5298,-2.5298,-2.5279,-2.488,-2.4106,-2.336,-2.2414,-2.1573,-2.1443,-2.0967,-2.0116,-1.9963,-1.9739,-1.9398,-1.9335,-1.9288,-1.9288,-1.9288,-1.9288,-1.9233,-1.8739,-1.8427,-1.8408,-1.786,-1.755,-1.7557,-1.7566,-1.7566,-1.7557,-1.7548,-1.7557,-1.7557,-1.7566,-1.7557,-1.7566,-1.8098,-1.8427,-1.8482,-1.9003,-1.9288,-1.9288,-1.9288,-1.9357,-1.9457,-1.9511,-1.9597,-1.9836,-1.9938,-2.0088,-2.0263,-2.0298,-2.0285,-2.0219,-2.0219,-2.0134,-1.9988,-1.9953,-1.9907,-1.9805,-1.9638,-1.952,-1.9546,-1.9485,-1.9389,-1.9504,-1.9457,-1.9434,-1.9327,-1.9342,-1.9367,-1.9303,-1.9288,-1.9288,-1.9288,-1.9288,-1.9288,-1.9288,-1.9288,-1.9348,-1.9409,-1.9527,-1.9625,-1.9599,-1.9808,-1.9974,-2.0068,-2.0159,-2.0236,-2.0288,-2.0298,-2.0298,-3.0267,-3.0238,-3.0257,-3.0171,-3.0212,-2.94,-2.905,-2.9011,-2.8319,-2.7953,-2.8025,-2.7996,-2.788,-2.7693,-2.6938,-2.6106,-2.5404,-2.5317,-2.5298,-2.5298,-2.5298,-2.5298,-2.5298,-2.5298,-2.5298,-2.5298,-2.5298,-2.4904,-2.4163,-2.3873,-2.3348,-2.2554,-2.236,-2.1859,-2.1114,-2.0854,-2.0362,-1.9692,-1.9472,-1.9306,-1.9288,-1.9288,-1.9288,-1.9279,-1.9242,-1.9187,-1.9205,-1.9187,-1.915,-1.9168,-1.9086,-1.9113,-1.9141,-1.9113,-1.9086,-1.9104,-1.9123,-1.9132,-1.9095,-1.9132,-1.9168,-1.9214,-1.9224,-1.9288,-1.9288,-1.9288,-1.9303,-1.9311,-1.9326,-1.9506,-1.9876,-1.9933,-2.0046,-2.0229,-2.0263,-2.0202,-2.0036,-2.0017,-1.9958,-1.9862,-1.9828,-1.9811,-1.9778,-1.9509,-1.9469,-1.9541,-1.9585,-1.9527,-1.9431,-1.9576,-1.9563,-1.9431,-1.9427,-1.952,-1.9333,-1.9288,-1.9288,-1.9288,-1.9288,-1.9303,-1.9295,-1.9311,-1.9407,-1.9506,-1.9611,-1.9738,-1.9917,-2.0031,-2.0106,-2.0179,-2.0227,-2.0288,-2.0298,-2.0298,-2.0298,-3.0394,-3.0394,-3.0394,-3.0394,-3.0365,-3.0063,-2.9933,-2.991,-2.965,-2.95,-2.9506,-2.949,-2.9198,-2.8646,-2.8347,-2.7438,-2.6159,-2.5567,-2.5298,-2.5298,-2.5298,-2.5298,-2.5298,-2.5298,-2.5298,-2.5298,-2.5298,-2.5085,-2.4739,-2.4737,-2.4279,-2.3541,-2.3419,-2.2939,-2.2042,-2.1795,-2.1239,-2.0295,-2.0084,-1.9831,-1.9352,-1.9288,-1.9288,-1.9288,-1.9288,-1.9288,-1.9288,-1.9288,-1.9288,-1.9288,-1.9288,-1.9288,-1.9288,-1.9288,-1.9288,-1.9288,-1.9288,-1.9288,-1.9288,-1.9288,-1.9288,-1.9288,-1.9288,-1.9306,-1.9288,-1.9288,-1.9288,-1.9306,-1.9297,-1.9437,-1.966,-1.9747,-1.9813,-1.9945,-1.9986,-2.0019,-1.989,-1.9865,-1.9852,-1.9807,-1.9809,-1.9764,-1.9688,-1.9576,-1.9527,-1.958,-1.9492,-1.9458,-1.9485,-1.9506,-1.9543,-1.9385,-1.9359,-1.938,-1.9318,-1.9288,-1.9288,-1.9288,-1.9303,-1.9394,-1.9416,-1.9457,-1.9557,-1.967,-1.9747,-1.9807,-1.9978,-2.0125,-2.0201,-2.0241,-2.0298,-2.0298,-2.0298,-2.0298,-2.0298,-3.0394,-3.0394,-3.0394,-3.0394,-3.0394,-3.0394,-3.0394,-3.0394,-3.0394,-3.0394,-3.0394,-3.0394,-3.0073,-2.9525,-2.9232,-2.854,-2.738,-2.6544,-2.599,-2.574,-2.5721,-2.5577,-2.5337,-2.5298,-2.5298,-2.5298,-2.5298,-2.5228,-2.5126,-2.5234,-2.4931,-2.4326,-2.4428,-2.3965,-2.3025,-2.276,-2.2142,-2.1227,-2.0703,-2.0217,-1.9721,-1.9435,-1.9288,-1.9288,-1.9288,-1.9288,-1.9288,-1.9288,-1.9288,-1.9288,-1.9288,-1.9288,-1.9288,-1.9288,-1.9288,-1.9288,-1.9288,-1.9288,-1.9288,-1.9288,-1.9288,-1.9288,-1.9297,-1.938,-1.9601,-1.9445,-1.9554,-1.9875,-1.9802,-1.9809,-2.0196,-2.0333,-2.0276,-2.022,-2.019,-2.0328,-2.0535,-2.0366,-2.0092,-1.9841,-1.9756,-1.971,-1.9672,-1.9557,-1.9541,-1.9585,-1.9601,-1.9752,-1.983,-2.0051,-2.0123,-2.0114,-2.0223,-2.0084,-1.993,-1.9849,-1.9612,-1.9553,-1.9387,-1.9467,-1.955,-1.9604,-1.9685,-1.9813,-1.9892,-1.9934,-2.0036,-2.0179,-2.0255,-2.0281,-2.0298,-2.0298,-2.0298,-2.0298,-2.0285,-3.0394,-3.0394,-3.0394,-3.0394,-3.0394,-3.0394,-3.0394,-3.0394,-3.0394,-3.0394,-3.0394,-3.0394,-3.0346,-3.0183,-2.9554,-2.9117,-2.8876,-2.8217,-2.74,-2.6663,-2.6606,-2.6154,-2.5452,-2.5452,-2.5375,-2.5308,-2.5298,-2.5298,-2.5283,-2.5293,-2.5231,-2.525,-2.5173,-2.475,-2.4063,-2.366,-2.3101,-2.2213,-2.125,-2.0648,-2.0437,-1.9877,-1.9545,-1.9481,-1.9499,-1.9517,-1.9435,-1.9343,-1.9288,-1.9288,-1.9288,-1.9288,-1.9288,-1.9288,-1.9288,-1.9288,-1.9288,-1.9288,-1.9288,-1.9288,-1.9315,-1.9444,-1.9361,-1.9739,-2.03,-1.9959,-2.0105,-2.1106,-2.0969,-2.0803,-2.1462,-2.1572,-2.1408,-2.1084,-2.0953,-2.127,-2.1748,-2.1488,-2.0734,-2.015,-1.9982,-1.9763,-1.9763,-1.9824,-1.9819,-1.9965,-2.0234,-2.0528,-2.0616,-2.103,-2.161,-2.1638,-2.1363,-2.0995,-2.0739,-2.0482,-2.0157,-1.9866,-1.9618,-1.9532,-1.9614,-1.9685,-1.9728,-1.9826,-1.9836,-1.9876,-1.9938,-2.0079,-2.0183,-2.0214,-2.0249,-2.0259,-2.0227,-2.0223,-2.0249,-3.0394,-3.0394,-3.0394,-3.0394,-3.0394,-3.0394,-3.0394,-3.0394,-3.0394,-3.0394,-3.0394,-3.0394,-3.0394,-3.0356,-3.0087,-2.9981,-2.9967,-2.9683,-2.8861,-2.7707,-2.7515,-2.7024,-2.6337,-2.6192,-2.589,-2.5385,-2.5298,-2.5298,-2.5298,-2.5298,-2.5298,-2.5298,-2.5298,-2.5046,-2.4594,-2.4428,-2.3887,-2.2863,-2.2425,-2.1978,-2.1455,-2.1151,-2.1022,-2.1005,-2.1023,-2.1023,-2.0985,-1.9921,-1.9325,-1.9334,-1.9288,-1.9288,-1.9288,-1.9288,-1.9288,-1.9288,-1.9288,-1.9288,-1.9297,-1.9343,-1.9618,-1.9987,-2.0124,-2.0537,-2.1253,-2.1142,-2.1206,-2.1785,-2.1546,-2.1555,-2.173,-2.1794,-2.1788,-2.1589,-2.1559,-2.1699,-2.2072,-2.1998,-2.1733,-2.1431,-2.1351,-2.1362,-2.1283,-2.1119,-2.0991,-2.0983,-2.124,-2.1391,-2.1455,-2.1703,-2.1785,-2.1785,-2.1757,-2.1886,-2.1556,-2.1353,-2.1151,-2.0683,-2.0278,-2.0104,-2.0081,-2.0086,-2.0059,-1.9922,-1.9903,-1.9851,-1.9923,-1.9968,-2.0065,-2.0142,-2.0165,-2.0156,-2.012,-2.0161,-2.0223,-3.0394,-3.0394,-3.0394,-3.0394,-3.0394,-3.0394,-3.0394,-3.0394,-3.0394,-3.0394,-3.0394,-3.0394,-3.0394,-3.0394,-3.0394,-3.0394,-3.0394,-3.0394,-2.9827,-2.8871,-2.8434,-2.788,-2.7178,-2.7082,-2.6621,-2.5923,-2.5788,-2.5606,-2.5298,-2.5298,-2.5298,-2.5298,-2.5224,-2.5086,-2.4857,-2.4734,-2.4245,-2.36,-2.318,-2.2749,-2.229,-2.195,-2.1794,-2.1785,-2.1785,-2.1794,-2.1721,-2.0766,-2.0233,-2.0169,-1.9958,-1.9629,-1.9361,-1.9297,-1.9426,-1.9693,-1.9785,-1.9886,-2.0152,-2.0325,-2.0417,-2.0895,-2.0996,-2.1363,-2.1987,-2.2051,-2.1959,-2.2593,-2.2418,-2.2363,-2.2648,-2.2712,-2.2703,-2.2703,-2.2418,-2.233,-2.2432,-2.2616,-2.247,-2.2182,-2.2029,-2.2068,-2.2028,-2.1939,-2.1909,-2.1829,-2.206,-2.2244,-2.2308,-2.2538,-2.2574,-2.2657,-2.2859,-2.2767,-2.2336,-2.2188,-2.214,-2.1627,-2.1056,-2.0997,-2.0974,-2.0989,-2.0985,-2.053,-2.0374,-2.0042,-2.0027,-1.9924,-1.9947,-2.0012,-2.0198,-2.0083,-2.0083,-2.0211,-2.0273,-3.0394,-3.0394,-3.0394,-3.0394,-3.0394,-3.0394,-3.0394,-3.0394,-3.0394,-3.0394,-3.0394,-3.0394,-3.0394,-3.0394,-3.0394,-3.0394,-3.0394,-3.0394,-3.0356,-3.0019,-2.9506,-2.8746,-2.8034,-2.7818,-2.7337,-2.6765,-2.6669,-2.6279,-2.576,-2.5577,-2.5375,-2.5471,-2.5212,-2.4998,-2.4888,-2.4657,-2.4466,-2.4215,-2.3529,-2.3125,-2.3052,-2.2437,-2.2051,-2.2079,-2.2106,-2.2134,-2.2134,-2.2005,-2.1858,-2.1684,-2.0932,-2.0299,-1.9673,-1.9444,-1.9958,-2.0548,-2.0567,-2.0941,-2.1537,-2.1509,-2.1666,-2.1812,-2.1895,-2.2216,-2.2832,-2.262,-2.2703,-2.3731,-2.3419,-2.3336,-2.3878,-2.3997,-2.4006,-2.4043,-2.3465,-2.3195,-2.3249,-2.341,-2.3212,-2.2629,-2.2242,-2.2171,-2.2342,-2.2228,-2.2159,-2.2253,-2.2703,-2.2988,-2.3144,-2.3437,-2.3997,-2.3997,-2.3731,-2.3538,-2.3088,-2.3061,-2.2996,-2.2766,-2.2173,-2.1938,-2.168,-2.1614,-2.1582,-2.1155,-2.087,-2.0484,-2.0315,-2.0396,-2.037,-2.052,-2.0464,-2.0167,-2.0332,-2.0718,-2.0871,-3.0394,-3.0394,-3.0394,-3.0394,-3.0394,-3.0394,-3.0394,-3.0394,-3.0394,-3.0394,-3.0394,-3.0394,-3.0394,-3.0394,-3.0394,-3.0394,-3.0394,-3.0394,-3.0394,-3.0375,-3.0212,-2.9583,-2.8771,-2.8184,-2.7818,-2.7573,-2.7553,-2.7438,-2.7178,-2.6534,-2.6279,-2.6226,-2.5447,-2.4965,-2.4825,-2.4642,-2.4436,-2.4294,-2.4063,-2.385,-2.3823,-2.3667,-2.3575,-2.3556,-2.3529,-2.3511,-2.3566,-2.3556,-2.2951,-2.1877,-2.162,-2.1381,-2.1078,-2.1041,-2.1142,-2.1363,-2.1473,-2.1555,-2.1766,-2.1858,-2.2106,-2.262,-2.2685,-2.3033,-2.3795,-2.3704,-2.3795,-2.4171,-2.3979,-2.3942,-2.4163,-2.4208,-2.4208,-2.42,-2.4035,-2.3959,-2.3942,-2.4092,-2.4064,-2.3755,-2.3583,-2.351,-2.3474,-2.3465,-2.341,-2.3483,-2.3621,-2.3804,-2.3813,-2.3869,-2.4208,-2.4208,-2.4052,-2.4025,-2.3942,-2.3905,-2.3869,-2.3814,-2.3401,-2.2922,-2.2439,-2.191,-2.181,-2.1581,-2.161,-2.1337,-2.1364,-2.1447,-2.1353,-2.1062,-2.1353,-2.1382,-2.1655,-2.1975,-2.2,-3.0394,-3.0394,-3.0394,-3.0394,-3.0394,-3.0394,-3.0394,-3.0394,-3.0394,-3.0394,-3.0394,-3.0394,-3.0394,-3.0394,-3.0394,-3.0394,-3.0394,-3.0394,-3.0394,-3.0394,-3.0375,-3.0077,-2.9602,-2.9111,-2.8765,-2.8405,-2.8405,-2.8194,-2.7857,-2.7371,-2.7184,-2.6939,-2.5999,-2.5401,-2.5314,-2.4651,-2.433,-2.4218,-2.4208,-2.4208,-2.4208,-2.4208,-2.419,-2.419,-2.4208,-2.4208,-2.4199,-2.4181,-2.3584,-2.2593,-2.229,-2.217,-2.1839,-2.1794,-2.195,-2.2217,-2.2299,-2.2419,-2.2749,-2.2804,-2.3015,-2.34,-2.351,-2.374,-2.407,-2.4208,-2.4208,-2.4199,-2.4208,-2.4208,-2.4208,-2.4208,-2.4208,-2.42,-2.4294,-2.433,-2.4209,-2.4266,-2.4303,-2.4237,-2.4208,-2.4208,-2.4208,-2.4208,-2.4208,-2.4163,-2.4062,-2.4135,-2.4144,-2.4208,-2.4208,-2.4208,-2.4208,-2.4144,-2.4116,-2.4089,-2.407,-2.4098,-2.4025,-2.363,-2.3245,-2.2538,-2.2501,-2.2464,-2.2382,-2.2271,-2.2194,-2.2036,-2.1718,-2.1708,-2.2222,-2.2423,-2.2458,-2.2863,-2.2917,-3.0394,-3.0394,-3.0394,-3.0394,-3.0394,-3.0394,-3.0394,-3.0394,-3.0394,-3.0394,-3.0394,-3.0394,-3.0394,-3.0394,-3.0394,-3.0394,-3.0394,-3.0394,-3.0394,-3.0394,-3.0394,-3.0308,-3.026,-3.0144,-2.9775,-2.9313,-2.9227,-2.889,-2.8486,-2.8188,-2.803,-2.7666,-2.6674,-2.6033,-2.5643,-2.4817,-2.4265,-2.4208,-2.4208,-2.4208,-2.4208,-2.4208,-2.4208,-2.4208,-2.4208,-2.4208,-2.4208,-2.4172,-2.3832,-2.3153,-2.3125,-2.2804,-2.2207,-2.2097,-2.2409,-2.2969,-2.3144,-2.341,-2.396,-2.3961,-2.407,-2.4098,-2.4107,-2.4208,-2.4208,-2.4208,-2.4208,-2.4208,-2.4208,-2.4208,-2.4208,-2.4208,-2.4208,-2.4199,-2.4218,-2.4208,-2.4208,-2.4208,-2.4208,-2.4208,-2.4208,-2.4208,-2.4208,-2.4208,-2.4208,-2.4208,-2.4208,-2.4208,-2.4208,-2.4208,-2.4208,-2.4208,-2.4208,-2.4208,-2.419,-2.419,-2.4181,-2.4181,-2.4172,-2.3997,-2.3988,-2.3593,-2.352,-2.3428,-2.3226,-2.2914,-2.2602,-2.2371,-2.2215,-2.2437,-2.3009,-2.2782,-2.2563,-2.3283,-2.3613,-3.0394,-3.0394,-3.0394,-3.0394,-3.0394,-3.0394,-3.0394,-3.0394,-3.0394,-3.0394,-3.0394,-3.0394,-3.0394,-3.0394,-3.0394,-3.0394,-3.0394,-3.0394,-3.0394,-3.0394,-3.0394,-3.0394,-3.0394,-3.0394,-3.0288,-3.0058,-3.0102,-2.9981,-2.9692,-2.9111,-2.8842,-2.8606,-2.7166,-2.6012,-2.5883,-2.4966,-2.4208,-2.4208,-2.4208,-2.4208,-2.4208,-2.4208,-2.4208,-2.4208,-2.4208,-2.4208,-2.4208,-2.4208,-2.4117,-2.3979,-2.3887,-2.3703,-2.3547,-2.3538,-2.3639,-2.3758,-2.3887,-2.3997,-2.4153,-2.4208,-2.4208,-2.4208,-2.4208,-2.4208,-2.4208,-2.4208,-2.4208,-2.4208,-2.4208,-2.4218,-2.43,-2.4236,-2.4337,-2.4383,-2.4383,-2.4319,-2.4227,-2.4218,-2.4208,-2.4208,-2.4208,-2.4208,-2.4208,-2.4208,-2.4208,-2.4208,-2.4208,-2.4208,-2.4208,-2.4208,-2.4208,-2.4208,-2.4208,-2.4208,-2.4208,-2.4208,-2.4208,-2.4208,-2.4208,-2.4208,-2.4208,-2.419,-2.3951,-2.3942,-2.3997,-2.363,-2.3189,-2.341,-2.3382,-2.3602,-2.3707,-2.3596,-2.3615,-2.4091,-2.4219,-3.0394,-3.0394,-3.0394,-3.0394,-3.0394,-3.0394,-3.0394,-3.0394,-3.0394,-3.0394,-3.0394,-3.0394,-3.0394,-3.0394,-3.0394,-3.0394,-3.0394,-3.0394,-3.0394,-3.0394,-3.0394,-3.0394,-3.0394,-3.0394,-3.0394,-3.0394,-3.0385,-3.0394,-3.024,-2.9977,-2.9717,-2.9588,-2.7961,-2.7081,-2.6466,-2.5365,-2.4604,-2.4254,-2.4208,-2.4208,-2.4208,-2.4208,-2.4208,-2.4208,-2.4208,-2.4208,-2.4208,-2.4208,-2.4208,-2.4208,-2.4208,-2.4208,-2.4208,-2.4208,-2.4208,-2.4208,-2.4208,-2.4208,-2.4199,-2.4208,-2.4208,-2.4208,-2.4208,-2.4208,-2.4208,-2.4208,-2.4208,-2.4208,-2.4236,-2.4309,-2.4704,-2.4778,-2.4869,-2.5263,-2.5318,-2.5172,-2.4824,-2.4456,-2.4208,-2.4208,-2.4208,-2.4208,-2.4208,-2.4208,-2.4208,-2.4208,-2.4208,-2.4208,-2.4208,-2.4208,-2.4208,-2.4208,-2.4208,-2.4208,-2.4208,-2.4208,-2.4208,-2.4208,-2.4208,-2.4208,-2.4208,-2.4208,-2.4181,-2.4181,-2.4162,-2.4171,-2.3887,-2.4199,-2.4199,-2.4082,-2.408,-2.437,-2.4514,-2.4493,-2.4593,-3.0394,-3.0394,-3.0394,-3.0394,-3.0394,-3.0394,-3.0394,-3.0394,-3.0394,-3.0394,-3.0394,-3.0394,-3.0394,-3.0394,-3.0394,-3.0394,-3.0394,-3.0394,-3.0394,-3.0394,-3.0394,-3.0394,-3.0394,-3.0394,-3.0394,-3.0394,-3.0394,-3.0394,-3.0394,-3.0379,-3.0188,-3.0075,-2.9076,-2.8004,-2.7238,-2.6052,-2.5053,-2.4576,-2.43,-2.4208,-2.4208,-2.4208,-2.4208,-2.4208,-2.4208,-2.4208,-2.4208,-2.4208,-2.4208,-2.4208,-2.4208,-2.4208,-2.4208,-2.4208,-2.4208,-2.4208,-2.4208,-2.4208,-2.4208,-2.4208,-2.4208,-2.4208,-2.4208,-2.4208,-2.4208,-2.4392,-2.4511,-2.4557,-2.4667,-2.4997,-2.5494,-2.5586,-2.5907,-2.6309,-2.6548,-2.6282,-2.5668,-2.4869,-2.4502,-2.4208,-2.4208,-2.4208,-2.4208,-2.4208,-2.4208,-2.4208,-2.4208,-2.4208,-2.4208,-2.4208,-2.4208,-2.4208,-2.4208,-2.4208,-2.4208,-2.4208,-2.4208,-2.4208,-2.4208,-2.4208,-2.4208,-2.4208,-2.4208,-2.4208,-2.4199,-2.4208,-2.4208,-2.4208,-2.4209,-2.4228,-2.4266,-2.4357,-2.4525,-2.474,-2.4855,-3.0394,-3.0394,-3.0394,-3.0394,-3.0394,-3.0394,-3.0394,-3.0394,-3.0394,-3.0394,-3.0394,-3.0394,-3.0394,-3.0394,-3.0394,-3.0394,-3.0394,-3.0394,-3.0394,-3.0394,-3.0394,-3.0394,-3.0394,-3.0394,-3.0394,-3.0394,-3.0394,-3.0394,-3.0394,-3.0388,-3.0317,-2.9904,-2.9094,-2.835,-2.7605,-2.6373,-2.5475,-2.5016,-2.4603,-2.4337,-2.4208,-2.4208,-2.4208,-2.4208,-2.4208,-2.4208,-2.4208,-2.4208,-2.4208,-2.4208,-2.4208,-2.4208,-2.4208,-2.4208,-2.4208,-2.4208,-2.4208,-2.4208,-2.4208,-2.4208,-2.4208,-2.4208,-2.4273,-2.4254,-2.4382,-2.4814,-2.5154,-2.5356,-2.5722,-2.6199,-2.6365,-2.6401,-2.6456,-2.6629,-2.6767,-2.6675,-2.6337,-2.5786,-2.5053,-2.4658,-2.4456,-2.4208,-2.4208,-2.4208,-2.4208,-2.4208,-2.4208,-2.4208,-2.4208,-2.4208,-2.4208,-2.4208,-2.4208,-2.4208,-2.4208,-2.4208,-2.4208,-2.4208,-2.4208,-2.4208,-2.4208,-2.4208,-2.4208,-2.4208,-2.4208,-2.4208,-2.4208,-2.4208,-2.4199,-2.4218,-2.4228,-2.4256,-2.446,-2.4665,-2.4811,-3.0394,-3.0394,-3.0394,-3.0394,-3.0394,-3.0394,-3.0394,-3.0394,-3.0394,-3.0394,-3.0394,-3.0394,-3.0394,-3.0394,-3.0394,-3.0394,-3.0394,-3.0394,-3.0394,-3.0394,-3.0394,-3.0394,-3.0394,-3.0394,-3.0394,-3.0394,-3.0394,-3.0394,-3.0394,-3.0394,-3.0301,-3.0109,-2.9458,-2.8869,-2.824,-2.7282,-2.6206,-2.5605,-2.5035,-2.4603,-2.4263,-2.4218,-2.4218,-2.4208,-2.4227,-2.4208,-2.4208,-2.4208,-2.4208,-2.4208,-2.4208,-2.4208,-2.4245,-2.4254,-2.4236,-2.4264,-2.4217,-2.4208,-2.4208,-2.4208,-2.4208,-2.4245,-2.4557,-2.4805,-2.5016,-2.5512,-2.5997,-2.6144,-2.6264,-2.6794,-2.7163,-2.7209,-2.7411,-2.7758,-2.7803,-2.7583,-2.7255,-2.6834,-2.6173,-2.5355,-2.4768,-2.4447,-2.4208,-2.4208,-2.4208,-2.4208,-2.4208,-2.4208,-2.4208,-2.4208,-2.4208,-2.4208,-2.4208,-2.4208,-2.4208,-2.4208,-2.4208,-2.4208,-2.4208,-2.4208,-2.4208,-2.4208,-2.4208,-2.4208,-2.4208,-2.4208,-2.4208,-2.4208,-2.4208,-2.4208,-2.4218,-2.4266,-2.441,-2.4578,-2.4744,-3.0394,-3.0394,-3.0394,-3.0394,-3.0394,-3.0394,-3.0394,-3.0394,-3.0394,-3.0394,-3.0394,-3.0394,-3.0394,-3.0394,-3.0394,-3.0394,-3.0394,-3.0394,-3.0394,-3.0394,-3.0394,-3.0394,-3.0394,-3.0394,-3.0394,-3.0394,-3.0394,-3.0394,-3.0394,-3.0394,-3.0358,-3.0109,-2.9814,-2.9361,-2.8587,-2.7888,-2.6931,-2.6311,-2.5659,-2.5227,-2.4631,-2.4428,-2.4437,-2.4428,-2.4456,-2.4557,-2.486,-2.463,-2.4722,-2.4786,-2.4814,-2.4749,-2.4694,-2.4685,-2.4685,-2.463,-2.4401,-2.4281,-2.4456,-2.4502,-2.4667,-2.4942,-2.5328,-2.5567,-2.5843,-2.6337,-2.6924,-2.7015,-2.717,-2.7427,-2.7952,-2.8044,-2.8299,-2.8647,-2.8822,-2.8757,-2.8182,-2.7695,-2.7284,-2.6392,-2.5355,-2.4879,-2.4778,-2.4566,-2.464,-2.4227,-2.4208,-2.4208,-2.4208,-2.4208,-2.4208,-2.4208,-2.4208,-2.4208,-2.4208,-2.4208,-2.4208,-2.4208,-2.4208,-2.4208,-2.4208,-2.4208,-2.4208,-2.4208,-2.4208,-2.4208,-2.4208,-2.4208,-2.4208,-2.4208,-2.4208,-2.4247,-2.433,-2.4544,-2.4773,-3.0394,-3.0394,-3.0394,-3.0394,-3.0394,-3.0394,-3.0394,-3.0394,-3.0394,-3.0394,-3.0394,-3.0394,-3.0394,-3.0394,-3.0394,-3.0394,-3.0394,-3.0394,-3.0394,-3.0394,-3.0394,-3.0394,-3.0394,-3.0394,-3.0394,-3.0394,-3.0394,-3.0394,-3.0394,-3.0394,-3.0178,-2.9905,-2.9772,-2.943,-2.8915,-2.8309,-2.7715,-2.7383,-2.6768,-2.6025,-2.5402,-2.5264,-2.5264,-2.5264,-2.531,-2.5512,-2.586,-2.5575,-2.5512,-2.6098,-2.6227,-2.6291,-2.6328,-2.6327,-2.6327,-2.5906,-2.5227,-2.4511,-2.5108,-2.5264,-2.5474,-2.5897,-2.6355,-2.6427,-2.6758,-2.7227,-2.7915,-2.8693,-2.8629,-2.8537,-2.8638,-2.8776,-2.8904,-2.8923,-2.8987,-2.8978,-2.8702,-2.831,-2.7915,-2.7677,-2.6722,-2.5999,-2.5595,-2.5328,-2.5062,-2.4576,-2.4208,-2.4227,-2.4208,-2.4208,-2.4208,-2.4208,-2.4208,-2.4208,-2.4208,-2.4208,-2.4208,-2.4208,-2.4208,-2.4208,-2.4208,-2.4208,-2.4208,-2.4208,-2.4208,-2.4208,-2.4208,-2.4208,-2.4208,-2.4208,-2.4208,-2.4208,-2.4209,-2.4477,-2.4792,-3.0076,-3.0189,-3.0339,-3.0394,-3.0394,-3.0394,-3.0394,-3.0394,-3.0394,-3.0394,-3.0394,-3.0394,-3.0394,-3.0394,-3.0394,-3.0394,-3.0394,-3.0394,-3.0394,-3.0394,-3.0394,-3.0394,-3.0394,-3.0394,-3.0394,-3.0394,-3.0394,-3.0394,-3.0394,-3.0361,-3.0189,-2.9902,-2.9738,-2.957,-2.918,-2.8706,-2.822,-2.7686,-2.7025,-2.6438,-2.6163,-2.608,-2.609,-2.6062,-2.6071,-2.6309,-2.6447,-2.6365,-2.6218,-2.6593,-2.6611,-2.6602,-2.6612,-2.6583,-2.6583,-2.653,-2.6016,-2.5786,-2.6045,-2.6089,-2.6337,-2.6631,-2.7044,-2.7475,-2.7868,-2.8207,-2.8528,-2.8923,-2.8987,-2.8996,-2.8996,-2.8996,-2.8996,-2.8996,-2.8996,-2.8996,-2.895,-2.8794,-2.8473,-2.8319,-2.8108,-2.7337,-2.654,-2.5934,-2.5595,-2.5163,-2.4695,-2.4447,-2.4337,-2.4208,-2.4208,-2.4208,-2.4208,-2.4208,-2.4208,-2.4208,-2.4217,-2.4217,-2.4208,-2.4208,-2.4208,-2.4208,-2.4208,-2.4208,-2.4208,-2.4208,-2.4208,-2.4208,-2.4208,-2.4208,-2.4208,-2.4218,-2.4247,-2.4534,-2.4828,-2.9722,-2.9877,-3.0185,-3.0333,-3.0394,-3.0394,-3.0394,-3.0394,-3.0394,-3.0394,-3.0394,-3.0394,-3.0394,-3.0394,-3.0394,-3.0394,-3.0394,-3.0394,-3.0394,-3.0394,-3.0394,-3.0394,-3.0394,-3.0394,-3.0394,-3.0394,-3.0394,-3.0394,-3.0376,-3.0308,-3.0146,-2.9941,-2.9754,-2.9533,-2.93,-2.902,-2.8647,-2.8191,-2.7402,-2.6979,-2.6888,-2.6906,-2.6906,-2.6897,-2.6915,-2.6987,-2.7143,-2.6952,-2.6914,-2.7308,-2.7363,-2.7436,-2.7391,-2.7446,-2.7436,-2.7429,-2.7207,-2.7226,-2.7198,-2.7126,-2.7044,-2.7319,-2.764,-2.831,-2.8721,-2.8996,-2.8996,-2.8996,-2.8996,-2.8996,-2.8996,-2.8996,-2.8996,-2.8996,-2.8996,-2.8996,-2.8978,-2.8858,-2.8803,-2.8693,-2.8565,-2.8528,-2.7686,-2.6715,-2.6136,-2.5742,-2.5282,-2.4832,-2.4731,-2.4694,-2.4677,-2.4805,-2.5016,-2.4823,-2.4309,-2.4291,-2.4272,-2.4355,-2.4346,-2.4272,-2.4327,-2.4264,-2.4208,-2.4208,-2.4309,-2.4208,-2.4208,-2.4208,-2.4208,-2.4208,-2.4209,-2.4238,-2.4348,-2.4629,-2.4889,-2.9424,-2.9483,-2.9861,-3.0169,-3.0367,-3.0394,-3.0388,-3.0361,-3.0388,-3.0394,-3.0394,-3.0394,-3.0394,-3.0394,-3.0394,-3.0394,-3.0394,-3.0394,-3.0394,-3.0394,-3.0394,-3.0394,-3.0394,-3.0394,-3.0394,-3.0394,-3.0394,-3.0394,-3.0333,-3.0166,-2.9966,-2.9748,-2.966,-2.9397,-2.9183,-2.9023,-2.8968,-2.8592,-2.8044,-2.7741,-2.7714,-2.7714,-2.7723,-2.7714,-2.7778,-2.8044,-2.8702,-2.809,-2.7913,-2.8501,-2.8473,-2.8482,-2.8381,-2.8418,-2.8409,-2.84,-2.8418,-2.8418,-2.8345,-2.8042,-2.8145,-2.8556,-2.8803,-2.8794,-2.8968,-2.8996,-2.8996,-2.8996,-2.8996,-2.8996,-2.8996,-2.8996,-2.8996,-2.8996,-2.8996,-2.8996,-2.8996,-2.8987,-2.8941,-2.8978,-2.8923,-2.8812,-2.8712,-2.7723,-2.6999,-2.6595,-2.6135,-2.5695,-2.586,-2.5832,-2.5649,-2.5722,-2.6071,-2.5704,-2.463,-2.4612,-2.5061,-2.5034,-2.4915,-2.4713,-2.4548,-2.4447,-2.4484,-2.4584,-2.4722,-2.4466,-2.4355,-2.4713,-2.4823,-2.4392,-2.4228,-2.4266,-2.4443,-2.4712,-2.4968,-2.8498,-2.8659,-2.9336,-2.9756,-2.9966,-3.0092,-3.0159,-3.0179,-3.0327,-3.0394,-3.0394,-3.0394,-3.0394,-3.0394,-3.0394,-3.0394,-3.0394,-3.0394,-3.0394,-3.0394,-3.0394,-3.0394,-3.0394,-3.0394,-3.0394,-3.0394,-3.0398,-3.0283,-3.0127,-3.003,-2.9807,-2.9626,-2.9514,-2.9313,-2.91,-2.8996,-2.8996,-2.8941,-2.8712,-2.8539,-2.8537,-2.8549,-2.8549,-2.8528,-2.8549,-2.8666,-2.8895,-2.8712,-2.8785,-2.8904,-2.8978,-2.8996,-2.8996,-2.8996,-2.8996,-2.8996,-2.8996,-2.8996,-2.8996,-2.8693,-2.8721,-2.8822,-2.8978,-2.8996,-2.8996,-2.8996,-2.8996,-2.8996,-2.8996,-2.8996,-2.8996,-2.8996,-2.8996,-2.8996,-2.8996,-2.8996,-2.8996,-2.8996,-2.8996,-2.8996,-2.8996,-2.895,-2.8867,-2.8693,-2.8053,-2.7457,-2.6998,-2.6666,-2.6822,-2.684,-2.6622,-2.6484,-2.6787,-2.6622,-2.5603,-2.5704,-2.5988,-2.5741,-2.5502,-2.5392,-2.5227,-2.5053,-2.509,-2.5172,-2.5245,-2.5191,-2.5283,-2.5585,-2.5419,-2.486,-2.4505,-2.433,-2.4543,-2.4778,-2.5054,-2.7871,-2.8111,-2.8918,-2.9454,-2.9713,-2.9916,-2.9999,-3.0045,-3.0283,-3.0394,-3.0394,-3.0394,-3.0394,-3.0394,-3.0394,-3.0394,-3.0394,-3.0394,-3.0394,-3.0394,-3.0394,-3.0394,-3.0394,-3.0394,-3.0394,-3.0394,-3.0382,-3.0283,-3.0028,-2.9956,-2.9722,-2.9484,-2.93,-2.9136,-2.9055,-2.8996,-2.8996,-2.8996,-2.8996,-2.8996,-2.8978,-2.8968,-2.8959,-2.8932,-2.8923,-2.8932,-2.8987,-2.8904,-2.8923,-2.8968,-2.8996,-2.8996,-2.8996,-2.8996,-2.8996,-2.8996,-2.8996,-2.8996,-2.8996,-2.8996,-2.8996,-2.8996,-2.8996,-2.8996,-2.8996,-2.8996,-2.8996,-2.8996,-2.8996,-2.8996,-2.8996,-2.8996,-2.8996,-2.8996,-2.8996,-2.8996,-2.8996,-2.8996,-2.8996,-2.8996,-2.8996,-2.8996,-2.8959,-2.8886,-2.8656,-2.8209,-2.8051,-2.7767,-2.7758,-2.7693,-2.7446,-2.7365,-2.7411,-2.709,-2.6667,-2.6778,-2.6787,-2.6273,-2.6126,-2.6273,-2.6144,-2.5915,-2.5586,-2.5439,-2.5576,-2.5879,-2.598,-2.5952,-2.5658,-2.5254,-2.5031,-2.4893,-2.4493,-2.4742,-2.5142,-2.7743,-2.7899,-2.8633,-2.9245,-2.9642,-2.9899,-2.9967,-2.9999,-3.0286,-3.0394,-3.0394,-3.0394,-3.0394,-3.0394,-3.0394,-3.0394,-3.0394,-3.0394,-3.0394,-3.0394,-3.0394,-3.0394,-3.0394,-3.0394,-3.0394,-3.0394,-3.0333,-3.0196,-2.9967,-2.978,-2.9589,-2.9373,-2.9149,-2.9033,-2.8996,-2.8996,-2.8996,-2.8996,-2.8996,-2.8996,-2.8996,-2.8996,-2.8996,-2.8996,-2.8996,-2.8996,-2.8996,-2.8996,-2.8996,-2.8996,-2.8996,-2.8996,-2.8996,-2.8996,-2.8996,-2.8996,-2.8996,-2.8996,-2.8996,-2.8996,-2.8996,-2.8996,-2.8996,-2.8996,-2.8996,-2.8996,-2.8996,-2.8996,-2.8996,-2.8996,-2.8996,-2.8996,-2.8996,-2.8996,-2.8996,-2.8996,-2.8996,-2.8996,-2.8996,-2.8996,-2.8996,-2.8996,-2.8996,-2.8978,-2.8978,-2.8877,-2.8941,-2.884,-2.8611,-2.8427,-2.8134,-2.8088,-2.8051,-2.787,-2.7603,-2.7677,-2.7548,-2.6998,-2.6859,-2.7143,-2.7051,-2.6768,-2.6374,-2.5934,-2.6155,-2.6667,-2.6438,-2.6163,-2.6218,-2.6312,-2.5865,-2.5567,-2.5037,-2.4926,-2.5552,-2.6511,-2.708,-2.787,-2.8605,-2.9216,-2.9513,-2.9678,-2.9855,-3.0192,-3.0394,-3.0394,-3.0394,-3.0394,-3.0394,-3.0394,-3.0394,-3.0394,-3.0394,-3.0394,-3.0394,-3.0394,-3.0394,-3.0394,-3.0394,-3.0388,-3.0349,-3.0248,-3.0056,-2.9778,-2.9634,-2.9376,-2.9138,-2.9067,-2.8998,-2.8996,-2.8996,-2.8996,-2.8996,-2.8996,-2.8996,-2.8996,-2.8996,-2.8996,-2.8996,-2.8996,-2.8996,-2.8996,-2.8996,-2.8996,-2.8996,-2.8996,-2.8996,-2.8996,-2.8996,-2.8996,-2.8996,-2.8996,-2.8996,-2.8996,-2.8996,-2.8996,-2.8996,-2.8996,-2.8996,-2.8996,-2.8996,-2.8996,-2.8996,-2.8996,-2.8996,-2.8996,-2.9014,-2.9014,-2.8996,-2.8996,-2.8996,-2.8996,-2.8996,-2.8996,-2.8996,-2.8996,-2.8996,-2.8996,-2.8996,-2.8996,-2.8996,-2.8996,-2.8996,-2.8822,-2.8831,-2.8684,-2.8702,-2.8675,-2.8583,-2.8491,-2.8374,-2.8365,-2.8033,-2.8051,-2.8354,-2.8124,-2.762,-2.7548,-2.7291,-2.7374,-2.7457,-2.7429,-2.7429,-2.7558,-2.7503,-2.6993,-2.647,-2.5977,-2.6053,-2.6564,-2.5755,-2.6359,-2.7161,-2.7989,-2.8795,-2.9232,-2.9542,-2.9822,-3.0132,-3.0314,-3.0373,-3.0394,-3.0394,-3.0394,-3.0394,-3.0394,-3.0394,-3.0394,-3.0394,-3.0394,-3.0394,-3.0394,-3.0394,-3.0388,-3.0317,-3.0276,-3.0192,-3.0005,-2.9616,-2.9533,-2.9324,-2.9093,-2.8996,-2.8996,-2.8996,-2.8996,-2.8996,-2.8996,-2.8996,-2.8996,-2.8996,-2.8996,-2.8996,-2.8996,-2.8996,-2.8996,-2.8996,-2.8996,-2.8996,-2.8996,-2.8996,-2.8996,-2.8996,-2.8996,-2.8996,-2.8996,-2.8996,-2.8996,-2.8996,-2.8996,-2.8996,-2.8996,-2.8996,-2.8996,-2.8996,-2.8996,-2.8996,-2.8996,-2.906,-2.906,-2.9106,-2.9124,-2.9335,-2.9335,-2.9299,-2.9317,-2.9051,-2.906,-2.8996,-2.8996,-2.8996,-2.8996,-2.8996,-2.8996,-2.8996,-2.8996,-2.8996,-2.8996,-2.8996,-2.8996,-2.8996,-2.8978,-2.8978,-2.8849,-2.8803,-2.8822,-2.8849,-2.8968,-2.8996,-2.8996,-2.8877,-2.8354,-2.851,-2.8594,-2.8328,-2.8264,-2.8647,-2.8776,-2.8464,-2.8277,-2.8032,-2.7499,-2.6958,-2.7009,-2.7268,-2.5493,-2.5791,-2.6535,-2.7428,-2.8396,-2.9109,-2.9626,-3.0001,-3.0021,-3.0189,-3.0394,-3.0394,-3.0394,-3.0394,-3.0394,-3.0394,-3.0394,-3.0394,-3.0394,-3.0394,-3.0394,-3.0394,-3.0394,-3.0388,-3.0311,-3.0215,-3.0129,-2.999,-2.9513,-2.9513,-2.9365,-2.9106,-2.901,-2.9007,-2.8996,-2.8996,-2.8996,-2.8996,-2.8996,-2.8996,-2.8996,-2.8996,-2.8996,-2.8996,-2.8996,-2.8996,-2.8996,-2.8996,-2.8996,-2.8996,-2.8996,-2.8996,-2.8996,-2.8996,-2.8996,-2.8996,-2.8996,-2.8996,-2.8996,-2.8996,-2.9161,-2.9216,-2.9189,-2.9088,-2.9189,-2.939,-2.9601,-2.9565,-2.9601,-2.9418,-2.9299,-2.9647,-2.9977,-2.9943,-2.987,-2.9641,-2.9253,-2.9106,-2.9023,-2.8996,-2.8996,-2.8996,-2.8996,-2.8996,-2.8996,-2.8996,-2.8996,-2.8996,-2.8996,-2.8996,-2.8996,-2.8996,-2.8987,-2.8987,-2.8996,-2.8996,-2.8996,-2.8996,-2.8996,-2.8987,-2.8959,-2.8913,-2.8785,-2.8721,-2.8812,-2.8895,-2.8968,-2.8996,-2.8923,-2.8755,-2.855,-2.8294,-2.7676,-2.7397,-2.7527,-2.4918,-2.5501,-2.5732,-2.6667,-2.8005,-2.8989,-2.9616,-3.0001,-3.0179,-3.0329,-3.0394,-3.0394,-3.0394,-3.0394,-3.0394,-3.0394,-3.0394,-3.0394,-3.0394,-3.0394,-3.0394,-3.0394,-3.0394,-3.0388,-3.0323,-3.0244,-3.0159,-3.0059,-2.9797,-2.9687,-2.9484,-2.9299,-2.9067,-2.9019,-2.8996,-2.8996,-2.8996,-2.8996,-2.8996,-2.8996,-2.8996,-2.8996,-2.8996,-2.8996,-2.8996,-2.8996,-2.8996,-2.8996,-2.8996,-2.8996,-2.8996,-2.8996,-2.8996,-2.8996,-2.8996,-2.8996,-2.8996,-2.8996,-2.8996,-2.9005,-2.9216,-2.9693,-2.9879,-2.984,-2.9987,-3.0262,-3.054,-3.0402,-3.0366,-3.0283,-3.0338,-3.0613,-3.0733,-3.0641,-3.0476,-3.0072,-2.9647,-2.9216,-2.9115,-2.8996,-2.8996,-2.8996,-2.8996,-2.8996,-2.8996,-2.8996,-2.8996,-2.8996,-2.8996,-2.8996,-2.8996,-2.8996,-2.8996,-2.8996,-2.8996,-2.8996,-2.8996,-2.8996,-2.8996,-2.8996,-2.8978,-2.8932,-2.8849,-2.8849,-2.8904,-2.8941,-2.8978,-2.8996,-2.8996,-2.8996,-2.8826,-2.8659,-2.8455,-2.8124,-2.7969,-2.4532,-2.5023,-2.506,-2.608,-2.7718,-2.8753,-2.9513,-3.0079,-3.0235,-3.0289,-3.0388,-3.0394,-3.0394,-3.0394,-3.0394,-3.0394,-3.0394,-3.0394,-3.0394,-3.0394,-3.0394,-3.0394,-3.0394,-3.0382,-3.0301,-3.0238,-3.0173,-3.0078,-2.9877,-2.9588,-2.9362,-2.9202,-2.9044,-2.901,-2.8996,-2.8996,-2.8996,-2.8996,-2.8996,-2.8996,-2.8996,-2.8996,-2.8996,-2.8996,-2.8996,-2.8996,-2.8996,-2.8996,-2.8996,-2.8996,-2.8996,-2.8996,-2.8996,-2.8996,-2.8996,-2.8996,-2.8996,-2.8996,-2.9042,-2.939,-2.9721,-3.0228,-3.0788,-3.1164,-3.1109,-3.1247,-3.1247,-3.1173,-3.1265,-3.1347,-3.1503,-3.1614,-3.1507,-3.1387,-3.0971,-3.0558,-3.0017,-2.9427,-2.9198,-2.9042,-2.8996,-2.8996,-2.8996,-2.8996,-2.8996,-2.8996,-2.8996,-2.8996,-2.8996,-2.8996,-2.8996,-2.8996,-2.8996,-2.8996,-2.8996,-2.8996,-2.8996,-2.8996,-2.8996,-2.8996,-2.8996,-2.8978,-2.8913,-2.8932,-2.8978,-2.8996,-2.8996,-2.8996,-2.8996,-2.8996,-2.8996,-2.8867,-2.8776,-2.8721,-2.8675,-2.4303,-2.4499,-2.4552,-2.571,-2.746,-2.8393,-2.9333,-3.0236,-3.0106,-3.0163,-3.0367,-3.0394,-3.0394,-3.0394,-3.0394,-3.0394,-3.0394,-3.0394,-3.0394,-3.0394,-3.0394,-3.0394,-3.0394,-3.0388,-3.0317,-3.0215,-3.0157,-3.0153,-2.9789,-2.9551,-2.9354,-2.9033,-2.9007,-2.8996,-2.8996,-2.8996,-2.9078,-2.9317,-2.9124,-2.8996,-2.8996,-2.8996,-2.8996,-2.8996,-2.8996,-2.8996,-2.8996,-2.8996,-2.8996,-2.8996,-2.8996,-2.8996,-2.8996,-2.8996,-2.8996,-2.9124,-2.917,-2.928,-2.9491,-2.9925,-3.0344,-3.0971,-3.1711,-3.2238,-3.2284,-3.221,-3.2183,-3.2155,-3.225,-3.2247,-3.2348,-3.2495,-3.2467,-3.2192,-3.1806,-3.143,-3.0977,-3.0198,-2.9381,-2.9198,-2.8996,-2.8996,-2.8996,-2.8996,-2.8996,-2.8996,-2.8996,-2.8996,-2.8996,-2.8996,-2.8996,-2.8996,-2.8996,-2.8996,-2.8996,-2.8996,-2.8996,-2.8996,-2.8996,-2.8996,-2.8996,-2.8996,-2.8996,-2.8996,-2.8996,-2.8996,-2.8996,-2.8996,-2.8996,-2.8996,-2.8996,-2.8996,-2.8996,-2.8996,-2.8996,-2.4209,-2.4321,-2.492,-2.5695,-2.6537,-2.7949,-2.8869,-2.9471,-3.008,-3.0308,-3.0398,-3.0394,-3.0394,-3.0394,-3.0394,-3.0394,-3.0394,-3.0394,-3.0394,-3.0394,-3.0394,-3.0394,-3.0394,-3.0388,-3.0355,-3.0355,-3.0317,-3.0189,-2.9853,-2.9651,-2.9504,-2.9269,-2.9125,-2.8996,-2.9005,-2.9033,-2.9308,-2.9705,-2.951,-2.9289,-2.9262,-2.9078,-2.8996,-2.906,-2.9097,-2.9189,-2.9179,-2.9115,-2.9051,-2.8996,-2.8996,-2.8996,-2.8996,-2.8996,-2.8996,-2.9088,-2.9567,-2.9769,-3.0136,-3.0659,-3.1237,-3.1779,-3.2445,-3.2926,-3.3192,-3.321,-3.3192,-3.3155,-3.3141,-3.3109,-3.3137,-3.3284,-3.3339,-3.2981,-3.2577,-3.2225,-3.1867,-3.0794,-2.9702,-2.9363,-2.9106,-2.8996,-2.8996,-2.8996,-2.8996,-2.8996,-2.8996,-2.8996,-2.8996,-2.8996,-2.8996,-2.8996,-2.8996,-2.8996,-2.8996,-2.8996,-2.8996,-2.8996,-2.8996,-2.8996,-2.8996,-2.8996,-2.8996,-2.8996,-2.8996,-2.8996,-2.8996,-2.8996,-2.8996,-2.8996,-2.8996,-2.8996,-2.8996,-2.8996,-2.8996,-2.4208,-2.4245,-2.4667,-2.5273,-2.5958,-2.689,-2.7883,-2.8906,-2.94,-2.9886,-3.0363,-3.0394,-3.0394,-3.0388,-3.0394,-3.0394,-3.0394,-3.0394,-3.0394,-3.0394,-3.0394,-3.0394,-3.0394,-3.0394,-3.0388,-3.0388,-3.0241,-3.0064,-2.978,-2.9616,-2.9435,-2.9237,-2.9044,-2.9014,-2.9058,-2.9317,-2.9711,-3.0155,-3.0017,-3.0054,-2.9941,-2.9776,-2.9843,-2.9867,-3.0032,-3.0014,-3.0072,-3.0072,-3.0072,-2.9907,-2.9812,-2.9601,-2.9473,-2.9216,-2.9262,-2.9537,-2.9962,-3.0375,-3.0834,-3.1458,-3.2128,-3.2546,-3.3064,-3.3495,-3.3559,-3.3559,-3.3559,-3.3522,-3.3522,-3.3513,-3.3513,-3.3623,-3.3632,-3.3412,-3.2807,-3.2289,-3.1659,-3.0751,-3.0099,-2.9821,-2.9445,-2.8996,-2.8996,-2.8996,-2.8996,-2.8996,-2.8996,-2.8996,-2.8996,-2.8996,-2.8996,-2.8996,-2.8996,-2.8996,-2.8996,-2.8996,-2.8996,-2.8996,-2.8996,-2.8996,-2.8996,-2.8996,-2.8996,-2.8996,-2.8996,-2.8996,-2.8996,-2.8996,-2.8996,-2.8996,-2.8996,-2.8996,-2.8996,-2.8996,-2.8996,-2.4208,-2.4208,-2.4218,-2.4718,-2.5508,-2.5692,-2.6739,-2.8222,-2.852,-2.914,-3.0002,-3.0193,-3.0327,-3.0398,-3.0394,-3.0394,-3.0394,-3.0394,-3.0394,-3.0394,-3.0394,-3.0394,-3.0394,-3.0394,-3.0361,-3.0232,-3.0061,-2.9782,-2.9474,-2.9414,-2.9321,-2.9055,-2.9023,-2.906,-2.9335,-2.9757,-3.0292,-3.0769,-3.1008,-3.1412,-3.1219,-3.0843,-3.0852,-3.1118,-3.1403,-3.1403,-3.1387,-3.1378,-3.136,-3.1109,-3.0659,-3.0467,-3.0246,-2.9962,-3.0017,-3.0292,-3.0702,-3.11,-3.1549,-3.2311,-3.2638,-3.2977,-3.3522,-3.377,-3.3807,-3.3816,-3.3816,-3.3816,-3.3816,-3.3816,-3.3816,-3.3816,-3.3816,-3.3752,-3.3082,-3.2482,-3.1715,-3.099,-3.0696,-3.0381,-2.9766,-2.9234,-2.9033,-2.9023,-2.8996,-2.8996,-2.8996,-2.8996,-2.8996,-2.8996,-2.8996,-2.8996,-2.8996,-2.8996,-2.8996,-2.8996,-2.8996,-2.8996,-2.8996,-2.8996,-2.8996,-2.8996,-2.8996,-2.8996,-2.8996,-2.8996,-2.8996,-2.8996,-2.8996,-2.8996,-2.8996,-2.8996,-2.8996,-2.8996,-2.8996,-2.4208,-2.4208,-2.4208,-2.4432,-2.4811,-2.5414,-2.6031,-2.6702,-2.796,-2.8681,-2.9066,-2.9633,-3.0017,-3.0388,-3.0394,-3.0361,-3.0276,-3.0305,-3.0376,-3.0394,-3.0339,-3.0361,-3.0367,-3.0301,-3.0238,-3.0056,-2.9847,-2.9635,-2.9343,-2.9341,-2.9277,-2.9007,-2.8996,-2.9289,-2.9941,-3.0372,-3.0794,-3.1421,-3.1779,-3.2048,-3.2605,-3.2146,-3.1351,-3.1378,-3.1403,-3.1403,-3.1393,-3.1393,-3.1393,-3.1329,-3.1283,-3.1191,-3.1048,-3.0892,-3.091,-3.1136,-3.1559,-3.1959,-3.2491,-3.3027,-3.328,-3.3412,-3.3788,-3.3788,-3.3816,-3.3816,-3.3816,-3.3816,-3.3816,-3.3816,-3.3816,-3.3816,-3.3816,-3.3816,-3.3421,-3.3036,-3.2467,-3.1999,-3.1629,-3.0941,-3.0173,-2.9638,-2.9161,-2.9106,-2.8996,-2.8996,-2.8996,-2.8996,-2.8996,-2.8996,-2.8996,-2.8996,-2.8996,-2.8996,-2.8996,-2.8996,-2.8996,-2.8996,-2.8996,-2.8996,-2.8996,-2.8996,-2.8996,-2.8996,-2.8996,-2.8996,-2.8996,-2.8996,-2.8996,-2.8996,-2.8996,-2.8996,-2.8996,-2.8996,-2.8996]},{"header":{"parameterUnit":"m.s-1","parameterCategory":1,"la1":31.0,"la2":29.5877,"lo1":-88.7671,"lo2":-86.6584,"dy":0.0162,"dx":0.0185,"nx":115,"ny":88,"refTime":"2026-03-06T12:00:00:Z","depth":0,"parameterNumber":3,"parameterNumberName":"V-component_of_WINDS"},"data":[0.0,0.0,0.0,0.0,0.0,0.0,0.0,0.0,0.0,0.0,0.0,0.0,0.0,0.0,0.0,0.0,0.0,0.0,0.0,0.0,0.0,0.0,0.0,0.0,0.0,0.0,0.0,0.0,0.0,0.0,0.0,0.0,0.0,0.0,0.0,0.0,0.0,0.0,0.0,0.0,0.0,0.0,0.0,0.0,0.0,0.0,0.0,0.0,0.0,0.0,0.0,0.0,0.0,0.0,0.0,0.0,0.0,0.0,0.0,0.0,0.0,0.0,0.0,0.0,0.0,0.0,0.0,0.0,0.0,0.0,0.0,0.0,0.0,0.0,0.0,0.0,0.0,0.0,0.0,0.0,0.0,0.0,0.0,0.0,0.0,0.0,0.0,0.0,0.0,0.0,0.0,0.0,0.0,0.0,0.0,0.0,0.0,0.0,0.0,0.0,0.0,0.0,0.0,0.0,0.0,0.0,0.0,0.0,0.0,0.0,0.0,0.0,0.0,0.0,0.0,0.0,0.0,0.0,0.0,0.0,0.0,0.0,0.0,0.0,0.0,0.0,0.0,0.0,0.0,0.0,0.0,0.0,0.0,0.0,0.0,0.0,0.0,0.0,0.0,0.0,0.0,0.0,0.0,0.0,0.0,0.0,0.0,0.0,0.0,0.0,0.0,0.0,0.0,0.0,0.0,0.0,0.0,0.0,0.0,0.0,0.0,0.0,0.0,0.0,0.0,0.0,0.0,0.0,0.0,0.0,0.0,0.0,0.0,0.0,0.0,0.0,0.0,0.0,0.0,0.0,0.0,0.0,0.0,0.0,0.0,0.0,0.0,0.0,0.0,0.0,0.0,0.0,0.0,0.0,0.0,0.0,0.0,0.0,0.0,0.0,0.0,0.0,0.0,0.0,0.0,0.0,0.0,0.0,0.0,0.0,0.0,0.0,0.0,0.0,0.0,0.0,0.0,0.0,0.0,0.0,0.0,0.0,0.0,0.0,0.0,0.0,0.0,0.0,0.0,0.0,0.0,0.0,0.0,0.0,0.0,0.0,0.0,0.0,0.0,0.0,0.0,0.0,0.0,0.0,0.0,0.0,0.0,0.0,0.0,0.0,0.0,0.0,0.0,0.0,0.0,0.0,0.0,0.0,0.0,0.0,0.0,0.0,0.0,0.0,0.0,0.0,0.0,0.0,0.0,0.0,0.0,0.0,0.0,0.0,0.0,0.0,0.0,0.0,0.0,0.0,0.0,0.0,0.0,0.0,0.0,0.0,0.0,0.0,0.0,0.0,0.0,0.0,0.0,0.0,0.0,0.0,0.0,0.0,0.0,0.0,0.0,0.0,0.0,0.0,0.0,0.0,0.0,0.0,0.0,0.0,0.0,0.0,0.0,0.0,0.0,0.0,0.0,0.0,0.0,0.0,0.0,0.0,0.0,0.0,0.0,0.0,0.0,0.0,0.0,0.0,0.0,0.0,0.0,0.0,0.0,0.0,0.0,0.0,0.0,0.0,0.0,0.0,0.0,0.0,0.0,0.0,0.0,0.0,0.0,0.0,0.0,0.0,0.0,0.0,0.0,0.0,0.0,0.0,0.0,0.0,0.0,0.0,0.0,0.0,0.0,0.0,0.0,0.0,0.0,0.0,0.0,0.0,0.0,0.0,0.0,0.0,0.0,0.0,0.0,0.0,0.0,0.0,0.0,0.0,0.0,0.0,0.0,0.0,0.0,0.0,0.0,0.0,0.0,0.0,0.0,0.0,0.0,0.0,0.0,0.0,0.0,0.0,0.0,0.0,0.0,0.0,0.0,0.0,0.0,0.0,0.0,0.0,0.0,0.0,0.0,0.0,0.0,0.0,0.0,0.0,0.0,0.0,0.0,0.0,0.0,0.0,0.0,0.0,0.0,0.0,0.0,0.0,0.0,0.0,0.0,0.0,0.0,0.0,0.0,0.0,0.0,0.0,0.0,0.0,0.0,0.0,0.0,0.0,0.0,0.0,0.0,0.0,0.0,0.0,0.0,0.0,0.0,0.0,0.0,0.0,0.0,0.0,0.0,0.0,0.0,0.0,0.0,0.0,0.0,0.0,0.0,0.0,0.0,0.0,0.0,0.0,0.0,0.0,0.0,0.0,0.0,0.0,0.0,0.0,0.0,0.0,0.0,0.0,0.0,0.0,0.0,0.0,0.0,0.0,0.0,0.0,0.0,0.0,0.0,0.0,0.0,0.0,0.0,0.0,0.0,0.0,0.0,0.0,0.0,0.0,0.0,0.0,0.0,0.0,0.0,0.0,0.0,0.0,0.0,0.0,0.0,0.0,0.0,0.0,0.0,0.0,0.0,0.0,0.0,0.0,0.0,0.0,0.0,0.0,0.0,0.0,0.0,0.0,0.0,0.0,0.0,0.0,0.0,0.0,0.0,0.0,0.0,0.0,0.0,0.0,0.0,0.0,0.0,0.0,0.0,0.0,0.0,0.0,0.0,0.0,0.0,0.0,0.0,0.0,0.0,0.0,0.0,0.0,0.0,0.0,0.0,0.0,0.0,0.0,0.0,0.0,0.0,0.0,0.0,0.0,0.0,0.0,0.0,0.0,0.0,0.0,0.0,0.0,0.0,0.0,0.0,0.0,0.0,0.0,0.0,0.0,0.0,0.0,0.0,0.0,0.0,0.0,0.0,0.0,0.0,0.0,0.0,0.0,0.0,0.0,0.0,0.0,0.0,0.0,0.0,0.0,0.0,0.0,0.0,0.0,0.0,0.0,0.0,0.0,0.0,0.0,0.0,0.0,0.0,0.0,0.0,0.0,0.0,0.0,0.0,0.0,0.0,0.0,0.0,0.0,0.0,0.0,0.0,0.0,0.0,0.0,0.0,0.0,0.0,0.0,0.0,0.0,0.0,0.0,0.0,0.0,0.0,0.0,0.0,0.0,0.0,0.0,0.0,0.0,0.0,0.0,0.0,0.0,0.0,0.0,0.0,0.0,0.0,0.0,0.0,0.0,0.0,0.0,0.0,0.0,0.0,0.0,0.0,0.0,0.0,0.0,0.0,0.0,0.0,0.0,0.0,0.0,0.0,0.0,0.0,0.0,0.0,0.0,0.0,0.0,0.0,0.0,0.0,0.0,0.0,0.0,0.0,0.0,0.0,0.0,0.0,0.0,0.0,0.0,0.0,0.0,0.0,0.0,0.0,0.0,0.0,0.0,0.0,0.0,0.0,0.0,0.0,0.0,0.0,0.0,0.0,0.0,0.0,0.0,0.0,0.0,0.0,0.0,0.0,0.0,0.0,0.0,0.0,0.0,0.0,0.0,0.0,0.0,0.0,0.0,0.0,0.0,0.0,0.0,0.0,0.0,0.0,0.0,0.0,0.0,0.0,0.0,0.0,0.0,0.0,0.0,0.0,0.0,0.0,0.0,0.0,0.0,0.0,0.0,0.0,0.0,0.0,0.0,0.0,0.0,0.0,0.0,0.0,0.0,0.0,0.0,0.0,0.0,0.0,0.0,0.0,0.0,0.0,0.0,0.0,0.0,0.0,0.0,0.0,0.0,0.0,0.0,0.0,0.0,0.0,0.0,0.0,0.0,0.0,0.0,0.0,0.0,0.0,0.0,0.0,0.0,0.0,0.0,0.0,0.0,0.0,0.0,0.0,0.0,0.0,0.0,0.0,0.0,0.0,0.0,0.0,0.0,0.0,0.0,0.0,0.0,0.0,0.0,0.0,0.0,0.0,0.0,0.0,0.0,0.0,0.0,0.0,0.0,0.0,0.0,0.0,0.0,0.0,0.0,0.0,0.0,0.0,0.0,0.0,0.0,0.0,0.0,0.0,0.0,0.0,0.0,0.0,0.0,0.0,0.0,0.0,0.0,0.0,0.0,0.0,0.0,0.0,0.0,0.0,0.0,0.0,0.0,0.0,0.0,0.0,0.0,0.0,0.0,0.0,0.0,0.0,0.0,0.0,0.0,0.0,0.0,0.0,0.0,0.0,0.0,0.0,0.0,0.0,0.0,0.0,0.0,0.0,0.0,0.0,0.0,0.0,0.0,0.0,0.0,0.0,0.0,0.0,0.0,0.0,0.0,0.0,0.0,0.0,0.0,0.0,0.0,0.0,0.0,0.0,0.0,0.0,0.0,0.0,0.0,0.0,0.0,0.0,0.0,0.0,0.0,0.0,0.0,0.0,0.0,0.0,0.0,0.0,0.0,0.0,0.0,0.0,0.0,0.0,0.0,0.0,0.0,0.0,0.0,0.0,0.0,0.0,0.0,0.0,0.0,0.0,0.0,0.0,0.0,0.0,0.0,0.0,0.0,0.0,0.0,0.0,0.0,0.0,0.0,0.0,0.0,0.0,0.0,0.0,0.0,0.0,0.0,0.0,0.0,0.0,0.0,0.0,0.0,0.0,0.0,0.0,0.0,0.0,0.0,0.0,0.0,0.0,0.0,0.0,0.0,0.0,0.0,0.0,0.0,0.0,0.0,0.0,0.0,0.0,0.0,0.0,0.0,0.0,0.0,0.0,0.0,0.0,0.0,0.0,0.0,0.0,0.0,0.0,0.0,0.0,0.0,0.0,0.0,0.0,0.0,0.0,0.0,0.0,0.0,0.0,0.0,0.0,0.0,0.0,0.0,0.0,0.0,0.0,0.0,0.0,0.0,0.0,0.0,0.0,0.0,0.0,0.0,0.0,0.0,0.0,0.0,0.0,0.0,0.0,0.0,0.0,0.0,0.0,0.0,0.0,0.0,0.0,0.0,0.0,0.0,0.0,0.0,0.0,0.0,0.0,0.0,0.0,0.0,0.0,0.0,0.0,0.0,0.0,0.0,0.0,0.0,0.0,0.0,0.0,0.0,0.0,0.0,0.0,0.0,0.0,0.0,0.0,0.0,0.0,0.0,0.0,0.0,0.0,0.0,0.0,0.0,0.0,0.0,0.0,0.0,0.0,0.0,0.0,0.0,0.0,0.0,0.0,0.0,0.0,0.0,0.0,0.0,0.0,0.0,0.0,0.0,0.0,0.0,0.0,0.0,0.0,0.0,0.0,0.0,0.0,0.0,0.0,0.0,0.0,0.0,0.0,0.0,0.0,0.0,0.0,0.0,0.0,0.0,0.0,0.0,0.0,0.0,0.0,0.0,0.0,0.0,0.0,0.0,0.0,0.0,0.0,0.0,0.0,0.0,0.0,0.0,0.0,0.0,0.0,0.0,0.0,0.0,0.0,0.0,0.0,0.0,0.0,0.0,0.0,0.0,0.0,0.0,0.0,0.0,0.0,0.0,0.0,0.0,0.0,0.0,0.0,0.0,0.0,0.0,0.0,0.0,0.0,0.0,0.0,0.0,0.0,0.0,0.0,0.0,0.0,0.0,0.0,0.0,0.0,0.0,0.0,0.0,0.0,0.0,0.0,0.0,0.0,0.0,0.0,0.0,0.0,0.0,0.0,0.0,0.0,0.0,0.0,0.0,0.0,0.0,0.0,0.0,0.0,0.0,0.0,0.0,0.0,0.0,0.0,0.0,0.0,0.0,0.0,0.0,0.0,0.0,0.0,0.0,0.0,0.0,0.0,0.0,0.0,0.0,0.0,0.0,0.0,0.0,0.0,0.0,0.0,0.0,0.0,0.0,0.0,0.0,0.0,0.0,0.0,0.0,0.0,0.0,0.0,0.0,0.0,0.0,0.0,0.0,0.0,0.0,0.0,0.0,0.0,0.0,0.0,0.0,0.0,0.0,0.0,0.0,0.0,0.0,0.0,0.0,0.0,0.0,0.0,0.0,0.0,0.0,0.0,0.0,0.0,0.0,0.0,0.0,0.0,0.0,0.0,0.0,0.0,0.0,0.0,0.0,0.0,0.0,0.0,0.0,0.0,0.0,0.0,0.0,0.0,0.0,0.0,0.0,0.0,0.0,0.0,0.0,0.0,0.0,0.0,0.0,0.0,0.0,0.0,0.0,0.0,0.0,0.0,0.0,0.0,0.0,0.0,0.0,0.0,0.0,0.0,0.0,0.0,0.0,0.0,0.0,0.0,0.0,0.0,0.0,0.0,0.0,0.0,0.0,0.0,0.0,0.0,0.0,0.0,0.0,0.0,0.0,0.0,0.0,0.0,0.0,0.0,0.0,0.0,0.0,0.0,0.0,0.0,0.0,0.0,0.0,0.0,0.0,0.0,0.0,0.0,0.0,0.0,0.0,0.0,0.0,0.0,0.0,0.0,0.0,0.0,0.0,0.0,0.0,0.0,0.0,0.0,0.0,0.0,0.0,0.0,0.0,0.0,0.0,0.0,0.0,0.0,0.0,0.0,0.0,0.0,0.0,0.0,0.0,0.0,0.0,0.0,0.0,0.0,0.0,0.0,0.0,0.0,0.0,0.0,0.0,0.0,0.0,0.0,0.0,0.0,0.0,0.0,0.0,0.0,0.0,0.0,0.0,0.0,0.0,0.0,0.0,0.0,0.0,0.0,0.0,0.0,0.0,0.0,0.0,0.0,0.0,0.0,0.0,0.0,0.0,0.0,0.0,0.0,0.0,0.0,0.0,0.0,0.0,0.0,0.0,0.0,0.0,0.0,0.0,0.0,0.0,0.0,0.0,0.0,0.0,0.0,0.0,0.0,0.0,0.0,0.0,0.0,0.0,0.0,0.0,0.0,0.0,0.0,0.0,0.0,0.0,0.0,0.0,0.0,0.0,0.0,0.0,0.0,0.0,0.0,0.0,0.0,0.0,0.0,0.0,0.0,0.0,0.0,0.0,0.0,0.0,0.0,0.0,0.0,0.0,0.0,0.0,0.0,0.0,0.0,0.0,0.0,0.0,0.0124,0.0204,0.0182,0.013,0.0077,0.0,0.0,0.0,0.0,0.0,0.0,0.0,0.0,0.0,0.0,0.0,0.0,0.0,0.0,0.0,0.0,0.0,0.0,0.0,0.0,0.0,0.0,0.0,0.0,0.0,0.0,0.0,0.0,0.0,0.0,0.0,0.0,0.0,0.0,0.0,0.0,0.0,0.0,0.0,0.0,0.0,0.0,0.0,0.0,0.0,0.0,0.0,0.0,0.0,0.0,0.0,0.0,0.0,0.0,0.0,0.0,0.0,0.0,0.0,0.0,0.0,0.0,0.0,0.0,0.0,0.0,0.0,0.0,0.0,0.0,0.0,0.0,0.0,0.0,0.0,0.0,0.0,0.0,0.0,0.0,0.0,0.0,0.0,0.0,0.0,0.0,0.0,0.0,0.0,0.0,0.0,0.0,0.0,0.0,0.0,0.0,0.0,0.0,0.0,0.0,0.0,0.0,0.0,0.0,0.0,0.0,0.0,0.0,0.0,0.0,0.0429,0.0663,0.0666,0.05,0.0257,0.0,0.0,0.0,0.0,0.0,0.0,0.0,0.0,0.0,0.0,0.0,0.0,0.0,0.0,0.0,0.0,0.0,0.0,0.0,0.0,0.0,0.0,0.0,0.0,0.0,0.0,0.0,0.0,0.0,0.0,0.0,0.0,0.0,0.0,0.0,0.0,0.0,0.0,0.0,0.0,0.0,0.0,0.0,0.0,0.0,0.0,0.0,0.0,0.0,0.0,0.0,0.0,0.0,0.0,0.0,0.0,0.0,0.0,0.0,0.0,0.0,0.0,0.0,0.0,0.0,0.0,0.0,0.0,0.0,0.0,0.0,0.0,0.0,0.0,0.0,0.0,0.0,0.0,0.0,0.0,0.0,0.0,0.0,0.0,0.0,0.0,0.0,0.0,0.0,0.0,0.0,0.0,0.0,0.0,0.0,0.0,0.0,0.0,0.0,0.0,0.0,0.0,0.0,0.0,0.0,0.0,0.0,0.0,0.0,0.0267,0.0621,0.0877,0.0941,0.0588,0.0409,0.0,0.0,0.0,0.0,0.0,0.0,0.0,0.0,0.0,0.0,0.0,0.0,0.0,0.0,0.0,0.0,0.0,0.0,0.0,0.0,0.0,0.0,0.0,0.0,0.0,0.0,0.0,0.0,0.0,0.0,0.0,0.0,0.0,0.0,0.0,0.0,0.0,0.0,0.0,0.0,0.0,0.0,0.0,0.0,0.0,0.0,0.0,0.0,0.0,0.0,0.0,0.0,0.0,0.0,0.0,0.0,0.0,0.0,0.0,0.0,0.0,0.0,0.0,0.0,0.0,0.0,0.0,0.0,0.0,0.0,0.0,0.0,0.0,0.0,0.0,0.0,0.0,0.0,0.0,0.0,0.0,0.0,0.0,0.0,0.0,0.0,0.0,0.0,0.0,0.0,0.0,0.0,0.0,0.0,0.0,0.0,0.0,0.0,0.0,0.0,0.0,0.0,0.0,0.0,0.0,0.0,0.0,0.0,0.0,0.0674,0.0,0.1226,0.0,0.0875,0.0626,0.0,0.0,0.0,0.0,0.0,0.0,0.0,0.0,0.0,0.0,0.0,0.0,0.0,0.0,0.0,0.0,0.0,0.0,0.0,0.0,0.0,0.0,0.0,0.0,0.0,0.0,0.0,0.0,0.0,0.0,0.0,0.0,0.0,0.0,0.0,0.0,0.0,0.0,0.0,0.0,0.0,0.0,0.0,0.0,0.0,0.0,0.0,0.0,0.0,0.0,0.0,0.0,0.0,0.0,0.0,0.0,0.0,0.0,0.0,0.0,0.0,0.0,0.0,0.0,0.0,0.0,0.0,0.0,0.0,0.0,0.0,0.0,0.0,0.0,0.0,0.0,0.0,0.0,0.0,0.0,0.0,0.0,0.0,0.0,0.0,0.0,0.0,0.0,0.0,0.0,0.0,0.0,0.0,0.0,0.0,0.0,0.0,0.0,0.0,0.0,0.0,0.0,0.0,0.0,0.0,0.0,0.0,0.0,0.0448,0.1254,0.1621,0.1797,0.1784,0.1353,0.089,0.0,0.0,0.0,0.0,0.0,0.0,0.0,0.0,0.0,0.0,0.0,0.0,0.0,0.0,0.0,0.0,0.0,0.0,0.0,0.0,0.0,0.0,0.0,0.0,0.0,0.0,0.0,0.0,0.0,0.0,0.0,0.0,0.0,0.0,0.0,0.0,0.0,0.0,0.0,0.0,0.0,0.0,0.0,0.0,0.0,0.0,0.0,0.0,0.0,0.0,0.0,0.0,0.0,0.0,0.0,0.0,0.0,0.0,0.0,0.0,0.0,0.0,0.0,0.0,0.0,0.0,0.0,0.0,0.0,0.0,0.0,0.0,0.0,0.0,0.0,0.0,0.0,0.0,0.0,0.0,0.0,0.0,0.0,0.0,0.0,0.0,0.0,0.0,0.0,0.0,0.0,0.0,0.0,0.0,0.0,0.0,0.0,0.0,0.0,0.0,0.0,0.0,0.0,0.0,0.0,0.0,0.0,0.0,0.0,0.1158,0.1753,0.2188,0.2397,0.179,0.1465,0.0,0.0,0.0,0.0,0.0,0.0,0.0,0.0,0.0,0.0,0.0,0.0,0.0,0.0,0.0,0.0,0.0,0.0,0.0,0.0,0.0,0.0,0.0,0.0,0.0,0.0,0.0,0.0,0.0,0.0,0.0,0.0,0.0,0.0,0.0,0.0,0.0,0.0,0.0,0.0,0.0,0.0,0.0,0.0,0.0,0.0,0.0,0.0,0.0,0.0,0.0,0.0,0.0,0.0,0.0,0.0,0.0,0.0,0.0,0.0,0.0,0.0,0.0,0.0,0.0,0.0,0.0,0.0,0.0,0.0,0.0,0.0,0.0,0.0,0.0,0.0,0.0,0.0,0.0,0.0,0.0,0.0,0.0,0.0,0.0,0.0,0.0,0.0,0.0,0.0,0.0,0.0,0.0,0.0,0.0,0.0,0.0,0.0,0.0,0.0,0.0,0.0,0.0,0.0,0.0,0.0,0.0,0.0,0.0,0.1461,0.2,0.2406,0.2623,0.1962,0.1686,0.1831,0.0,0.0,0.0,0.0,0.0,0.0,0.0,0.0,0.0,0.0,0.0,0.0,0.0,0.0,0.0,0.0,0.0,0.0,0.0,0.0,0.0,0.0,0.0,0.0,0.0,0.0,0.0,0.0,0.0,0.0,0.0,0.0,0.0,0.0,0.0,0.0,0.0,0.0,0.0,0.0,0.0,0.0,0.0,0.0,0.0,0.0,0.0,0.0,0.0,0.0,0.0,0.0,0.0,0.0,0.0,0.0,0.0,0.0,0.0,0.0,0.0,0.0,0.0,0.0,0.0,0.0,0.0,0.0,0.0,0.0,0.0,0.0,0.0,0.0,0.0,0.0,0.0,0.0,0.0,0.0,0.0,0.0,0.0,0.0,0.0,0.0,0.0,0.0,0.0,0.0,0.0,0.0,0.0,0.0,0.0,0.0,0.0,0.0,0.0,0.0,0.0,0.0,0.0,0.0,0.0,0.0,0.0,0.0,0.2018,0.2344,0.2503,0.2496,0.1933,0.164,0.0,0.0,0.0,0.0,0.0,0.0,0.0,0.0,0.0,0.0,0.0,0.0,0.0,0.0,0.0,0.0,0.0,0.0,0.0,0.0,0.0,0.0,0.0,0.0,0.0,0.0,0.0,0.0,0.0,0.0,0.0,0.0,0.0,0.0,0.0,0.0,0.0,0.0,0.0,0.0,0.0,0.0,0.0,0.0,0.0,0.0,0.0,0.0,0.0,0.0,0.0,0.0,0.0,0.0,0.0,0.0,0.0,0.0,0.0,0.0,0.0,0.0,0.0,0.0,0.0,0.0,0.0,0.0,0.0,0.0,0.0,0.0,0.0,0.0,0.0,0.0,0.0,0.0,0.0,0.0,0.0,0.0,0.0,0.0,0.0,0.0,0.0,0.0,0.0,0.0,0.0,0.0,0.0,0.0,0.0,0.0,0.0,0.0,0.0,0.0,0.0,0.0,0.0,0.0,0.0,0.0,0.0,0.0,0.0,0.2152,0.2368,0.2551,0.264,0.2258,0.2041,0.0,0.0,0.0,0.0,0.0,0.0,0.0,0.0,0.0,0.0,0.0,0.0,0.0,0.0,0.0,0.0,0.0,0.0,0.0,0.0,0.0,0.0,0.0,0.0,0.0,0.0,0.0,0.0,0.0,0.0,0.0,0.0,0.0,0.0,0.0,0.0,0.0,0.0,0.0,0.0,0.0,0.0,0.0,0.0,0.0,0.0,0.0,0.0,0.0,0.0,0.0,0.0,0.0,0.0,0.0,0.0,0.0,0.0,0.0,0.0,0.0,0.0,0.0,0.0,0.0,0.0,0.0,0.0,0.0,0.0,0.0,0.0,0.0,0.0,0.0,0.0,0.0,0.0,0.0,0.0,0.0,0.0,0.0,0.0,0.0,0.0,0.0,0.0,0.0,0.0,0.0,0.0,0.0,0.0,0.0,0.0,0.0,0.0,0.0,0.0,0.0,0.0,0.0,0.0,0.0,0.0,0.0,0.0,0.2097,0.239,0.252,0.2591,0.2616,0.2418,0.2285,0.0,0.0,0.0,0.0,0.0,0.0,0.0,0.0,0.0,0.0,0.0,0.0,0.0,0.0,0.0,0.0,0.0,0.0,0.0,0.0,0.0,0.0,0.0,0.0,0.0,0.0,0.0,0.0,0.0,0.0,0.0,0.0,0.0,0.0,0.0,0.0,0.0,0.0,0.0,0.0,0.0,0.0,0.0,0.0,0.0,0.0,0.0,0.0,0.0,0.0,0.0,0.0,0.0,0.0,0.0,0.0,0.0,0.0,0.0,0.0,0.0,0.0,0.0,0.0,0.0,0.0,0.0,0.0,0.0,0.0,0.0,0.0,0.0,0.0,0.0,0.0,0.0,0.0,0.0,0.0,0.0,0.0,0.0,0.0,0.0,0.0,0.0,0.0,0.0,0.0,0.0,0.0,0.0,0.0,0.0,0.0,0.0,0.0,0.0,0.0,0.0,0.0,0.0,0.0,0.0,0.0,0.0,0.0,0.2375,0.2665,0.2689,0.2647,0.253,0.2506,0.2392,0.0,0.0,0.0,0.0,0.0,0.0,0.0,0.0,0.0,0.0,0.0,0.0,0.0,0.0,0.0,0.0,0.0,0.0,0.0,0.0,0.0,0.0,0.0,0.0,0.0,0.0,0.0,0.0,0.0,0.0,0.0,0.0,0.0,0.0,0.0,0.0,0.0,0.0,0.0,0.0,0.0,0.0,0.0,0.0,0.0,0.0,0.0,0.0,0.0,0.0,0.0,0.0,0.0,0.0,0.0,0.0,0.0,0.0,0.0,0.0,0.0,0.0,0.0,0.0,0.0,0.0,0.0,0.0,0.0,0.0,0.0,0.0,0.0,0.0,0.0,0.0,0.0,0.0,0.0,0.0,0.0,0.0,0.0,0.0,0.0,0.0,0.0,0.0,0.0,0.0,0.0,0.0,0.0,0.0,0.0,0.0,0.0,0.0,0.0,0.0,0.0,0.0,0.0,0.0,0.0,0.0,0.0,0.0,0.2465,0.2548,0.2634,0.2682,0.2648,0.2562,0.2372,0.0,0.0,0.0,0.0,0.0,0.0,0.0,0.0,0.0,0.0,0.0,0.0,0.0,0.0,0.0,0.0,0.0,0.0,0.0,0.0,0.0,0.0,0.0,0.0,0.0,0.0,0.0,0.0,0.0,0.0,0.0,0.0,0.0,0.0,0.0,0.0,0.0,0.0,0.0,0.0,0.0,0.0,0.0,0.0,0.0,0.0,0.0,0.0,0.0512,0.0,0.0,0.0,0.0,0.0,0.0,0.0,0.0,0.0,0.0,0.0,0.0,0.0,0.0,0.0,0.0,0.0,0.0,0.0,0.0,0.0,0.0,0.0,0.0,0.0,0.0,0.0,0.0,0.0,0.0,0.0,0.0,0.0,0.0,0.0,0.0,0.0,0.0,0.0,0.0,0.0,0.0,0.0,0.0,0.0,0.0,0.0,0.0,0.0,0.0,0.0,0.0,0.0,0.0,0.0,0.0,0.0,0.0,0.0,0.2534,0.2605,0.2673,0.2679,0.2692,0.2579,0.2374,0.0,0.0,0.0,0.0,0.0,0.0,0.0,0.0,0.0,0.0,0.0,0.0,0.0,0.0,0.0,0.0,0.0,0.0,0.0,0.0,0.0,0.0,0.0,0.0,0.0,0.0,0.0,0.0,0.0,0.0,0.0,0.0,0.0,0.0,0.0,0.0,0.0,0.0,0.0,0.0,0.0,0.0,0.0,0.0,0.0,0.0,0.0,0.0,0.0,0.0,0.0,0.0,0.0,0.0,0.0,0.0,0.0,0.0,0.0,0.0,0.0,0.0,0.0,0.0,0.0,0.0,0.0,0.0,0.0,0.0,0.0,0.0,0.0,0.0,0.0,0.0,0.0,0.0,0.0,0.0,0.0,0.0,0.0,0.0,0.0,0.0,0.0,0.0,0.0,0.0,0.0,0.0,0.0,0.0,0.0,0.0,0.0,0.0,0.0,0.0,0.0,0.0,0.0,0.0,0.0,0.0,0.0,0.2408,0.2556,0.2689,0.2679,0.2679,0.2679,0.2563,0.2417,0.2204,0.0,0.0,0.0,0.0,0.0,0.0,0.0,0.0,0.0,0.0,0.0,0.0,0.0,0.0,0.0,0.0,0.0,0.0,0.0,0.0,0.0,0.0,0.0,0.0,0.0,0.0,0.0,0.0,0.0,0.0,0.0,0.0,0.0,0.0,0.0,0.0,0.0,0.0,0.0,0.041,0.0,0.0,0.0,0.0,0.0,0.0,0.0,0.0,0.1332,0.0,0.0,0.0,0.0,0.0,0.0,0.0,0.0,0.0,0.0,0.0,0.0,0.0,0.0,0.0,0.0,0.0,0.0,0.0,0.0,0.0,0.0,0.0,0.0,0.0,0.0,0.0,0.0,0.0,0.0,0.0,0.0,0.0,0.0,0.0,0.0,0.0,0.0,0.0,0.0,0.0,0.0,0.0,0.0,0.0,0.0,0.0,0.0,0.0,0.0,0.0,0.0,0.0,0.0,0.0,0.0,0.2441,0.2472,0.2556,0.2691,0.2679,0.2679,0.2692,0.2581,0.2401,0.2217,0.0,0.0,0.0,0.0,0.0,0.0,0.0,0.0,0.0,0.0,0.0,0.0,0.0,0.0,0.0,0.0,0.0,0.0,0.0,0.0,0.0,0.0,0.0,0.0,0.0,0.0,0.0,0.0,0.0,0.0,0.0,0.0,0.0,0.0,0.0,0.0,0.0,0.0,0.0,0.0406,0.0539,0.0,0.0,0.0,0.0,0.0,0.0,0.0,0.0,0.1493,0.0,0.0,0.0,0.0,0.0,0.0,0.0,0.0,0.0,0.0,0.0,0.0,0.0,0.0,0.0,0.0,0.0,0.0,0.0,0.0,0.0,0.0,0.0,0.0,0.0,0.0,0.0,0.0,0.0,0.0,0.0,0.0,0.0,0.0,0.0,0.0,0.0,0.0,0.0,0.0,0.0,0.0,0.0,0.0,0.0,0.0,0.0,0.0,0.0,0.0,0.0,0.0,0.0,0.0,0.0,0.2333,0.2443,0.2556,0.2691,0.2679,0.2679,0.2692,0.2461,0.2294,0.0,0.0,0.0,0.0,0.0,0.0,0.0,0.0,0.0,0.0,0.0,0.0,0.0,0.0,0.0,0.0,0.0,0.0,0.0,0.0,0.0,0.0,0.0,0.0,0.0,0.0,0.0,0.0,0.0,0.0,0.0,0.0,0.0,0.0,0.0,0.0,0.0,0.0,0.0,0.0,0.0532,0.078,0.0406,0.0,0.0,0.0,0.0,0.0,0.0,0.1761,0.1769,0.0,0.0,0.0,0.0,0.0,0.0,0.0,0.0,0.0,0.0,0.0,0.0,0.0,0.0,0.0,0.0,0.0,0.0,0.0,0.0,0.0,0.0,0.0,0.0,0.0,0.0,0.0,0.0,0.0,0.0,0.0,0.0,0.0,0.0,0.0,0.0,0.0,0.0,0.0,0.0,0.0,0.0,0.0,0.0,0.0,0.0,0.0,0.0,0.0,0.0,0.0,0.0,0.0,0.0,0.0,0.2192,0.2365,0.2512,0.2686,0.2679,0.2682,0.2666,0.2418,0.2258,0.0,0.0,0.0,0.0,0.0,0.0,0.0,0.0,0.0,0.0,0.0,0.0,0.0,0.0,0.0,0.0,0.0,0.0,0.0,0.0,0.0,0.0,0.0,0.0,0.0,0.0,0.0,0.0,0.0,0.0,0.0,0.0,0.0,0.0,0.0,0.0,0.0,0.0,0.0,0.0,0.0,0.1023,0.0732,0.1269,0.0,0.0,0.0,0.0,0.2055,0.2061,0.0,0.0,0.0,0.0,0.0,0.0,0.0,0.0,0.0,0.0,0.0,0.0,0.0,0.0,0.0,0.0,0.0,0.0,0.0,0.0,0.0,0.0,0.0,0.0,0.0,0.0,0.0,0.0,0.0,0.0,0.0,0.0,0.0,0.0,0.0,0.0,0.0,0.0,0.0,0.0,0.0,0.0,0.0,0.0,0.0,0.0,0.0,0.0,0.0,0.0,0.0,0.0,0.0,0.0,0.0,0.0,0.2185,0.2227,0.237,0.2681,0.2679,0.2649,0.253,0.2592,0.2455,0.0,0.0,0.0,0.0,0.0,0.0,0.0,0.0,0.0,0.0,0.0,0.0,0.0,0.0,0.0,0.0,0.0,0.0,0.0,0.0,0.0,0.0,0.0,0.0,0.0,0.0,0.0,0.0,0.0,0.0,0.0,0.0,0.0,0.0,0.0,0.0,0.0,0.0,0.0,0.0,0.0,0.1149,0.0746,0.1422,0.1904,0.0,0.0,0.194,0.2366,0.2296,0.0,0.0,0.0,0.0,0.0,0.0,0.0,0.0,0.0,0.0,0.0,0.0,0.0,0.0,0.0,0.0,0.0,0.0,0.0,0.0,0.0,0.0,0.0,0.0,0.0,0.0,0.0,0.0,0.0,0.0,0.0,0.0,0.0,0.0,0.0,0.0,0.0,0.0,0.0,0.0,0.0,0.0,0.0,0.0,0.0,0.0,0.0,0.0,0.0,0.0,0.0,0.0,0.0,0.0,0.0,0.1933,0.2197,0.2195,0.2351,0.2667,0.2679,0.2626,0.2501,0.2563,0.2486,0.0,0.0,0.0,0.0,0.0,0.0,0.0,0.0,0.0,0.0,0.0,0.0,0.0,0.0,0.0,0.0,0.0,0.0,0.0,0.0,0.0,0.0,0.0,0.0,0.0,0.0,0.0,0.0,0.0,0.0,0.0,0.0,0.0,0.0,0.0,0.0,0.0,0.0,0.0,0.0,0.0,0.0,0.1404,0.183,0.0,0.0,0.0,0.2287,0.2575,0.0,0.0,0.0,0.0,0.0,0.0,0.0,0.0,0.0,0.0,0.0,0.0,0.0,0.0,0.0,0.0,0.0,0.0,0.0,0.0,0.0,0.0,0.0,0.0,0.0,0.0,0.0,0.0,0.0,0.0,0.0,0.0,0.0,0.0,0.0,0.0,0.0,0.0,0.0,0.0,0.0,0.0,0.0,0.0,0.0,0.0,0.0,0.0,0.0,0.0,0.0,0.0,0.0,0.0,0.0,0.0,0.0,0.2202,0.2195,0.241,0.2843,0.2858,0.281,0.27,0.2726,0.0,0.0,0.0,0.0,0.0,0.0,0.0,0.0,0.0,0.0,0.0,0.0,0.0,0.0,0.0,0.0,0.0,0.0,0.0,0.0,0.0,0.0,0.0,0.0,0.0,0.0,0.0,0.0,0.0,0.0,0.0,0.0,0.0,0.0,0.0,0.0,0.0,0.0,0.0,0.0,0.0,0.0,0.146,0.1937,0.2219,0.2442,0.0,0.0,0.2609,0.2684,0.2584,0.2434,0.0,0.0,0.0,0.0,0.0,0.0,0.0,0.0,0.0,0.0,0.0,0.0,0.0,0.0,0.0,0.0,0.0,0.0,0.0,0.0,0.0,0.0,0.0,0.0,0.0,0.0,0.0,0.0,0.0,0.0,0.0,0.0,0.0,0.0,0.0,0.0,0.0,0.0,0.0,0.0,0.0,0.0,0.0,0.0,0.0,0.0,0.0,0.0,0.0,0.0,0.0,0.0,0.0,0.0,0.0,0.2184,0.2195,0.2554,0.3226,0.3259,0.3247,0.3241,0.3358,0.3046,0.0,0.0,0.0,0.0,0.0,0.0,0.0,0.0,0.0,0.0,0.0,0.0,0.0,0.0,0.0,0.0,0.0,0.0,0.0,0.0,0.0,0.0,0.0,0.0,0.0,0.0,0.0,0.0,0.0,0.0,0.0,0.0,0.0,0.0,0.0,0.0,0.0,0.0,0.0,0.0,0.0,0.1815,0.1978,0.2496,0.282,0.0,0.0,0.2835,0.272,0.2587,0.2433,0.2248,0.0,0.0,0.0,0.0,0.0,0.0,0.0,0.0,0.0,0.0,0.0,0.0,0.0,0.0,0.0,0.0,0.0,0.0,0.0,0.0,0.0,0.0,0.0,0.0,0.0,0.0,0.0,0.0,0.0,0.0,0.0,0.0,0.0,0.0,0.0,0.0,0.0,0.0,0.0,0.0,0.0,0.0,0.0,0.0,0.0,0.0,0.0,0.0,0.0,0.0,0.0,0.0,0.0,0.2237,0.2621,0.2782,0.3165,0.3702,0.3742,0.3591,0.3304,0.342,0.3272,0.0,0.0,0.0,0.0,0.0,0.0,0.0,0.0,0.0,0.0,0.0,0.0,0.0,0.0,0.0,0.0,0.0,0.0,0.0,0.0,0.0,0.0,0.0,0.0,0.0,0.0,0.0,0.0,0.0,0.0,0.0,0.0,0.0,0.0,0.0,0.0,0.0,0.0,0.0,0.0,0.0,0.204,0.2391,0.2628,0.0,0.0,0.2812,0.2812,0.2935,0.2704,0.248,0.2394,0.2182,0.0,0.0,0.0,0.0,0.0,0.0,0.0,0.0,0.0,0.0,0.0,0.0,0.0,0.0,0.0,0.0,0.0,0.0,0.0,0.0,0.0,0.0,0.0,0.0,0.0,0.0,0.0,0.0,0.0,0.0,0.0,0.0,0.0,0.0,0.0,0.0,0.0,0.0,0.0,0.0,0.0,0.0,0.0,0.0,0.0,0.0,0.0,0.0,0.0,0.0,0.0,0.0,0.2425,0.2894,0.3156,0.3594,0.4175,0.4186,0.4004,0.3648,0.3716,0.3568,0.0,0.0,0.0,0.0,0.0,0.0,0.0,0.0,0.0,0.0,0.0,0.0,0.0,0.0,0.0,0.0,0.0,0.0,0.0,0.0,0.0,0.0,0.0,0.0,0.0,0.0,0.0,0.0,0.0,0.0,0.0,0.0,0.0,0.0,0.0,0.0,0.0,0.0,0.0,0.0,0.0,0.2292,0.2703,0.2802,0.2833,0.2939,0.2881,0.2871,0.3013,0.2756,0.2537,0.2506,0.0,0.0,0.0,0.0,0.0,0.0,0.0,0.0,0.0,0.0,0.0,0.0,0.0,0.0,0.0,0.0,0.0,0.0,0.0,0.0,0.0,0.0,0.0,0.0,0.0,0.0,0.0,0.0,0.0,0.0,0.1804,0.0,0.0,0.0,0.0,0.0,0.0,0.0,0.0,0.0,0.0,0.0,0.0,0.0,0.0,0.0,0.0,0.0,0.0,0.0,0.0,0.0,0.0,0.2448,0.2894,0.3197,0.3734,0.4563,0.4589,0.4508,0.4369,0.4372,0.397,0.3128,0.0,0.0,0.0,0.0,0.0,0.0,0.0,0.0,0.0,0.0,0.0,0.0,0.0,0.0,0.0,0.0,0.0,0.0,0.0,0.0,0.0,0.0,0.0,0.0,0.0,0.0,0.0,0.0,0.0,0.0,0.0,0.0,0.0,0.0,0.0,0.0,0.0,0.0,0.0,0.2185,0.258,0.2859,0.3001,0.3081,0.3089,0.3086,0.3044,0.2942,0.2798,0.2658,0.0,0.0,0.0,0.0,0.0,0.0,0.0,0.0,0.0,0.0,0.0,0.0,0.0,0.0,0.0,0.0,0.0,0.0,0.0,0.0,0.0,0.0,0.0,0.0,0.0,0.0,0.0,0.2028,0.1938,0.0,0.0,0.0,0.0,0.0,0.0,0.0,0.0,0.0,0.0,0.0,0.338,0.3507,0.0,0.0,0.0,0.0,0.0,0.0,0.0,0.0,0.0,0.0,0.0,0.0,0.2885,0.359,0.3902,0.4352,0.5033,0.5068,0.4937,0.4689,0.4492,0.4066,0.3398,0.0,0.0,0.0,0.0,0.0,0.0,0.0,0.0,0.0,0.0,0.0,0.0,0.0,0.0,0.0,0.0,0.0,0.0,0.0,0.0,0.0,0.0,0.0,0.0,0.0,0.0256,0.0,0.0,0.0,0.0,0.0,0.0,0.0,0.0,0.0,0.0,0.0,0.1879,0.2211,0.2548,0.2793,0.2895,0.301,0.3069,0.0,0.0,0.0,0.0,0.0,0.0,0.0,0.0,0.0,0.0,0.0,0.0,0.0,0.0,0.2849,0.2445,0.2276,0.2195,0.2195,0.0,0.0,0.0,0.0,0.0,0.0,0.0,0.0,0.0,0.0,0.0,0.0,0.0,0.0,0.2725,0.0,0.2732,0.0,0.0,0.0,0.0,0.0,0.0,0.0,0.0,0.3368,0.3486,0.3736,0.3796,0.3558,0.0,0.3487,0.3613,0.0,0.0,0.0,0.0,0.0,0.0,0.0,0.0,0.3368,0.4118,0.4399,0.4775,0.5285,0.5312,0.5137,0.4811,0.4456,0.4072,0.3686,0.3548,0.3509,0.0,0.0,0.0,0.0,0.0,0.0,0.0,0.0,0.0,0.0,0.0,0.0,0.0,0.0,0.0,0.0,0.0,0.0,0.0,0.0,0.0,0.0,0.0,0.0567,0.0,0.0,0.0,0.0,0.0,0.0,0.0,0.0,0.0,0.174,0.1963,0.2227,0.2534,0.2751,0.2927,0.3028,0.0,0.0,0.0,0.0,0.0,0.0,0.0,0.353,0.4056,0.3847,0.3684,0.3899,0.3789,0.3643,0.3488,0.0,0.0,0.259,0.2449,0.2376,0.2363,0.2337,0.2299,0.2313,0.2326,0.2378,0.0,0.0,0.0,0.0,0.0,0.0,0.0,0.0,0.3555,0.3848,0.0,0.4075,0.0,0.0,0.0,0.0,0.0,0.0,0.0,0.0,0.399,0.3953,0.4173,0.4003,0.3761,0.361,0.4579,0.4802,0.4219,0.3395,0.0,0.0,0.0,0.0,0.0,0.0,0.381,0.4392,0.4664,0.4962,0.5299,0.5312,0.5156,0.4807,0.4305,0.4012,0.3982,0.367,0.3509,0.3509,0.3492,0.0,0.0,0.0,0.0,0.0,0.0,0.0,0.0,0.0,0.0,0.0,0.0,0.0,0.0,0.0,0.0,0.0,0.0,0.0,0.0,0.0914,0.0,0.0,0.0,0.0,0.0,0.0,0.0,0.0,0.0,0.0,0.2018,0.2416,0.2688,0.2713,0.0,0.0,0.0,0.0,0.3445,0.4221,0.4288,0.4394,0.4936,0.4771,0.4529,0.4439,0.0,0.0,0.3875,0.4113,0.4203,0.385,0.3634,0.346,0.3118,0.2837,0.2687,0.2664,0.2585,0.251,0.2515,0.2592,0.2657,0.5785,0.0,0.0,0.0,0.0,0.4626,0.4646,0.4645,0.4546,0.4525,0.4525,0.4274,0.0,0.0,0.0,0.0,0.0,0.0,0.3948,0.4527,0.4416,0.4362,0.4363,0.5142,0.5098,0.4335,0.5011,0.529,0.5115,0.468,0.417,0.3631,0.0,0.0,0.0,0.0,0.4134,0.4651,0.4761,0.4965,0.5309,0.5312,0.5137,0.4796,0.4466,0.4198,0.3998,0.3673,0.3509,0.3509,0.3509,0.0,0.0,0.0,0.0,0.0,0.0,0.0,0.0,0.0,0.0,0.0,0.0,0.0,0.0,0.0,0.0,0.0,0.0,0.0,0.1184,0.1184,0.1245,0.0,0.0,0.0,0.0,0.0,0.0,0.0,0.0,0.0,0.2487,0.2695,0.2881,0.0,0.0,0.3212,0.3296,0.3552,0.3796,0.3956,0.0,0.0,0.0,0.4369,0.4474,0.4966,0.4931,0.4705,0.4283,0.3879,0.3584,0.3458,0.3171,0.293,0.284,0.2761,0.2683,0.2692,0.2658,0.2631,0.2652,0.2688,0.2679,0.7045,0.6065,0.5831,0.5593,0.5344,0.5518,0.556,0.554,0.5446,0.5483,0.5526,0.5018,0.4721,0.456,0.3976,0.0,0.0,0.0,0.4747,0.5245,0.5094,0.496,0.488,0.5465,0.5396,0.4778,0.5248,0.5491,0.5491,0.5627,0.5347,0.4681,0.0,0.0,0.4167,0.4267,0.4529,0.4978,0.4998,0.5097,0.5293,0.5312,0.5209,0.4995,0.4605,0.4322,0.417,0.3744,0.3509,0.3509,0.3509,0.3509,0.0,0.0,0.0,0.0,0.0,0.0,0.0,0.0,0.0,0.0,0.0,0.1236,0.1081,0.0,0.0,0.0,0.1511,0.1573,0.1583,0.1628,0.0,0.0,0.0,0.0,0.0,0.0,0.0,0.2462,0.2671,0.2771,0.2791,0.2882,0.2986,0.3013,0.3077,0.3236,0.3454,0.0,0.3778,0.4161,0.4272,0.4384,0.4534,0.4546,0.4669,0.4963,0.4975,0.4748,0.4322,0.3984,0.3772,0.3588,0.3233,0.2924,0.294,0.2828,0.2679,0.2679,0.2679,0.2679,0.2679,0.2679,0.2679,0.7905,0.7835,0.7281,0.661,0.5952,0.6472,0.655,0.6318,0.6257,0.6524,0.6901,0.6034,0.5554,0.5365,0.4507,0.0,0.553,0.5526,0.5773,0.618,0.5873,0.5635,0.5496,0.5321,0.5149,0.5039,0.5427,0.561,0.5666,0.6272,0.6329,0.5815,0.5226,0.4783,0.4543,0.4741,0.5028,0.5339,0.533,0.5304,0.5312,0.5312,0.5283,0.525,0.4703,0.4392,0.4355,0.3805,0.3509,0.3509,0.3509,0.3509,0.3499,0.0,0.0,0.0,0.0,0.0,0.0,0.0,0.0,0.0,0.0,0.0,0.0,0.0,0.0,0.0,0.1876,0.0,0.2016,0.214,0.0,0.0,0.0,0.2191,0.2228,0.241,0.2506,0.2532,0.0,0.0,0.2894,0.0,0.3106,0.2998,0.2983,0.3195,0.3682,0.348,0.3619,0.4614,0.4531,0.4484,0.4984,0.5104,0.5011,0.4709,0.4602,0.4485,0.412,0.4269,0.4358,0.404,0.3644,0.3358,0.3358,0.3087,0.2799,0.2777,0.2731,0.2679,0.2698,0.2715,0.2713,0.8136,0.7868,0.7752,0.758,0.7387,0.7543,0.7552,0.7447,0.6793,0.6574,0.6618,0.5567,0.4931,0.4685,0.5111,0.542,0.5669,0.5903,0.61,0.6186,0.6124,0.5816,0.5384,0.6169,0.6321,0.5937,0.6404,0.6647,0.664,0.66,0.6633,0.6667,0.6334,0.5913,0.5402,0.5452,0.5521,0.5605,0.5611,0.5501,0.5319,0.5312,0.517,0.4932,0.4593,0.4299,0.4094,0.3702,0.3509,0.3509,0.3509,0.3509,0.3506,0.3446,0.0,0.0,0.0,0.0,0.0,0.0,0.0,0.0,0.0,0.2135,0.2007,0.0,0.209,0.0,0.2118,0.2157,0.2142,0.2189,0.0,0.0,0.2305,0.2298,0.2547,0.2532,0.2573,0.2774,0.2866,0.2894,0.2894,0.3405,0.374,0.3606,0.3746,0.3774,0.3517,0.406,0.4394,0.4322,0.4685,0.508,0.5219,0.5432,0.5331,0.4685,0.4605,0.446,0.4072,0.4053,0.4102,0.4007,0.3907,0.384,0.381,0.3744,0.353,0.3231,0.2906,0.2679,0.2683,0.279,0.2835,0.8474,0.8295,0.8292,0.8117,0.7791,0.7506,0.7239,0.6933,0.6457,0.6232,0.6195,0.5643,0.529,0.5145,0.563,0.5974,0.6168,0.6263,0.628,0.6293,0.649,0.6386,0.6097,0.6701,0.6834,0.658,0.6852,0.6877,0.6656,0.6489,0.6415,0.6413,0.6266,0.6172,0.6107,0.621,0.6214,0.6102,0.5845,0.5571,0.5326,0.5312,0.5197,0.5037,0.4876,0.4673,0.4349,0.4173,0.3955,0.3748,0.3713,0.371,0.3724,0.3724,0.3773,0.0,0.0,0.0,0.0,0.0,0.0,0.0,0.0,0.0,0.0,0.0,0.2574,0.2523,0.2398,0.2333,0.2333,0.238,0.2466,0.2577,0.25,0.2503,0.2682,0.2653,0.2652,0.2788,0.2868,0.2894,0.2913,0.3552,0.3868,0.3559,0.4134,0.4434,0.3982,0.4127,0.4223,0.44,0.4635,0.495,0.5317,0.5222,0.5055,0.4864,0.4694,0.4457,0.4088,0.4153,0.4215,0.4056,0.3991,0.3926,0.3726,0.3688,0.3542,0.3151,0.286,0.2738,0.2769,0.2849,0.2902,0.8752,0.8672,0.8672,0.8185,0.7362,0.6843,0.6338,0.59,0.5773,0.5675,0.5573,0.5705,0.5807,0.5905,0.5953,0.6312,0.682,0.6652,0.6535,0.6443,0.6867,0.6994,0.6894,0.6961,0.6961,0.6894,0.6898,0.6598,0.6093,0.6157,0.6082,0.5818,0.5897,0.6208,0.675,0.7007,0.6954,0.6593,0.6045,0.5631,0.536,0.5394,0.539,0.5353,0.5313,0.5137,0.4809,0.4793,0.4575,0.4093,0.4082,0.4089,0.404,0.4049,0.4151,0.0,0.4369,0.0,0.0,0.0,0.0,0.0,0.0,0.0,0.0,0.3393,0.3162,0.295,0.2734,0.2588,0.2541,0.2635,0.2679,0.2679,0.2679,0.2679,0.2679,0.2696,0.276,0.284,0.2963,0.3043,0.3091,0.3675,0.3921,0.3509,0.4222,0.4845,0.4677,0.4133,0.4051,0.4854,0.4676,0.4934,0.5471,0.5139,0.4855,0.5096,0.4934,0.454,0.4183,0.4425,0.4538,0.4121,0.4056,0.394,0.3472,0.3425,0.3282,0.2939,0.2827,0.2819,0.2843,0.2886,0.2954,0.8454,0.7913,0.791,0.7146,0.5916,0.5786,0.5997,0.6392,0.5702,0.5012,0.4338,0.4361,0.473,0.5287,0.5783,0.6363,0.7065,0.743,0.7239,0.658,0.7135,0.7015,0.6398,0.681,0.6774,0.6374,0.6371,0.6044,0.5502,0.5964,0.6285,0.6436,0.69,0.7314,0.7646,0.0,0.0,0.0,0.6268,0.5946,0.5658,0.5886,0.5893,0.5621,0.5401,0.0,0.4813,0.4793,0.4648,0.4349,0.4532,0.0,0.0,0.0,0.0,0.0,0.0,0.0,0.0,0.0,0.0,0.0,0.4165,0.411,0.4218,0.4081,0.3736,0.3126,0.3124,0.302,0.2688,0.2694,0.2679,0.2679,0.2698,0.2679,0.2699,0.2791,0.3039,0.354,0.37,0.3778,0.3788,0.4419,0.4626,0.404,0.4309,0.4701,0.5111,0.4961,0.4962,0.5199,0.5506,0.5916,0.633,0.6049,0.5722,0.5637,0.5359,0.5017,0.4635,0.4841,0.4848,0.4186,0.4264,0.4361,0.3923,0.3875,0.3677,0.3278,0.3163,0.3093,0.2819,0.2825,0.2949,0.859,0.0,0.8262,0.7391,0.0,0.6039,0.585,0.5574,0.5453,0.5143,0.4778,0.5116,0.5297,0.5367,0.6375,0.6637,0.6337,0.6834,0.664,0.5887,0.6418,0.6418,0.6003,0.6194,0.6115,0.5872,0.5777,0.5437,0.4891,0.5173,0.5516,0.5963,0.6273,0.6767,0.743,0.7456,0.7233,0.6787,0.6414,0.603,0.5728,0.5732,0.5685,0.5521,0.0,0.0,0.0,0.0,0.0,0.0,0.0,0.0,0.0,0.0,0.0,0.4827,0.4728,0.4647,0.4647,0.4644,0.4697,0.4823,0.4851,0.4773,0.4615,0.4486,0.4237,0.3881,0.3712,0.3632,0.3547,0.3321,0.3163,0.3216,0.3044,0.2874,0.2839,0.2924,0.312,0.3389,0.3579,0.3649,0.3651,0.4279,0.4499,0.4055,0.4485,0.4957,0.5195,0.5043,0.5019,0.5634,0.6212,0.6639,0.6756,0.6576,0.6355,0.6127,0.5675,0.5313,0.5176,0.5118,0.4916,0.441,0.4473,0.4425,0.3802,0.3656,0.3511,0.3136,0.3019,0.2955,0.2756,0.2856,0.3018,0.8728,0.8586,0.8454,0.764,0.6394,0.629,0.5632,0.4708,0.0,0.0,0.0,0.5959,0.5959,0.5592,0.677,0.6711,0.5749,0.6096,0.5866,0.5185,0.5658,0.5785,0.5642,0.5594,0.5497,0.5356,0.5254,0.4883,0.4286,0.4369,0.4718,0.526,0.5416,0.5969,0.6933,0.6996,0.6996,0.6976,0.6569,0.6181,0.5875,0.5638,0.5524,0.5524,0.5641,0.5601,0.539,0.5585,0.5354,0.4609,0.4606,0.4599,0.4559,0.4556,0.477,0.525,0.5246,0.5216,0.52,0.5216,0.5227,0.5309,0.5343,0.5223,0.4819,0.4794,0.4747,0.4685,0.4433,0.4339,0.4464,0.4112,0.3821,0.3836,0.3493,0.3181,0.2973,0.3074,0.322,0.3292,0.3473,0.3512,0.3577,0.4186,0.4347,0.4007,0.465,0.5351,0.5394,0.5235,0.5386,0.6194,0.6689,0.6972,0.6953,0.674,0.6603,0.6517,0.5952,0.5538,0.5562,0.5378,0.5024,0.4697,0.4677,0.4381,0.3709,0.3536,0.3282,0.2893,0.2837,0.2838,0.2778,0.2974,0.3162,0.8451,0.78,0.7182,0.6418,0.5622,0.5032,0.5003,0.5296,0.4842,0.4624,0.4651,0.4736,0.506,0.5513,0.5728,0.6036,0.6448,0.6524,0.6096,0.0,0.5852,0.575,0.5052,0.5528,0.5419,0.4842,0.481,0.4422,0.3829,0.418,0.4696,0.5286,0.5811,0.6389,0.6954,0.6996,0.6996,0.6996,0.6923,0.674,0.6473,0.643,0.6406,0.6383,0.5942,0.5678,0.5655,0.5668,0.5541,0.5203,0.5397,0.5421,0.5189,0.514,0.5225,0.5273,0.5025,0.4864,0.487,0.4874,0.4992,0.528,0.5504,0.5408,0.488,0.5254,0.5397,0.5095,0.5166,0.5159,0.4883,0.4718,0.4434,0.4038,0.3908,0.3666,0.3152,0.3249,0.3503,0.391,0.4158,0.4195,0.4191,0.4693,0.485,0.45,0.4913,0.5502,0.6002,0.6428,0.6656,0.6852,0.6937,0.6996,0.697,0.6784,0.6637,0.6587,0.63,0.5913,0.568,0.5753,0.5612,0.4992,0.4971,0.4808,0.4319,0.4045,0.3718,0.3311,0.3291,0.3271,0.2952,0.3124,0.3297,0.8371,0.7694,0.7343,0.6524,0.5433,0.4789,0.4677,0.4923,0.4653,0.4704,0.503,0.5027,0.503,0.5029,0.5764,0.5848,0.5471,0.5846,0.5583,0.4921,0.5156,0.5059,0.4726,0.4841,0.4756,0.4431,0.4364,0.412,0.3772,0.3958,0.4489,0.5289,0.617,0.675,0.6982,0.6996,0.6996,0.6996,0.6843,0.6723,0.6593,0.6471,0.6368,0.6365,0.5932,0.5708,0.5708,0.5564,0.5357,0.505,0.5145,0.5143,0.5038,0.5025,0.511,0.528,0.5154,0.508,0.5077,0.5208,0.5358,0.5528,0.5802,0.5848,0.5575,0.5816,0.5884,0.5708,0.5532,0.537,0.5303,0.4788,0.4332,0.4141,0.3929,0.3619,0.3318,0.3383,0.3602,0.382,0.3917,0.3963,0.3965,0.4439,0.4739,0.4522,0.5151,0.5983,0.6538,0.681,0.6975,0.6996,0.6996,0.6996,0.699,0.6896,0.681,0.6824,0.6478,0.6211,0.6052,0.6098,0.5751,0.5357,0.5298,0.5133,0.4755,0.4297,0.3948,0.3743,0.3416,0.3242,0.3092,0.3202,0.3334,0.809,0.7562,0.7398,0.6563,0.5334,0.4778,0.4542,0.454,0.4508,0.4787,0.5218,0.5275,0.4976,0.4627,0.5664,0.5525,0.4653,0.503,0.5001,0.4543,0.4489,0.4489,0.4479,0.4345,0.4254,0.4212,0.41,0.399,0.3856,0.3807,0.4306,0.5325,0.6419,0.6996,0.6996,0.6996,0.6996,0.6983,0.68,0.6683,0.668,0.6422,0.6278,0.6273,0.5987,0.5812,0.5819,0.5618,0.5387,0.5138,0.5118,0.5122,0.5115,0.5103,0.5237,0.5467,0.5494,0.551,0.5507,0.5702,0.5815,0.5815,0.6104,0.629,0.63,0.6357,0.6285,0.6084,0.5735,0.5564,0.5491,0.4862,0.4285,0.4261,0.397,0.3709,0.3455,0.351,0.3602,0.3602,0.3602,0.3668,0.3838,0.4266,0.4759,0.519,0.5717,0.6368,0.6877,0.6831,0.6677,0.6933,0.6996,0.6996,0.6996,0.699,0.698,0.6996,0.6667,0.6535,0.6531,0.6264,0.6024,0.59,0.5803,0.5595,0.5165,0.4704,0.4269,0.3984,0.3631,0.3358,0.3259,0.3305,0.3389,0.7207,0.7032,0.6459,0.5676,0.497,0.4754,0.467,0.4653,0.4554,0.4519,0.4646,0.4598,0.4605,0.4519,0.4679,0.4653,0.4489,0.4572,0.457,0.4489,0.4489,0.4489,0.4489,0.4472,0.44,0.4238,0.4182,0.4122,0.3974,0.3885,0.431,0.5306,0.644,0.6961,0.6975,0.6975,0.6975,0.6996,0.6973,0.6963,0.6967,0.67,0.6553,0.6566,0.6288,0.6152,0.6156,0.6129,0.6098,0.6072,0.6045,0.6058,0.6055,0.6058,0.6075,0.6092,0.6102,0.6115,0.6109,0.6135,0.6152,0.6172,0.6402,0.6573,0.6556,0.6784,0.6574,0.6005,0.5985,0.5865,0.5423,0.5177,0.4821,0.4343,0.4263,0.4123,0.3661,0.3592,0.3602,0.3602,0.3667,0.3794,0.4286,0.485,0.5561,0.6289,0.6298,0.6413,0.675,0.6316,0.6121,0.6761,0.6996,0.6996,0.6996,0.6996,0.6996,0.6982,0.6958,0.69,0.6857,0.6881,0.6867,0.6583,0.6509,0.6162,0.5768,0.5339,0.4787,0.4121,0.3848,0.3791,0.3618,0.3532,0.3517,0.6858,0.6436,0.6141,0.5576,0.494,0.4852,0.4826,0.4818,0.4762,0.4733,0.4733,0.4733,0.4662,0.4493,0.4489,0.4489,0.4489,0.4489,0.4489,0.4489,0.4489,0.4489,0.4489,0.4489,0.4457,0.4379,0.4375,0.4274,0.4177,0.4322,0.4811,0.5498,0.5946,0.6238,0.6514,0.652,0.6689,0.6975,0.6996,0.6996,0.6986,0.6886,0.6847,0.6814,0.656,0.6432,0.6412,0.6293,0.6196,0.6196,0.6196,0.6196,0.6196,0.6196,0.6196,0.6196,0.6196,0.6196,0.6196,0.635,0.6432,0.6455,0.668,0.6823,0.6847,0.6936,0.6692,0.6142,0.6144,0.5962,0.537,0.4998,0.4546,0.4052,0.3922,0.3838,0.3644,0.3602,0.3689,0.4007,0.4071,0.4288,0.487,0.5459,0.5983,0.6517,0.6541,0.6668,0.6559,0.6359,0.655,0.6846,0.6996,0.6996,0.6996,0.6996,0.6996,0.6996,0.6996,0.6996,0.6996,0.6996,0.6996,0.6975,0.6637,0.634,0.6044,0.5251,0.4587,0.4096,0.3826,0.372,0.3614,0.3602,0.3542,0.6327,0.5866,0.5837,0.5529,0.5036,0.4992,0.4946,0.497,0.4906,0.4918,0.4918,0.4918,0.4799,0.4633,0.4575,0.4534,0.4494,0.4489,0.4489,0.4489,0.4489,0.4489,0.4489,0.4489,0.4489,0.4489,0.4486,0.4387,0.4278,0.47,0.5149,0.5429,0.5546,0.5741,0.5982,0.6151,0.6437,0.6774,0.6894,0.6996,0.6996,0.6996,0.6996,0.6976,0.682,0.6707,0.67,0.6523,0.6431,0.6412,0.6415,0.6415,0.6412,0.6409,0.6412,0.6412,0.6415,0.6412,0.6415,0.661,0.6707,0.6727,0.6893,0.6996,0.6996,0.6996,0.6831,0.651,0.641,0.6109,0.513,0.4672,0.4178,0.3687,0.3602,0.3622,0.3816,0.3816,0.4051,0.4546,0.4652,0.4802,0.5284,0.591,0.6413,0.6304,0.652,0.6771,0.6431,0.651,0.655,0.6915,0.6873,0.6834,0.6954,0.6996,0.6996,0.6996,0.6996,0.6996,0.6996,0.6996,0.6828,0.6683,0.6392,0.5953,0.5481,0.4756,0.4291,0.4128,0.3873,0.3614,0.36,0.3602,0.3602,0.5439,0.5434,0.5437,0.5422,0.5361,0.5184,0.509,0.5083,0.4961,0.4897,0.4942,0.4936,0.4916,0.4852,0.475,0.4633,0.4508,0.4493,0.4489,0.4489,0.4489,0.4489,0.4489,0.4489,0.4489,0.4489,0.4489,0.4419,0.4288,0.4776,0.5043,0.4974,0.542,0.5653,0.5682,0.6103,0.6347,0.6422,0.68,0.7003,0.6996,0.6996,0.6996,0.6993,0.698,0.696,0.6966,0.696,0.6946,0.6953,0.6923,0.6933,0.6943,0.6933,0.6923,0.693,0.6936,0.694,0.6926,0.694,0.6953,0.697,0.6973,0.6996,0.6996,0.6996,0.6954,0.6933,0.6891,0.6267,0.4933,0.4694,0.4329,0.3818,0.3687,0.3904,0.4327,0.4369,0.4631,0.5067,0.5197,0.5262,0.5346,0.6292,0.6538,0.6349,0.6246,0.6392,0.6619,0.6079,0.6121,0.6619,0.6689,0.6413,0.687,0.6996,0.6996,0.6996,0.6996,0.6954,0.6975,0.6933,0.6659,0.6362,0.6066,0.5567,0.4805,0.4349,0.4091,0.3922,0.3772,0.36,0.3602,0.3602,0.3602,0.5394,0.5394,0.5394,0.5394,0.5388,0.5301,0.5312,0.5274,0.5228,0.5235,0.5203,0.5233,0.5148,0.5019,0.4967,0.4838,0.4613,0.4537,0.4489,0.4489,0.4489,0.4489,0.4489,0.4489,0.4489,0.4489,0.4489,0.4678,0.4977,0.4836,0.4885,0.5031,0.4898,0.5085,0.5726,0.6044,0.6418,0.6988,0.7236,0.7218,0.702,0.6996,0.6996,0.6996,0.6996,0.6996,0.6996,0.6996,0.6996,0.6996,0.6996,0.6996,0.6996,0.6996,0.6996,0.6996,0.6996,0.6996,0.6996,0.6996,0.6996,0.6996,0.6996,0.7003,0.6996,0.6996,0.6996,0.7003,0.7,0.648,0.587,0.5569,0.5332,0.4811,0.4683,0.4714,0.4913,0.4976,0.5065,0.5238,0.5308,0.5435,0.5809,0.6243,0.6392,0.6291,0.6498,0.6629,0.652,0.6362,0.6563,0.6841,0.6855,0.6768,0.6912,0.6996,0.6996,0.6996,0.6954,0.6725,0.6662,0.651,0.6237,0.5733,0.5499,0.5238,0.4498,0.4094,0.3858,0.3751,0.3602,0.3602,0.3602,0.3602,0.3602,0.5394,0.5394,0.5394,0.5394,0.5394,0.5394,0.5394,0.5394,0.5394,0.5394,0.5394,0.5394,0.5303,0.5206,0.5122,0.5,0.4828,0.468,0.4612,0.4568,0.4564,0.4539,0.4496,0.4489,0.4489,0.4489,0.4489,0.4761,0.5083,0.4734,0.4705,0.4949,0.4527,0.4658,0.5369,0.5833,0.6428,0.6974,0.7331,0.7383,0.7178,0.705,0.6996,0.6996,0.6996,0.6996,0.6996,0.6996,0.6996,0.6996,0.6996,0.6996,0.6996,0.6996,0.6996,0.6996,0.6996,0.6996,0.6996,0.6996,0.6996,0.6996,0.7,0.703,0.7134,0.7078,0.7093,0.7209,0.7183,0.699,0.6856,0.6754,0.6393,0.5655,0.5433,0.5447,0.5502,0.5457,0.5384,0.534,0.5502,0.5698,0.5897,0.6237,0.6349,0.6246,0.6725,0.6946,0.678,0.6978,0.7299,0.7296,0.7311,0.7236,0.7229,0.7224,0.6873,0.6804,0.6747,0.6513,0.6258,0.6087,0.5784,0.5216,0.4867,0.4648,0.4327,0.3922,0.3731,0.3644,0.3602,0.3602,0.3602,0.3602,0.3622,0.5394,0.5394,0.5394,0.5394,0.5394,0.5394,0.5394,0.5394,0.5394,0.5394,0.5394,0.5394,0.5385,0.5356,0.5211,0.5101,0.5059,0.4975,0.4831,0.4731,0.4721,0.4641,0.4516,0.4516,0.4503,0.4491,0.4489,0.4489,0.4572,0.4517,0.4534,0.4537,0.4524,0.4559,0.4351,0.5653,0.619,0.6501,0.7214,0.7541,0.7464,0.7235,0.709,0.7066,0.7073,0.708,0.705,0.7016,0.6996,0.6996,0.6996,0.6996,0.6996,0.6996,0.6996,0.6996,0.6996,0.6996,0.6996,0.6996,0.7006,0.7053,0.7023,0.7184,0.7414,0.7265,0.7293,0.7656,0.7632,0.7546,0.7732,0.7745,0.7267,0.6046,0.5934,0.5999,0.5955,0.5833,0.5628,0.5541,0.5848,0.5901,0.5761,0.6298,0.6752,0.6656,0.7017,0.7472,0.7402,0.7577,0.7812,0.7849,0.7749,0.7616,0.7548,0.7455,0.6941,0.6551,0.6493,0.6346,0.602,0.5784,0.5564,0.5127,0.513,0.4933,0.4672,0.4268,0.39,0.3792,0.3707,0.3709,0.3772,0.3794,0.3707,0.5394,0.5394,0.5394,0.5394,0.5394,0.5394,0.5394,0.5394,0.5394,0.5394,0.5394,0.5394,0.5394,0.5387,0.5339,0.532,0.5284,0.5267,0.5089,0.4886,0.4852,0.4765,0.4673,0.4648,0.4565,0.4505,0.4489,0.4489,0.4489,0.4489,0.4489,0.4489,0.4489,0.4982,0.5735,0.6289,0.6793,0.7595,0.7969,0.7999,0.7809,0.7672,0.7599,0.7619,0.7626,0.7626,0.7586,0.7226,0.701,0.7013,0.6996,0.6996,0.6996,0.6996,0.6996,0.6996,0.6996,0.6996,0.7,0.7016,0.7116,0.7275,0.7325,0.7475,0.7736,0.7669,0.7692,0.7902,0.7816,0.7819,0.7882,0.7905,0.7662,0.725,0.7214,0.6946,0.6564,0.6152,0.6155,0.6424,0.635,0.6277,0.6507,0.699,0.7126,0.7302,0.76,0.7786,0.7809,0.7899,0.7902,0.7902,0.7892,0.7939,0.7846,0.7746,0.7412,0.6971,0.6736,0.6387,0.5996,0.5736,0.5469,0.5338,0.5333,0.5226,0.4944,0.4633,0.4288,0.4007,0.3943,0.3987,0.4071,0.3965,0.3794,0.5394,0.5394,0.5394,0.5394,0.5394,0.5394,0.5394,0.5394,0.5394,0.5394,0.5394,0.5394,0.5394,0.5394,0.5394,0.5394,0.5394,0.5394,0.5293,0.5091,0.4982,0.4916,0.4792,0.4775,0.4694,0.46,0.4576,0.4544,0.4489,0.4489,0.4489,0.4489,0.4732,0.5275,0.6226,0.6772,0.7441,0.8069,0.8294,0.8308,0.8085,0.7962,0.7905,0.7902,0.7902,0.7905,0.7879,0.7533,0.7339,0.7316,0.7239,0.7144,0.7023,0.7,0.7046,0.7168,0.7201,0.7238,0.7335,0.7373,0.7406,0.7605,0.7642,0.7776,0.7975,0.7999,0.7965,0.8195,0.8132,0.8112,0.8215,0.8238,0.8235,0.8235,0.8104,0.7798,0.7154,0.6512,0.6311,0.6571,0.6604,0.6747,0.6972,0.7341,0.7491,0.7837,0.8002,0.8096,0.812,0.8175,0.8189,0.8218,0.8292,0.8258,0.813,0.7994,0.7867,0.75,0.7148,0.6671,0.6213,0.6093,0.5894,0.5814,0.5794,0.5676,0.5437,0.506,0.472,0.4482,0.4362,0.42,0.42,0.386,0.3689,0.5394,0.5394,0.5394,0.5394,0.5394,0.5394,0.5394,0.5394,0.5394,0.5394,0.5394,0.5394,0.5394,0.5394,0.5394,0.5394,0.5394,0.5394,0.5387,0.5327,0.5203,0.5069,0.4943,0.4874,0.479,0.4719,0.4702,0.4663,0.4571,0.4539,0.4503,0.4577,0.5101,0.5542,0.5975,0.7012,0.7685,0.7956,0.8274,0.8445,0.8419,0.8139,0.7999,0.8009,0.8019,0.8029,0.8029,0.7982,0.7929,0.7866,0.7619,0.7388,0.7136,0.7053,0.7239,0.7504,0.7537,0.7622,0.7812,0.7802,0.7859,0.7912,0.7942,0.8059,0.831,0.8205,0.8235,0.8637,0.8524,0.8494,0.8691,0.8705,0.8738,0.8751,0.8396,0.8015,0.761,0.6962,0.6738,0.6676,0.688,0.7231,0.7367,0.7735,0.7929,0.8044,0.8263,0.8367,0.8452,0.853,0.8705,0.8705,0.8608,0.8567,0.8404,0.8365,0.8257,0.8118,0.7743,0.7314,0.681,0.666,0.6598,0.6493,0.6356,0.6214,0.6066,0.5824,0.5625,0.5522,0.5197,0.4679,0.4345,0.4168,0.3892,0.5394,0.5394,0.5394,0.5394,0.5394,0.5394,0.5394,0.5394,0.5394,0.5394,0.5394,0.5394,0.5394,0.5394,0.5394,0.5394,0.5394,0.5394,0.5394,0.539,0.5361,0.5216,0.5041,0.4938,0.4874,0.4862,0.4858,0.4838,0.4792,0.4679,0.4663,0.4683,0.5264,0.5821,0.6391,0.7241,0.7969,0.8454,0.861,0.8681,0.8671,0.8585,0.8581,0.8574,0.8535,0.8557,0.8548,0.8574,0.8325,0.7935,0.7842,0.7756,0.7646,0.7632,0.7669,0.7776,0.7789,0.7819,0.7895,0.7929,0.8019,0.8233,0.8257,0.8383,0.8661,0.8598,0.8631,0.8798,0.8728,0.8714,0.8765,0.8781,0.8781,0.8718,0.8335,0.8104,0.8215,0.7828,0.753,0.8006,0.8207,0.8239,0.8284,0.8367,0.852,0.8547,0.8597,0.8664,0.8667,0.8687,0.8781,0.8781,0.8725,0.8744,0.8714,0.8701,0.8658,0.8638,0.8431,0.8202,0.7781,0.7518,0.751,0.7484,0.7309,0.7139,0.7122,0.6994,0.6809,0.6464,0.5696,0.5059,0.5049,0.4922,0.4476,0.5394,0.5394,0.5394,0.5394,0.5394,0.5394,0.5394,0.5394,0.5394,0.5394,0.5394,0.5394,0.5394,0.5394,0.5394,0.5394,0.5394,0.5394,0.5394,0.5394,0.539,0.5337,0.522,0.5133,0.5072,0.4977,0.4977,0.494,0.4881,0.4826,0.4763,0.4963,0.5675,0.6304,0.6724,0.7713,0.8348,0.8725,0.8781,0.8781,0.8781,0.8781,0.8775,0.8775,0.8781,0.8781,0.8778,0.8801,0.8584,0.8223,0.8113,0.8042,0.7895,0.7905,0.7962,0.8086,0.8116,0.816,0.8252,0.8272,0.8348,0.8517,0.8586,0.8641,0.8761,0.8781,0.8781,0.8778,0.8781,0.8781,0.8781,0.8781,0.8781,0.8748,0.8424,0.8318,0.8752,0.8415,0.8398,0.8672,0.8781,0.8781,0.8781,0.8781,0.8781,0.8765,0.8728,0.8755,0.8788,0.8781,0.8781,0.8781,0.8781,0.8788,0.8778,0.8768,0.8761,0.8741,0.8715,0.8601,0.8432,0.8175,0.8134,0.8093,0.8119,0.8051,0.7859,0.7722,0.7505,0.6949,0.6111,0.5773,0.5834,0.52,0.4819,0.5394,0.5394,0.5394,0.5394,0.5394,0.5394,0.5394,0.5394,0.5394,0.5394,0.5394,0.5394,0.5394,0.5394,0.5394,0.5394,0.5394,0.5394,0.5394,0.5394,0.5394,0.5378,0.537,0.5349,0.525,0.5169,0.5153,0.5094,0.5023,0.497,0.4911,0.5221,0.6189,0.6793,0.7112,0.8093,0.8712,0.8781,0.8781,0.8781,0.8781,0.8781,0.8781,0.8781,0.8781,0.8781,0.8781,0.8768,0.8674,0.8456,0.8445,0.83,0.8055,0.8015,0.8129,0.836,0.8452,0.8549,0.8721,0.8691,0.8761,0.8771,0.8774,0.8781,0.8781,0.8781,0.8781,0.8781,0.8781,0.8781,0.8781,0.8781,0.8781,0.8778,0.8755,0.8781,0.8781,0.8781,0.8781,0.8781,0.8781,0.8781,0.8781,0.8781,0.8781,0.8781,0.8781,0.8781,0.8781,0.8781,0.8781,0.8781,0.8781,0.8781,0.8775,0.8775,0.8771,0.8771,0.8768,0.8705,0.8701,0.8558,0.8561,0.8527,0.8454,0.834,0.8171,0.8032,0.7976,0.7698,0.7007,0.6884,0.6764,0.5509,0.4777,0.5394,0.5394,0.5394,0.5394,0.5394,0.5394,0.5394,0.5394,0.5394,0.5394,0.5394,0.5394,0.5394,0.5394,0.5394,0.5394,0.5394,0.5394,0.5394,0.5394,0.5394,0.5394,0.5394,0.5394,0.5375,0.5334,0.5308,0.532,0.5269,0.5133,0.5086,0.5237,0.6272,0.6909,0.7087,0.8142,0.8781,0.8781,0.8781,0.8781,0.8781,0.8781,0.8781,0.8781,0.8781,0.8781,0.8781,0.8781,0.8748,0.8728,0.8694,0.8627,0.8542,0.8567,0.8604,0.8647,0.8694,0.8734,0.8791,0.8781,0.8781,0.8781,0.8781,0.8781,0.8781,0.8781,0.8781,0.8781,0.8781,0.8785,0.8844,0.8791,0.8828,0.8845,0.8845,0.8821,0.8788,0.8785,0.8781,0.8781,0.8781,0.8781,0.8781,0.8781,0.8781,0.8781,0.8781,0.8781,0.8781,0.8781,0.8781,0.8781,0.8781,0.8781,0.8781,0.8781,0.8781,0.8781,0.8781,0.8781,0.8781,0.8775,0.8717,0.8714,0.8734,0.8601,0.8412,0.8492,0.8453,0.8184,0.7875,0.7553,0.6995,0.5784,0.4983,0.5394,0.5394,0.5394,0.5394,0.5394,0.5394,0.5394,0.5394,0.5394,0.5394,0.5394,0.5394,0.5394,0.5394,0.5394,0.5394,0.5394,0.5394,0.5394,0.5394,0.5394,0.5394,0.5394,0.5394,0.5394,0.5394,0.5392,0.5394,0.5366,0.5286,0.524,0.535,0.652,0.7067,0.7215,0.8303,0.8864,0.8798,0.8781,0.8781,0.8781,0.8781,0.8781,0.8781,0.8781,0.8781,0.8781,0.8781,0.8781,0.8781,0.8781,0.8781,0.8781,0.8781,0.8781,0.8781,0.8781,0.8781,0.8778,0.8781,0.8781,0.8781,0.8781,0.8781,0.8781,0.8781,0.8781,0.8781,0.8791,0.8818,0.8961,0.8988,0.9021,0.9195,0.9215,0.9162,0.9004,0.8871,0.8781,0.8781,0.8781,0.8781,0.8781,0.8781,0.8781,0.8781,0.8781,0.8781,0.8781,0.8781,0.8781,0.8781,0.8781,0.8781,0.8781,0.8781,0.8781,0.8781,0.8781,0.8781,0.8781,0.8781,0.8771,0.8801,0.8794,0.8798,0.8665,0.8778,0.8778,0.8498,0.8203,0.7889,0.7261,0.6192,0.5565,0.5394,0.5394,0.5394,0.5394,0.5394,0.5394,0.5394,0.5394,0.5394,0.5394,0.5394,0.5394,0.5394,0.5394,0.5394,0.5394,0.5394,0.5394,0.5394,0.5394,0.5394,0.5394,0.5394,0.5394,0.5394,0.5394,0.5394,0.5394,0.5394,0.5425,0.5493,0.5778,0.6813,0.7438,0.7682,0.8465,0.9088,0.8914,0.8844,0.8781,0.8781,0.8781,0.8781,0.8781,0.8781,0.8781,0.8781,0.8781,0.8781,0.8781,0.8781,0.8781,0.8781,0.8781,0.8781,0.8781,0.8781,0.8781,0.8781,0.8781,0.8781,0.8781,0.8781,0.8781,0.8781,0.8848,0.8891,0.8908,0.8948,0.9098,0.9247,0.9281,0.9397,0.9576,0.9663,0.9566,0.9311,0.9021,0.8888,0.8781,0.8781,0.8781,0.8781,0.8781,0.8781,0.8781,0.8781,0.8781,0.8781,0.8781,0.8781,0.8781,0.8781,0.8781,0.8781,0.8781,0.8781,0.8781,0.8781,0.8781,0.8781,0.8781,0.8781,0.8781,0.8778,0.8781,0.8781,0.8781,0.8752,0.8669,0.8533,0.8239,0.7527,0.66,0.6111,0.5394,0.5394,0.5394,0.5394,0.5394,0.5394,0.5394,0.5394,0.5394,0.5394,0.5394,0.5394,0.5394,0.5394,0.5394,0.5394,0.5394,0.5394,0.5394,0.5394,0.5394,0.5394,0.5394,0.5394,0.5394,0.5394,0.5394,0.5394,0.5394,0.5427,0.5653,0.6424,0.7153,0.7729,0.8308,0.8984,0.9241,0.9074,0.8924,0.8828,0.8811,0.8781,0.8781,0.8781,0.8781,0.8781,0.8781,0.8781,0.8781,0.8781,0.8781,0.8781,0.8781,0.8781,0.8781,0.8781,0.8781,0.8781,0.8781,0.8781,0.8781,0.8781,0.8805,0.8828,0.8874,0.9031,0.9124,0.9198,0.9362,0.9536,0.9596,0.9609,0.9629,0.9725,0.9775,0.9742,0.9586,0.9385,0.9088,0.8975,0.8871,0.8781,0.8781,0.8781,0.8781,0.8781,0.8781,0.8781,0.8781,0.8781,0.8781,0.8781,0.8781,0.8781,0.8781,0.8781,0.8781,0.8781,0.8781,0.8781,0.8781,0.8781,0.8781,0.8781,0.8781,0.8781,0.8781,0.8781,0.8778,0.8725,0.8669,0.859,0.78,0.6985,0.6445,0.5394,0.5394,0.5394,0.5394,0.5394,0.5394,0.5394,0.5394,0.5394,0.5394,0.5394,0.5394,0.5394,0.5394,0.5394,0.5394,0.5394,0.5394,0.5394,0.5394,0.5394,0.5394,0.5394,0.5394,0.5394,0.5394,0.5394,0.5394,0.5394,0.5394,0.5684,0.616,0.7106,0.7904,0.8365,0.9162,0.9344,0.9256,0.9081,0.8924,0.8831,0.8785,0.8785,0.8811,0.8788,0.8781,0.8781,0.8781,0.8781,0.8781,0.8781,0.8781,0.8795,0.8798,0.8791,0.8801,0.8814,0.8811,0.8781,0.8781,0.8781,0.8824,0.8908,0.8998,0.9105,0.9254,0.9462,0.9516,0.9559,0.9785,0.9886,0.9903,0.9977,1.0137,1.0154,1.0074,0.992,0.9734,0.9494,0.9229,0.9015,0.8898,0.8781,0.8781,0.8781,0.8781,0.8781,0.8781,0.8781,0.8781,0.8781,0.8781,0.8781,0.8781,0.8781,0.8781,0.8781,0.8781,0.8781,0.8781,0.8781,0.8781,0.8781,0.8781,0.8781,0.8781,0.8781,0.8781,0.8781,0.8781,0.8725,0.8563,0.8049,0.7456,0.6775,0.5394,0.5394,0.5394,0.5394,0.5394,0.5394,0.5394,0.5394,0.5394,0.5394,0.5394,0.5394,0.5394,0.5394,0.5394,0.5394,0.5394,0.5394,0.5394,0.5394,0.5394,0.5394,0.5394,0.5394,0.5394,0.5394,0.5394,0.5394,0.5394,0.5394,0.5592,0.64,0.7537,0.8177,0.857,0.9535,0.9636,0.9544,0.9307,0.9151,0.8934,0.8891,0.8895,0.8891,0.8871,0.8908,0.9018,0.8965,0.8998,0.9021,0.9031,0.9008,0.8988,0.8985,0.8985,0.8965,0.8881,0.8838,0.8871,0.8888,0.8948,0.9078,0.9218,0.9274,0.9374,0.9586,0.98,0.9866,0.9923,1.0017,1.0174,1.0207,1.0335,1.0462,1.0526,1.0502,1.0257,1.008,0.9897,0.9606,0.9229,0.9024,0.8988,0.8911,0.8938,0.8788,0.8781,0.8781,0.8781,0.8781,0.8781,0.8781,0.8781,0.8781,0.8781,0.8781,0.8781,0.8781,0.8781,0.8781,0.8781,0.8781,0.8781,0.8781,0.8781,0.8781,0.8781,0.8781,0.8781,0.8781,0.8781,0.8646,0.8318,0.7533,0.6667,0.5394,0.5394,0.5394,0.5394,0.5394,0.5394,0.5394,0.5394,0.5394,0.5394,0.5394,0.5394,0.5394,0.5394,0.5394,0.5394,0.5394,0.5394,0.5394,0.5394,0.5394,0.5394,0.5394,0.5394,0.5394,0.5394,0.5394,0.5394,0.5394,0.5394,0.6208,0.7249,0.77,0.8613,0.9605,0.999,1.0053,0.9967,0.9743,0.9472,0.9214,0.9164,0.9164,0.9164,0.9181,0.9254,0.9412,0.9309,0.9254,0.9499,0.9546,0.9569,0.9583,0.9615,0.9615,0.9429,0.9182,0.8891,0.9108,0.9164,0.9272,0.9426,0.9593,0.9651,0.9772,0.991,1.016,1.0479,1.0455,1.0422,1.0459,1.0509,1.0556,1.0563,1.0586,1.0583,1.0482,1.0304,1.016,1.0074,0.9726,0.9431,0.9284,0.9188,0.9091,0.8914,0.8781,0.8788,0.8781,0.8781,0.8781,0.8781,0.8781,0.8781,0.8781,0.8781,0.8781,0.8781,0.8781,0.8781,0.8781,0.8781,0.8781,0.8781,0.8781,0.8781,0.8781,0.8781,0.8781,0.8781,0.8781,0.8781,0.8752,0.7747,0.6556,0.6599,0.6108,0.5589,0.5394,0.5394,0.5394,0.5394,0.5394,0.5394,0.5394,0.5394,0.5394,0.5394,0.5394,0.5394,0.5394,0.5394,0.5394,0.5394,0.5394,0.5394,0.5394,0.5394,0.5394,0.5394,0.5394,0.5394,0.5394,0.5394,0.5524,0.6108,0.7179,0.7795,0.8549,1.0012,1.0271,1.0236,1.0077,0.9836,0.9623,0.9522,0.9492,0.9464,0.9486,0.9489,0.9576,0.9626,0.9596,0.9542,0.9712,0.9718,0.9715,0.9686,0.9708,0.9708,0.9656,0.9469,0.9385,0.9447,0.9496,0.9586,0.9693,0.9843,1.0,1.0177,1.0301,1.0419,1.0563,1.0586,1.0589,1.0589,1.0589,1.0589,1.0589,1.0589,1.0589,1.0573,1.0516,1.0399,1.0307,1.0231,0.995,0.9627,0.9407,0.9284,0.9128,0.8958,0.8898,0.8858,0.8781,0.8781,0.8781,0.8781,0.8781,0.8781,0.8781,0.8814,0.8814,0.8781,0.8781,0.8781,0.8781,0.8781,0.8781,0.8781,0.8781,0.8781,0.8781,0.8781,0.8781,0.8781,0.8725,0.8586,0.753,0.6421,0.7929,0.7242,0.6176,0.5622,0.5394,0.5394,0.5394,0.5394,0.5394,0.5394,0.5394,0.5394,0.5394,0.5394,0.5394,0.5394,0.5394,0.5394,0.5394,0.5394,0.5394,0.5394,0.5394,0.5394,0.5394,0.5394,0.5394,0.5394,0.5493,0.5754,0.627,0.7016,0.773,0.8678,0.9591,1.0205,1.0462,1.0261,0.9973,0.982,0.9786,0.9793,0.9793,0.979,0.9796,0.9856,0.9913,0.981,0.9829,0.9973,0.9993,1.002,1.0003,1.0023,1.002,0.9983,0.9936,0.9943,0.9933,0.9873,0.9843,0.9943,1.006,1.0304,1.0489,1.0589,1.0589,1.0589,1.0589,1.0589,1.0589,1.0589,1.0589,1.0589,1.0589,1.0589,1.0583,1.0539,1.0519,1.0479,1.0432,1.0419,1.0077,0.969,0.9481,0.9337,0.9202,0.9038,0.9001,0.8988,0.8951,0.8998,0.9105,0.9035,0.8818,0.8841,0.8834,0.8864,0.8861,0.8834,0.8854,0.8801,0.8781,0.8781,0.8818,0.8781,0.8781,0.8781,0.8781,0.8781,0.8752,0.8613,0.8206,0.7179,0.6177,0.9172,0.8979,0.7307,0.6207,0.5491,0.5394,0.5427,0.5524,0.5427,0.5394,0.5394,0.5394,0.5394,0.5394,0.5394,0.5394,0.5394,0.5394,0.5394,0.5394,0.5394,0.5394,0.5394,0.5394,0.5394,0.5394,0.5394,0.5394,0.5622,0.6172,0.6953,0.7832,0.8121,0.9128,0.9942,1.0456,1.0579,1.0442,1.0207,1.0097,1.0087,1.0087,1.009,1.0087,1.011,1.0207,1.0482,1.0224,1.0194,1.0409,1.0399,1.0402,1.0365,1.0378,1.0375,1.0372,1.0378,1.0378,1.0352,1.0241,1.0244,1.0429,1.0519,1.0516,1.0579,1.0589,1.0589,1.0589,1.0589,1.0589,1.0589,1.0589,1.0589,1.0589,1.0589,1.0589,1.0589,1.0586,1.0569,1.0583,1.0563,1.0522,1.0486,1.009,0.9794,0.9647,0.9512,0.9352,0.9412,0.9402,0.9335,0.9362,0.9489,0.9355,0.8965,0.8958,0.9122,0.9112,0.9068,0.8995,0.8935,0.8898,0.8881,0.8948,0.8998,0.8875,0.8835,0.8995,0.9035,0.8848,0.8699,0.8504,0.7854,0.6853,0.585,0.9466,0.8967,0.8481,0.78,0.6953,0.6431,0.6205,0.6106,0.5655,0.5394,0.5394,0.5394,0.5394,0.5394,0.5394,0.5394,0.5394,0.5394,0.5394,0.5394,0.5394,0.5394,0.5394,0.5394,0.5394,0.5394,0.5428,0.5784,0.6266,0.6623,0.7605,0.8355,0.8742,0.9489,1.0269,1.0589,1.0589,1.0569,1.0486,1.0388,1.0422,1.0391,1.0391,1.0419,1.0391,1.0469,1.0553,1.0486,1.0512,1.0556,1.0583,1.0589,1.0589,1.0589,1.0589,1.0589,1.0589,1.0589,1.0589,1.0479,1.0489,1.0526,1.0583,1.0589,1.0589,1.0589,1.0589,1.0589,1.0589,1.0589,1.0589,1.0589,1.0589,1.0589,1.0589,1.0589,1.0589,1.0589,1.0589,1.0589,1.0589,1.0573,1.0543,1.0479,1.021,0.9993,0.9826,0.9739,0.9796,0.9802,0.9689,0.9639,0.975,0.9689,0.9319,0.9355,0.9459,0.9369,0.9282,0.9242,0.9182,0.9088,0.9101,0.9131,0.9188,0.9138,0.9171,0.9312,0.9252,0.9048,0.8678,0.8289,0.7503,0.661,0.5871,0.9733,0.9236,0.9536,0.904,0.7962,0.7079,0.6719,0.6558,0.5784,0.5394,0.5394,0.5394,0.5394,0.5394,0.5394,0.5394,0.5394,0.5394,0.5394,0.5394,0.5394,0.5394,0.5394,0.5394,0.5394,0.5394,0.546,0.5784,0.6588,0.695,0.7929,0.8909,0.9591,1.0139,1.0396,1.0589,1.0589,1.0589,1.0589,1.0589,1.0583,1.0579,1.0576,1.0566,1.0563,1.0566,1.0586,1.0556,1.0563,1.0579,1.0589,1.0589,1.0589,1.0589,1.0589,1.0589,1.0589,1.0589,1.0589,1.0589,1.0589,1.0589,1.0589,1.0589,1.0589,1.0589,1.0589,1.0589,1.0589,1.0589,1.0589,1.0589,1.0589,1.0589,1.0589,1.0589,1.0589,1.0589,1.0589,1.0589,1.0589,1.0589,1.0576,1.0549,1.0466,1.0267,1.0244,1.0141,1.0137,1.0114,1.0023,0.996,0.9977,0.986,0.9706,0.9746,0.975,0.9563,0.9509,0.9563,0.9516,0.9432,0.9281,0.9227,0.9277,0.9387,0.9424,0.9446,0.9339,0.9192,0.8741,0.8239,0.7664,0.6891,0.6414,1.0063,1.012,1.0386,0.9573,0.8151,0.7109,0.6815,0.6719,0.5818,0.5394,0.5394,0.5394,0.5394,0.5394,0.5394,0.5394,0.5394,0.5394,0.5394,0.5394,0.5394,0.5394,0.5394,0.5394,0.5394,0.5394,0.5622,0.6075,0.6815,0.7632,0.8519,0.9332,1.0072,1.046,1.0589,1.0589,1.0589,1.0589,1.0589,1.0589,1.0589,1.0589,1.0589,1.0589,1.0589,1.0589,1.0589,1.0589,1.0589,1.0589,1.0589,1.0589,1.0589,1.0589,1.0589,1.0589,1.0589,1.0589,1.0589,1.0589,1.0589,1.0589,1.0589,1.0589,1.0589,1.0589,1.0589,1.0589,1.0589,1.0589,1.0589,1.0589,1.0589,1.0589,1.0589,1.0589,1.0589,1.0589,1.0589,1.0589,1.0589,1.0589,1.0589,1.0583,1.0583,1.0546,1.0569,1.0533,1.0449,1.0382,1.0275,1.0258,1.0244,1.0144,1.0047,1.0074,1.0027,0.9826,0.9809,0.9913,0.9879,0.9743,0.9599,0.9407,0.9487,0.9706,0.9623,0.9522,0.9542,0.9512,0.8717,0.8153,0.7625,0.7206,0.6817,0.9649,0.9856,1.0144,1.0059,0.9599,0.8777,0.8091,0.7374,0.6143,0.5394,0.5394,0.5394,0.5394,0.5394,0.5394,0.5394,0.5394,0.5394,0.5394,0.5394,0.5394,0.5394,0.5394,0.5394,0.5427,0.5591,0.5914,0.6595,0.7597,0.8253,0.9227,1.0104,1.0364,1.0555,1.0589,1.0589,1.0589,1.0589,1.0589,1.0589,1.0589,1.0589,1.0589,1.0589,1.0589,1.0589,1.0589,1.0589,1.0589,1.0589,1.0589,1.0589,1.0589,1.0589,1.0589,1.0589,1.0589,1.0589,1.0589,1.0589,1.0589,1.0589,1.0589,1.0589,1.0589,1.0589,1.0589,1.0589,1.0589,1.0589,1.0589,1.0596,1.0596,1.0589,1.0589,1.0589,1.0589,1.0589,1.0589,1.0589,1.0589,1.0589,1.0589,1.0589,1.0589,1.0589,1.0589,1.0589,1.0526,1.0529,1.0476,1.0482,1.0472,1.0439,1.0405,1.0327,1.0324,1.0238,1.0244,1.0355,1.0271,1.0087,1.0027,0.9933,0.9963,0.9993,0.9983,0.9983,1.003,0.9807,0.9163,0.8664,0.8315,0.7841,0.7336,0.9184,0.9205,0.9485,0.9569,0.9565,0.9357,0.8646,0.7505,0.6336,0.5721,0.5458,0.5394,0.5394,0.5394,0.5394,0.5394,0.5394,0.5394,0.5394,0.5394,0.5394,0.5394,0.5394,0.5427,0.5653,0.5817,0.6143,0.6824,0.8353,0.8678,0.9422,1.0231,1.0589,1.0589,1.0589,1.0589,1.0589,1.0589,1.0589,1.0589,1.0589,1.0589,1.0589,1.0589,1.0589,1.0589,1.0589,1.0589,1.0589,1.0589,1.0589,1.0589,1.0589,1.0589,1.0589,1.0589,1.0589,1.0589,1.0589,1.0589,1.0589,1.0589,1.0589,1.0589,1.0589,1.0589,1.0589,1.0589,1.0613,1.0613,1.063,1.0636,1.0713,1.0713,1.07,1.0707,1.061,1.0613,1.0589,1.0589,1.0589,1.0589,1.0589,1.0589,1.0589,1.0589,1.0589,1.0589,1.0589,1.0589,1.0589,1.0583,1.0583,1.0536,1.0519,1.0526,1.0536,1.0579,1.0589,1.0589,1.0546,1.0355,1.0412,1.0408,1.0311,1.0287,1.0462,1.0509,1.0395,1.0222,0.9892,0.9435,0.9053,0.8646,0.8174,0.8809,0.8318,0.8526,0.8386,0.8109,0.8969,0.8355,0.6754,0.6621,0.6108,0.5394,0.5394,0.5394,0.5394,0.5394,0.5394,0.5394,0.5394,0.5394,0.5394,0.5394,0.5394,0.5394,0.5427,0.5686,0.5976,0.6301,0.6889,0.8847,0.8812,0.9294,1.0164,1.0523,1.0558,1.0589,1.0589,1.0589,1.0589,1.0589,1.0589,1.0589,1.0589,1.0589,1.0589,1.0589,1.0589,1.0589,1.0589,1.0589,1.0589,1.0589,1.0589,1.0589,1.0589,1.0589,1.0589,1.0589,1.0589,1.0589,1.0589,1.065,1.067,1.066,1.0623,1.066,1.0734,1.0811,1.0797,1.0811,1.0744,1.07,1.0827,1.0948,1.0899,1.0872,1.0788,1.0683,1.063,1.06,1.0589,1.0589,1.0589,1.0589,1.0589,1.0589,1.0589,1.0589,1.0589,1.0589,1.0589,1.0589,1.0589,1.0586,1.0586,1.0589,1.0589,1.0589,1.0589,1.0589,1.0586,1.0576,1.0559,1.0512,1.0489,1.0522,1.0553,1.0579,1.0589,1.0563,1.0395,1.0215,1.0089,0.9699,0.9668,0.9411,0.8916,0.8937,0.8986,0.915,0.937,0.9314,0.8318,0.6754,0.6106,0.5587,0.5394,0.5394,0.5394,0.5394,0.5394,0.5394,0.5394,0.5394,0.5394,0.5394,0.5394,0.5394,0.5394,0.5427,0.562,0.5879,0.6205,0.6629,0.7602,0.8059,0.8944,0.9626,1.0364,1.0526,1.0589,1.0589,1.0589,1.0589,1.0589,1.0589,1.0589,1.0589,1.0589,1.0589,1.0589,1.0589,1.0589,1.0589,1.0589,1.0589,1.0589,1.0589,1.0589,1.0589,1.0589,1.0589,1.0589,1.0589,1.0589,1.0593,1.067,1.0844,1.0875,1.0898,1.0951,1.1052,1.1116,1.1066,1.1052,1.1022,1.1042,1.1142,1.1186,1.1152,1.1092,1.0945,1.0827,1.067,1.0633,1.0589,1.0589,1.0589,1.0589,1.0589,1.0589,1.0589,1.0589,1.0589,1.0589,1.0589,1.0589,1.0589,1.0589,1.0589,1.0589,1.0589,1.0589,1.0589,1.0589,1.0589,1.0583,1.0566,1.0536,1.0536,1.0556,1.0569,1.0583,1.0589,1.0589,1.0589,1.0456,1.0431,1.0392,1.0271,1.0214,0.8717,0.8616,0.8598,0.8568,0.8441,0.8211,0.729,0.6256,0.598,0.5751,0.5427,0.5394,0.5394,0.5394,0.5394,0.5394,0.5394,0.5394,0.5394,0.5394,0.5394,0.5394,0.5394,0.546,0.5684,0.5912,0.6139,0.6496,0.7242,0.8415,0.9399,0.9948,1.0428,1.0523,1.0589,1.0589,1.0589,1.0589,1.0589,1.0589,1.0589,1.0589,1.0589,1.0589,1.0589,1.0589,1.0589,1.0589,1.0589,1.0589,1.0589,1.0589,1.0589,1.0589,1.0589,1.0589,1.0589,1.0589,1.0606,1.0734,1.0854,1.1002,1.1206,1.1343,1.1323,1.1373,1.1373,1.1346,1.1379,1.141,1.1466,1.1506,1.1429,1.1385,1.1273,1.1122,1.0925,1.0747,1.0663,1.0606,1.0589,1.0589,1.0589,1.0589,1.0589,1.0589,1.0589,1.0589,1.0589,1.0589,1.0589,1.0589,1.0589,1.0589,1.0589,1.0589,1.0589,1.0589,1.0589,1.0589,1.0589,1.0583,1.0559,1.0566,1.0583,1.0589,1.0589,1.0589,1.0589,1.0589,1.0589,1.0543,1.0509,1.0489,1.0472,0.8427,0.7872,0.78,0.7342,0.6214,0.6425,0.6101,0.5502,0.6125,0.6137,0.5491,0.5394,0.5394,0.5394,0.5394,0.5394,0.5394,0.5394,0.5394,0.5394,0.5394,0.5394,0.5394,0.5427,0.5653,0.5976,0.617,0.6237,0.7635,0.8579,0.9361,1.046,1.0558,1.0589,1.0589,1.0589,1.062,1.0707,1.0636,1.0589,1.0589,1.0589,1.0589,1.0589,1.0589,1.0589,1.0589,1.0589,1.0589,1.0589,1.0589,1.0589,1.0589,1.0589,1.0589,1.0636,1.0653,1.0693,1.077,1.0892,1.1082,1.1273,1.1581,1.1734,1.175,1.1724,1.1713,1.1703,1.1698,1.1737,1.1774,1.1827,1.1817,1.1717,1.1577,1.144,1.1313,1.1028,1.073,1.0663,1.0589,1.0589,1.0589,1.0589,1.0589,1.0589,1.0589,1.0589,1.0589,1.0589,1.0589,1.0589,1.0589,1.0589,1.0589,1.0589,1.0589,1.0589,1.0589,1.0589,1.0589,1.0589,1.0589,1.0589,1.0589,1.0589,1.0589,1.0589,1.0589,1.0589,1.0589,1.0589,1.0589,1.0589,1.0589,0.8692,0.8553,0.8763,0.8009,0.6832,0.7066,0.64,0.523,0.5541,0.5651,0.5428,0.5394,0.5394,0.5394,0.5394,0.5394,0.5394,0.5394,0.5394,0.5394,0.5394,0.5394,0.5394,0.5427,0.5557,0.5557,0.5653,0.6108,0.734,0.8153,0.8809,0.9687,1.0171,1.0589,1.0593,1.0603,1.0703,1.0812,1.0777,1.0697,1.0687,1.062,1.0589,1.0613,1.0626,1.066,1.0656,1.0633,1.061,1.0589,1.0589,1.0589,1.0589,1.0589,1.0589,1.0623,1.0762,1.0835,1.0969,1.1159,1.1369,1.1567,1.1849,1.1984,1.2081,1.2088,1.2081,1.2068,1.2021,1.2051,1.2061,1.2114,1.2134,1.2004,1.1857,1.1769,1.1638,1.1246,1.0847,1.0723,1.063,1.0589,1.0589,1.0589,1.0589,1.0589,1.0589,1.0589,1.0589,1.0589,1.0589,1.0589,1.0589,1.0589,1.0589,1.0589,1.0589,1.0589,1.0589,1.0589,1.0589,1.0589,1.0589,1.0589,1.0589,1.0589,1.0589,1.0589,1.0589,1.0589,1.0589,1.0589,1.0589,1.0589,1.0589,0.8781,0.8824,0.8948,0.8364,0.7505,0.7584,0.6887,0.5848,0.6115,0.5979,0.5456,0.5394,0.5394,0.5427,0.5394,0.5394,0.5394,0.5394,0.5394,0.5394,0.5394,0.5394,0.5394,0.5394,0.5427,0.5427,0.5947,0.6562,0.7632,0.8318,0.9104,0.9783,1.0428,1.0596,1.0648,1.0707,1.0851,1.0975,1.0925,1.0939,1.0935,1.0874,1.0862,1.0908,1.0968,1.0961,1.0945,1.0945,1.0945,1.0885,1.0888,1.0811,1.0764,1.067,1.0687,1.0787,1.0905,1.1056,1.1223,1.145,1.1693,1.1886,1.2034,1.2191,1.2214,1.2214,1.2214,1.2201,1.2201,1.2198,1.2198,1.2238,1.2241,1.2161,1.1941,1.1792,1.1523,1.1192,1.0955,1.0891,1.0754,1.0589,1.0589,1.0589,1.0589,1.0589,1.0589,1.0589,1.0589,1.0589,1.0589,1.0589,1.0589,1.0589,1.0589,1.0589,1.0589,1.0589,1.0589,1.0589,1.0589,1.0589,1.0589,1.0589,1.0589,1.0589,1.0589,1.0589,1.0589,1.0589,1.0589,1.0589,1.0589,1.0589,1.0589,0.8781,0.8781,0.8785,0.8421,0.792,0.7886,0.729,0.6516,0.7078,0.6795,0.59,0.5835,0.5655,0.5428,0.5394,0.5394,0.5394,0.5394,0.5394,0.5394,0.5394,0.5394,0.5394,0.5394,0.5524,0.5945,0.6527,0.7702,0.8941,0.9204,0.9527,1.0396,1.06,1.0613,1.0713,1.0868,1.1025,1.1199,1.1286,1.1433,1.1363,1.1226,1.1229,1.1326,1.143,1.143,1.1385,1.1382,1.1375,1.1323,1.1159,1.1089,1.1009,1.0905,1.0925,1.1025,1.1213,1.1319,1.1483,1.176,1.1919,1.2043,1.2201,1.2291,1.2305,1.2308,1.2308,1.2308,1.2308,1.2308,1.2308,1.2308,1.2308,1.2285,1.2041,1.1862,1.1543,1.1279,1.1172,1.1095,1.0871,1.0677,1.0603,1.06,1.0589,1.0589,1.0589,1.0589,1.0589,1.0589,1.0589,1.0589,1.0589,1.0589,1.0589,1.0589,1.0589,1.0589,1.0589,1.0589,1.0589,1.0589,1.0589,1.0589,1.0589,1.0589,1.0589,1.0589,1.0589,1.0589,1.0589,1.0589,1.0589,1.0589,1.0589,0.8781,0.8781,0.8781,0.8383,0.7823,0.7861,0.7464,0.6937,0.7296,0.7317,0.7146,0.7251,0.6861,0.5427,0.5394,0.5524,0.5817,0.5719,0.5493,0.5394,0.5589,0.5524,0.5491,0.5684,0.5912,0.6595,0.7407,0.8323,0.9428,0.9498,0.9725,1.0558,1.0589,1.0697,1.0935,1.1092,1.1246,1.1436,1.1567,1.1625,1.1867,1.17,1.1372,1.1382,1.143,1.143,1.1426,1.1426,1.1426,1.1403,1.1386,1.1353,1.1262,1.1206,1.1212,1.1333,1.1486,1.1672,1.1866,1.2021,1.2154,1.2161,1.2298,1.2298,1.2308,1.2308,1.2308,1.2308,1.2308,1.2308,1.2308,1.2308,1.2308,1.2308,1.2164,1.2024,1.1817,1.1647,1.1551,1.13,1.0982,1.0824,1.065,1.063,1.0589,1.0589,1.0589,1.0589,1.0589,1.0589,1.0589,1.0589,1.0589,1.0589,1.0589,1.0589,1.0589,1.0589,1.0589,1.0589,1.0589,1.0589,1.0589,1.0589,1.0589,1.0589,1.0589,1.0589,1.0589,1.0589,1.0589,1.0589,1.0589,1.0589,1.0589]}]]